[[{"header":{"parameterUnit":"m.s-1","parameterCategory":1,"la1":31.0,"la2":29.5877,"lo1":-88.7671,"lo2":-86.6584,"dy":0.0162,"dx":0.0185,"nx":115,"ny":88,"refTime":"2024-05-26T00:00:00:Z","depth":0,"parameterNumber":2,"parameterNumberName":"U-component_of_WINDS"},"data":[0.0,0.0,0.0,0.0,0.0,0.0,0.0,0.0,0.0,0.0,0.0,0.0,0.0,0.0,0.0,0.0,0.0,0.0,0.0,0.0,0.0,0.0,0.0,0.0,0.0,0.0,0.0,0.0,0.0,0.0,0.0,0.0,0.0,0.0,0.0,0.0,0.0,0.0,0.0,0.0,0.0,0.0,0.0,0.0,0.0,0.0,0.0,0.0,0.0,0.0,0.0,0.0,0.0,0.0,0.0,0.0,0.0,0.0,0.0,0.0,0.0,0.0,0.0,0.0,0.0,0.0,0.0,0.0,0.0,0.0,0.0,0.0,0.0,0.0,0.0,0.0,0.0,0.0,0.0,0.0,0.0,0.0,0.0,0.0,0.0,0.0,0.0,0.0,0.0,0.0,0.0,0.0,0.0,0.0,0.0,0.0,0.0,0.0,0.0,0.0,0.0,0.0,0.0,0.0,0.0,0.0,0.0,0.0,0.0,0.0,0.0,0.0,0.0,0.0,0.0,0.0,0.0,0.0,0.0,0.0,0.0,0.0,0.0,0.0,0.0,0.0,0.0,0.0,0.0,0.0,0.0,0.0,0.0,0.0,0.0,0.0,0.0,0.0,0.0,0.0,0.0,0.0,0.0,0.0,0.0,0.0,0.0,0.0,0.0,0.0,0.0,0.0,0.0,0.0,0.0,0.0,0.0,0.0,0.0,0.0,0.0,0.0,0.0,0.0,0.0,0.0,0.0,0.0,0.0,0.0,0.0,0.0,0.0,0.0,0.0,0.0,0.0,0.0,0.0,0.0,0.0,0.0,0.0,0.0,0.0,0.0,0.0,0.0,0.0,0.0,0.0,0.0,0.0,0.0,0.0,0.0,0.0,0.0,0.0,0.0,0.0,0.0,0.0,0.0,0.0,0.0,0.0,0.0,0.0,0.0,0.0,0.0,0.0,0.0,0.0,0.0,0.0,0.0,0.0,0.0,0.0,0.0,0.0,0.0,0.0,0.0,0.0,0.0,0.0,0.0,0.0,0.0,0.0,0.0,0.0,0.0,0.0,0.0,0.0,0.0,0.0,0.0,0.0,0.0,0.0,0.0,0.0,0.0,0.0,0.0,0.0,0.0,0.0,0.0,0.0,0.0,0.0,0.0,0.0,0.0,0.0,0.0,0.0,0.0,0.0,0.0,0.0,0.0,0.0,0.0,0.0,0.0,0.0,0.0,0.0,0.0,0.0,0.0,0.0,0.0,0.0,0.0,0.0,0.0,0.0,0.0,0.0,0.0,0.0,0.0,0.0,0.0,0.0,0.0,0.0,0.0,0.0,0.0,0.0,0.0,0.0,0.0,0.0,0.0,0.0,0.0,0.0,0.0,0.0,0.0,0.0,0.0,0.0,0.0,0.0,0.0,0.0,0.0,0.0,0.0,0.0,0.0,0.0,0.0,0.0,0.0,0.0,0.0,0.0,0.0,0.0,0.0,0.0,0.0,0.0,0.0,0.0,0.0,0.0,0.0,0.0,0.0,0.0,0.0,0.0,0.0,0.0,0.0,0.0,0.0,0.0,0.0,0.0,0.0,0.0,0.0,0.0,0.0,0.0,0.0,0.0,0.0,0.0,0.0,0.0,0.0,0.0,0.0,0.0,0.0,0.0,0.0,0.0,0.0,0.0,0.0,0.0,0.0,0.0,0.0,0.0,0.0,0.0,0.0,0.0,0.0,0.0,0.0,0.0,0.0,0.0,0.0,0.0,0.0,0.0,0.0,0.0,0.0,0.0,0.0,0.0,0.0,0.0,0.0,0.0,0.0,0.0,0.0,0.0,0.0,0.0,0.0,0.0,0.0,0.0,0.0,0.0,0.0,0.0,0.0,0.0,0.0,0.0,0.0,0.0,0.0,0.0,0.0,0.0,0.0,0.0,0.0,0.0,0.0,0.0,0.0,0.0,0.0,0.0,0.0,0.0,0.0,0.0,0.0,0.0,0.0,0.0,0.0,0.0,0.0,0.0,0.0,0.0,0.0,0.0,0.0,0.0,0.0,0.0,0.0,0.0,0.0,0.0,0.0,0.0,0.0,0.0,0.0,0.0,0.0,0.0,0.0,0.0,0.0,0.0,0.0,0.0,0.0,0.0,0.0,0.0,0.0,0.0,0.0,0.0,0.0,0.0,0.0,0.0,0.0,0.0,0.0,0.0,0.0,0.0,0.0,0.0,0.0,0.0,0.0,0.0,0.0,0.0,0.0,0.0,0.0,0.0,0.0,0.0,0.0,0.0,0.0,0.0,0.0,0.0,0.0,0.0,0.0,0.0,0.0,0.0,0.0,0.0,0.0,0.0,0.0,0.0,0.0,0.0,0.0,0.0,0.0,0.0,0.0,0.0,0.0,0.0,0.0,0.0,0.0,0.0,0.0,0.0,0.0,0.0,0.0,0.0,0.0,0.0,0.0,0.0,0.0,0.0,0.0,0.0,0.0,0.0,0.0,0.0,0.0,0.0,0.0,0.0,0.0,0.0,0.0,0.0,0.0,0.0,0.0,0.0,0.0,0.0,0.0,0.0,0.0,0.0,0.0,0.0,0.0,0.0,0.0,0.0,0.0,0.0,0.0,0.0,0.0,0.0,0.0,0.0,0.0,0.0,0.0,0.0,0.0,0.0,0.0,0.0,0.0,0.0,0.0,0.0,0.0,0.0,0.0,0.0,0.0,0.0,0.0,0.0,0.0,0.0,0.0,0.0,0.0,0.0,0.0,0.0,0.0,0.0,0.0,0.0,0.0,0.0,0.0,0.0,0.0,0.0,0.0,0.0,0.0,0.0,0.0,0.0,0.0,0.0,0.0,0.0,0.0,0.0,0.0,0.0,0.0,0.0,0.0,0.0,0.0,0.0,0.0,0.0,0.0,0.0,0.0,0.0,0.0,0.0,0.0,0.0,0.0,0.0,0.0,0.0,0.0,0.0,0.0,0.0,0.0,0.0,0.0,0.0,0.0,0.0,0.0,0.0,0.0,0.0,0.0,0.0,0.0,0.0,0.0,0.0,0.0,0.0,0.0,0.0,0.0,0.0,0.0,0.0,0.0,0.0,0.0,0.0,0.0,0.0,0.0,0.0,0.0,0.0,0.0,0.0,0.0,0.0,0.0,0.0,0.0,0.0,0.0,0.0,0.0,0.0,0.0,0.0,0.0,0.0,0.0,0.0,0.0,0.0,0.0,0.0,0.0,0.0,0.0,0.0,0.0,0.0,0.0,0.0,0.0,0.0,0.0,0.0,0.0,0.0,0.0,0.0,0.0,0.0,0.0,0.0,0.0,0.0,0.0,0.0,0.0,0.0,0.0,0.0,0.0,0.0,0.0,0.0,0.0,0.0,0.0,0.0,0.0,0.0,0.0,0.0,0.0,0.0,0.0,0.0,0.0,0.0,0.0,0.0,0.0,0.0,0.0,0.0,0.0,0.0,0.0,0.0,0.0,0.0,0.0,0.0,0.0,0.0,0.0,0.0,0.0,0.0,0.0,0.0,0.0,0.0,0.0,0.0,0.0,0.0,0.0,0.0,0.0,0.0,0.0,0.0,0.0,0.0,0.0,0.0,0.0,0.0,0.0,0.0,0.0,0.0,0.0,0.0,0.0,0.0,0.0,0.0,0.0,0.0,0.0,0.0,0.0,0.0,0.0,0.0,0.0,0.0,0.0,0.0,0.0,0.0,0.0,0.0,0.0,0.0,0.0,0.0,0.0,0.0,0.0,0.0,0.0,0.0,0.0,0.0,0.0,0.0,0.0,0.0,0.0,0.0,0.0,0.0,0.0,0.0,0.0,0.0,0.0,0.0,0.0,0.0,0.0,0.0,0.0,0.0,0.0,0.0,0.0,0.0,0.0,0.0,0.0,0.0,0.0,0.0,0.0,0.0,0.0,0.0,0.0,0.0,0.0,0.0,0.0,0.0,0.0,0.0,0.0,0.0,0.0,0.0,0.0,0.0,0.0,0.0,0.0,0.0,0.0,0.0,0.0,0.0,0.0,0.0,0.0,0.0,0.0,0.0,0.0,0.0,0.0,0.0,0.0,0.0,0.0,0.0,0.0,0.0,0.0,0.0,0.0,0.0,0.0,0.0,0.0,0.0,0.0,0.0,0.0,0.0,0.0,0.0,0.0,0.0,0.0,0.0,0.0,0.0,0.0,0.0,0.0,0.0,0.0,0.0,0.0,0.0,0.0,0.0,0.0,0.0,0.0,0.0,0.0,0.0,0.0,0.0,0.0,0.0,0.0,0.0,0.0,0.0,0.0,0.0,0.0,-5.3241,0.0,0.0,0.0,0.0,0.0,0.0,0.0,0.0,0.0,0.0,0.0,0.0,0.0,0.0,0.0,0.0,0.0,0.0,0.0,0.0,0.0,0.0,0.0,0.0,0.0,0.0,0.0,0.0,0.0,0.0,0.0,0.0,0.0,0.0,0.0,0.0,0.0,0.0,0.0,0.0,0.0,0.0,0.0,0.0,0.0,0.0,0.0,0.0,0.0,0.0,0.0,0.0,0.0,0.0,0.0,0.0,0.0,0.0,0.0,0.0,0.0,0.0,0.0,0.0,0.0,0.0,0.0,0.0,0.0,0.0,0.0,0.0,0.0,0.0,0.0,0.0,0.0,0.0,0.0,0.0,0.0,0.0,0.0,0.0,0.0,0.0,0.0,0.0,0.0,0.0,0.0,0.0,0.0,0.0,0.0,0.0,0.0,0.0,0.0,0.0,0.0,0.0,0.0,0.0,0.0,0.0,0.0,0.0,0.0,0.0,-5.6137,-5.5703,-5.5703,-5.4895,-5.3241,0.0,0.0,0.0,0.0,0.0,0.0,0.0,0.0,0.0,0.0,0.0,0.0,0.0,0.0,0.0,0.0,0.0,0.0,0.0,0.0,0.0,0.0,0.0,0.0,0.0,0.0,0.0,0.0,0.0,0.0,0.0,0.0,0.0,0.0,0.0,0.0,0.0,0.0,0.0,0.0,0.0,0.0,0.0,0.0,0.0,0.0,0.0,0.0,0.0,0.0,0.0,0.0,0.0,0.0,0.0,0.0,0.0,0.0,0.0,0.0,0.0,0.0,0.0,0.0,0.0,0.0,0.0,0.0,0.0,0.0,0.0,0.0,0.0,0.0,0.0,0.0,0.0,0.0,0.0,0.0,0.0,0.0,0.0,0.0,0.0,0.0,0.0,0.0,0.0,0.0,0.0,0.0,0.0,0.0,0.0,0.0,0.0,0.0,0.0,0.0,0.0,0.0,0.0,0.0,0.0,0.0,0.0,0.0,0.0,0.0,0.0,0.0,-5.6742,-5.5857,-5.3818,0.0,0.0,0.0,0.0,0.0,0.0,0.0,0.0,0.0,0.0,0.0,0.0,0.0,0.0,0.0,0.0,0.0,0.0,0.0,0.0,0.0,0.0,0.0,0.0,0.0,0.0,0.0,0.0,0.0,0.0,0.0,0.0,0.0,0.0,0.0,0.0,0.0,0.0,0.0,0.0,0.0,0.0,0.0,0.0,0.0,0.0,0.0,0.0,0.0,0.0,0.0,0.0,0.0,0.0,0.0,0.0,0.0,0.0,0.0,0.0,0.0,0.0,0.0,0.0,0.0,0.0,0.0,0.0,0.0,0.0,0.0,0.0,0.0,0.0,0.0,0.0,0.0,0.0,0.0,0.0,0.0,0.0,0.0,0.0,0.0,0.0,0.0,0.0,0.0,0.0,0.0,0.0,0.0,0.0,0.0,0.0,0.0,0.0,0.0,0.0,0.0,0.0,0.0,0.0,0.0,0.0,0.0,0.0,0.0,0.0,-5.7588,-5.9127,-5.9858,0.0,-5.5703,0.0,0.0,0.0,0.0,0.0,0.0,0.0,0.0,0.0,0.0,0.0,0.0,0.0,0.0,0.0,0.0,0.0,0.0,0.0,0.0,0.0,0.0,0.0,0.0,0.0,0.0,0.0,0.0,0.0,0.0,0.0,0.0,0.0,0.0,0.0,0.0,0.0,0.0,0.0,0.0,0.0,0.0,0.0,0.0,0.0,0.0,0.0,0.0,0.0,0.0,0.0,0.0,0.0,0.0,0.0,0.0,0.0,0.0,0.0,0.0,0.0,0.0,0.0,0.0,0.0,0.0,0.0,0.0,0.0,0.0,0.0,0.0,0.0,0.0,0.0,0.0,0.0,0.0,0.0,0.0,0.0,0.0,0.0,0.0,0.0,0.0,0.0,0.0,0.0,0.0,0.0,0.0,0.0,0.0,0.0,0.0,0.0,0.0,0.0,0.0,0.0,0.0,0.0,0.0,0.0,0.0,0.0,0.0,0.0,0.0,-5.8781,-5.9473,-5.8396,-5.6896,0.0,0.0,0.0,0.0,0.0,0.0,0.0,0.0,0.0,0.0,0.0,0.0,0.0,0.0,0.0,0.0,0.0,0.0,0.0,0.0,0.0,0.0,0.0,0.0,0.0,0.0,0.0,0.0,0.0,0.0,0.0,0.0,0.0,0.0,0.0,0.0,0.0,0.0,0.0,0.0,0.0,0.0,0.0,0.0,0.0,0.0,0.0,0.0,0.0,0.0,0.0,0.0,0.0,0.0,0.0,0.0,0.0,0.0,0.0,0.0,0.0,0.0,0.0,0.0,0.0,0.0,0.0,0.0,0.0,0.0,0.0,0.0,0.0,0.0,0.0,0.0,0.0,0.0,0.0,0.0,0.0,0.0,0.0,0.0,0.0,0.0,0.0,0.0,0.0,0.0,0.0,0.0,0.0,0.0,0.0,0.0,0.0,0.0,0.0,0.0,0.0,0.0,0.0,0.0,0.0,0.0,0.0,0.0,0.0,0.0,-5.8819,-5.9704,-6.0089,-5.8434,-5.6434,-5.4203,0.0,0.0,0.0,0.0,0.0,0.0,0.0,0.0,0.0,0.0,0.0,0.0,0.0,0.0,0.0,0.0,0.0,0.0,0.0,0.0,0.0,0.0,0.0,0.0,0.0,0.0,0.0,0.0,0.0,0.0,0.0,0.0,0.0,0.0,0.0,0.0,0.0,0.0,0.0,0.0,0.0,0.0,0.0,0.0,0.0,0.0,0.0,0.0,0.0,0.0,0.0,0.0,0.0,0.0,0.0,0.0,0.0,0.0,0.0,0.0,0.0,0.0,0.0,0.0,0.0,0.0,0.0,0.0,0.0,0.0,0.0,0.0,0.0,0.0,0.0,0.0,0.0,0.0,0.0,0.0,0.0,0.0,0.0,0.0,0.0,0.0,0.0,0.0,0.0,0.0,0.0,0.0,0.0,0.0,0.0,0.0,0.0,0.0,0.0,0.0,0.0,0.0,0.0,0.0,0.0,0.0,0.0,0.0,-6.1408,-6.0242,-6.0281,-6.1947,-6.1831,-5.9127,0.0,0.0,0.0,0.0,0.0,0.0,0.0,0.0,0.0,0.0,0.0,0.0,0.0,0.0,0.0,0.0,0.0,0.0,0.0,0.0,0.0,0.0,0.0,0.0,0.0,0.0,0.0,0.0,0.0,0.0,0.0,0.0,0.0,0.0,0.0,0.0,0.0,0.0,0.0,0.0,0.0,0.0,0.0,0.0,0.0,0.0,0.0,0.0,0.0,0.0,0.0,0.0,0.0,0.0,0.0,0.0,0.0,0.0,0.0,0.0,0.0,0.0,0.0,0.0,0.0,0.0,0.0,0.0,0.0,0.0,0.0,0.0,0.0,0.0,0.0,0.0,0.0,0.0,0.0,0.0,0.0,0.0,0.0,0.0,0.0,0.0,0.0,0.0,0.0,0.0,0.0,0.0,0.0,0.0,0.0,0.0,0.0,0.0,0.0,0.0,0.0,0.0,0.0,0.0,0.0,0.0,0.0,0.0,0.0,-5.7165,-5.8704,-6.1127,-6.4205,-5.9819,-5.6703,0.0,0.0,0.0,0.0,0.0,0.0,0.0,0.0,0.0,0.0,0.0,0.0,0.0,0.0,0.0,0.0,0.0,0.0,0.0,0.0,0.0,0.0,0.0,0.0,0.0,0.0,0.0,0.0,0.0,0.0,0.0,0.0,0.0,0.0,0.0,0.0,0.0,0.0,0.0,0.0,0.0,0.0,0.0,0.0,0.0,0.0,0.0,0.0,0.0,0.0,0.0,0.0,0.0,0.0,0.0,0.0,0.0,0.0,0.0,0.0,0.0,0.0,0.0,0.0,0.0,0.0,0.0,0.0,0.0,0.0,0.0,0.0,0.0,0.0,0.0,0.0,0.0,0.0,0.0,0.0,0.0,0.0,0.0,0.0,0.0,0.0,0.0,0.0,0.0,0.0,0.0,0.0,0.0,0.0,0.0,0.0,0.0,0.0,0.0,0.0,0.0,0.0,0.0,0.0,0.0,0.0,0.0,0.0,0.0,-5.6511,0.0,-6.205,-6.3512,-5.8588,-5.5241,0.0,0.0,0.0,0.0,0.0,0.0,0.0,0.0,0.0,0.0,0.0,0.0,0.0,0.0,0.0,0.0,0.0,0.0,0.0,0.0,0.0,0.0,0.0,0.0,0.0,0.0,0.0,0.0,0.0,0.0,0.0,0.0,0.0,0.0,0.0,0.0,0.0,0.0,0.0,0.0,0.0,0.0,0.0,0.0,0.0,0.0,0.0,0.0,0.0,0.0,0.0,0.0,0.0,0.0,0.0,0.0,0.0,0.0,0.0,0.0,0.0,0.0,0.0,0.0,0.0,0.0,0.0,0.0,0.0,0.0,0.0,0.0,0.0,0.0,0.0,0.0,0.0,0.0,0.0,0.0,0.0,0.0,0.0,0.0,0.0,0.0,0.0,0.0,0.0,0.0,0.0,0.0,0.0,0.0,0.0,0.0,0.0,0.0,0.0,0.0,0.0,0.0,0.0,0.0,0.0,0.0,0.0,0.0,-5.4808,-6.0435,-6.3051,-6.2897,-5.9742,-5.8704,-5.5088,0.0,0.0,0.0,0.0,0.0,0.0,0.0,0.0,0.0,0.0,0.0,0.0,0.0,0.0,0.0,0.0,0.0,0.0,0.0,0.0,0.0,0.0,0.0,0.0,0.0,0.0,0.0,0.0,0.0,0.0,0.0,0.0,0.0,0.0,0.0,0.0,0.0,0.0,0.0,0.0,0.0,0.0,0.0,0.0,0.0,0.0,0.0,0.0,0.0,0.0,0.0,0.0,0.0,0.0,0.0,0.0,0.0,0.0,0.0,0.0,0.0,0.0,0.0,0.0,0.0,0.0,0.0,0.0,0.0,0.0,0.0,0.0,0.0,0.0,0.0,0.0,0.0,0.0,0.0,0.0,0.0,0.0,0.0,0.0,0.0,0.0,0.0,0.0,0.0,0.0,0.0,0.0,0.0,0.0,0.0,0.0,0.0,0.0,0.0,0.0,0.0,0.0,0.0,0.0,0.0,0.0,0.0,0.0,0.0,-5.728,-6.0358,-6.2589,-6.3666,-5.855,-5.5511,0.0,0.0,0.0,0.0,0.0,0.0,0.0,0.0,0.0,0.0,0.0,0.0,0.0,0.0,0.0,0.0,0.0,0.0,0.0,0.0,0.0,0.0,0.0,0.0,0.0,0.0,0.0,0.0,0.0,0.0,0.0,0.0,0.0,0.0,0.0,0.0,0.0,0.0,0.0,0.0,0.0,0.0,0.0,0.0,0.0,0.0,0.0,0.0,0.0,0.0,0.0,0.0,0.0,0.0,0.0,0.0,0.0,0.0,0.0,0.0,0.0,0.0,0.0,0.0,0.0,0.0,0.0,0.0,0.0,0.0,0.0,0.0,0.0,0.0,0.0,0.0,0.0,0.0,0.0,0.0,0.0,0.0,0.0,0.0,0.0,0.0,0.0,0.0,0.0,0.0,0.0,0.0,0.0,0.0,0.0,0.0,0.0,0.0,0.0,0.0,0.0,0.0,0.0,0.0,0.0,0.0,0.0,0.0,0.0,-5.8665,-6.155,-6.3551,-6.4448,-5.8896,-5.5742,-5.5357,0.0,0.0,0.0,0.0,0.0,0.0,0.0,0.0,0.0,0.0,0.0,0.0,0.0,0.0,0.0,0.0,0.0,0.0,0.0,0.0,0.0,0.0,0.0,0.0,0.0,0.0,0.0,0.0,0.0,0.0,0.0,0.0,0.0,0.0,0.0,0.0,0.0,0.0,0.0,0.0,0.0,0.0,0.0,0.0,0.0,0.0,0.0,0.0,0.0,0.0,0.0,0.0,0.0,0.0,0.0,0.0,0.0,0.0,0.0,0.0,0.0,0.0,0.0,0.0,0.0,0.0,0.0,0.0,0.0,0.0,0.0,0.0,0.0,0.0,0.0,0.0,0.0,0.0,0.0,0.0,0.0,0.0,0.0,0.0,0.0,0.0,0.0,0.0,0.0,0.0,0.0,0.0,0.0,0.0,0.0,0.0,0.0,0.0,0.0,0.0,0.0,0.0,0.0,0.0,0.0,0.0,0.0,0.0,-6.3397,-6.6013,-6.5897,-6.2832,-6.0012,-5.6203,0.0,0.0,0.0,0.0,0.0,0.0,0.0,0.0,0.0,0.0,0.0,0.0,0.0,0.0,0.0,0.0,0.0,0.0,0.0,0.0,0.0,0.0,0.0,0.0,0.0,0.0,0.0,0.0,0.0,0.0,0.0,0.0,0.0,0.0,0.0,0.0,0.0,0.0,0.0,0.0,0.0,0.0,0.0,0.0,0.0,0.0,0.0,0.0,0.0,0.0,0.0,0.0,0.0,0.0,0.0,0.0,0.0,0.0,0.0,0.0,0.0,0.0,0.0,0.0,0.0,0.0,0.0,0.0,0.0,0.0,0.0,0.0,0.0,0.0,0.0,0.0,0.0,0.0,0.0,0.0,0.0,0.0,0.0,0.0,0.0,0.0,0.0,0.0,0.0,0.0,0.0,0.0,0.0,0.0,0.0,0.0,0.0,0.0,0.0,0.0,0.0,0.0,0.0,0.0,0.0,0.0,0.0,0.0,0.0,-6.5243,-6.8898,-7.0129,-6.8552,-6.3743,-5.9588,0.0,0.0,0.0,0.0,0.0,0.0,0.0,0.0,0.0,0.0,0.0,0.0,0.0,0.0,0.0,0.0,0.0,0.0,0.0,0.0,0.0,0.0,0.0,0.0,0.0,0.0,0.0,0.0,0.0,0.0,0.0,0.0,0.0,0.0,0.0,0.0,0.0,0.0,0.0,0.0,0.0,0.0,0.0,0.0,0.0,0.0,0.0,0.0,0.0,0.0,0.0,0.0,0.0,0.0,0.0,0.0,0.0,0.0,0.0,0.0,0.0,0.0,0.0,0.0,0.0,0.0,0.0,0.0,0.0,0.0,0.0,0.0,0.0,0.0,0.0,0.0,0.0,0.0,0.0,0.0,0.0,0.0,0.0,0.0,0.0,0.0,0.0,0.0,0.0,0.0,0.0,0.0,0.0,0.0,0.0,0.0,0.0,0.0,0.0,0.0,0.0,0.0,0.0,0.0,0.0,0.0,0.0,0.0,-6.4205,-6.7436,-7.1283,-7.2668,-7.1475,-6.6744,-6.2166,0.0,0.0,0.0,0.0,0.0,0.0,0.0,0.0,0.0,0.0,0.0,0.0,0.0,0.0,0.0,0.0,0.0,0.0,0.0,0.0,0.0,0.0,0.0,0.0,0.0,0.0,0.0,0.0,0.0,0.0,0.0,0.0,0.0,0.0,0.0,0.0,0.0,0.0,0.0,0.0,0.0,0.0,0.0,0.0,0.0,0.0,0.0,0.0,0.0,0.0,0.0,0.0,0.0,0.0,0.0,0.0,0.0,0.0,0.0,0.0,0.0,0.0,0.0,0.0,0.0,0.0,0.0,0.0,0.0,0.0,0.0,0.0,0.0,0.0,0.0,0.0,0.0,0.0,0.0,0.0,0.0,0.0,0.0,0.0,0.0,0.0,0.0,0.0,0.0,0.0,0.0,0.0,0.0,0.0,0.0,0.0,0.0,0.0,0.0,0.0,0.0,0.0,0.0,0.0,0.0,0.0,0.0,0.0,-6.5513,-6.9513,-7.2937,-7.3937,-7.2322,-6.8936,-6.3974,0.0,0.0,0.0,0.0,0.0,0.0,0.0,0.0,0.0,0.0,0.0,0.0,0.0,0.0,0.0,0.0,0.0,0.0,0.0,0.0,0.0,0.0,0.0,0.0,0.0,0.0,0.0,0.0,0.0,0.0,0.0,0.0,0.0,0.0,0.0,0.0,0.0,0.0,0.0,0.0,0.0,0.0,0.0,0.0,0.0,0.0,0.0,0.0,0.0,0.0,0.0,0.0,0.0,0.0,0.0,0.0,0.0,0.0,0.0,0.0,0.0,0.0,0.0,0.0,0.0,0.0,0.0,0.0,0.0,0.0,0.0,0.0,0.0,0.0,0.0,0.0,0.0,0.0,0.0,0.0,0.0,0.0,0.0,0.0,0.0,0.0,0.0,0.0,0.0,0.0,0.0,0.0,0.0,0.0,0.0,0.0,0.0,0.0,0.0,0.0,0.0,0.0,0.0,0.0,0.0,0.0,0.0,0.0,-6.6436,-6.8667,-7.2629,-7.4245,-7.3245,-6.9244,-6.4243,0.0,0.0,0.0,0.0,0.0,0.0,0.0,0.0,0.0,0.0,0.0,0.0,0.0,0.0,0.0,0.0,0.0,0.0,0.0,0.0,0.0,0.0,0.0,0.0,0.0,0.0,0.0,0.0,0.0,0.0,0.0,0.0,0.0,0.0,0.0,0.0,0.0,0.0,0.0,0.0,0.0,0.0,0.0,0.0,0.0,0.0,0.0,0.0,-4.8317,0.0,0.0,0.0,0.0,0.0,0.0,0.0,0.0,0.0,0.0,0.0,0.0,0.0,0.0,0.0,0.0,0.0,0.0,0.0,0.0,0.0,0.0,0.0,0.0,0.0,0.0,0.0,0.0,0.0,0.0,0.0,0.0,0.0,0.0,0.0,0.0,0.0,0.0,0.0,0.0,0.0,0.0,0.0,0.0,0.0,0.0,0.0,0.0,0.0,0.0,0.0,0.0,0.0,0.0,0.0,0.0,0.0,0.0,0.0,-6.6898,-6.9013,-7.236,-7.3745,-7.2783,-6.9129,-6.4705,0.0,0.0,0.0,0.0,0.0,0.0,0.0,0.0,0.0,0.0,0.0,0.0,0.0,0.0,0.0,0.0,0.0,0.0,0.0,0.0,0.0,0.0,0.0,0.0,0.0,0.0,0.0,0.0,0.0,0.0,0.0,0.0,0.0,0.0,0.0,0.0,0.0,0.0,0.0,0.0,0.0,0.0,0.0,0.0,0.0,0.0,0.0,0.0,0.0,0.0,0.0,0.0,0.0,0.0,0.0,0.0,0.0,0.0,0.0,0.0,0.0,0.0,0.0,0.0,0.0,0.0,0.0,0.0,0.0,0.0,0.0,0.0,0.0,0.0,0.0,0.0,0.0,0.0,0.0,0.0,0.0,0.0,0.0,0.0,0.0,0.0,0.0,0.0,0.0,0.0,0.0,0.0,0.0,0.0,0.0,0.0,0.0,0.0,0.0,0.0,0.0,0.0,0.0,0.0,0.0,0.0,0.0,-6.2243,-6.6744,-6.9667,-7.2052,-7.286,-7.1975,-6.8821,-6.5063,-6.0742,0.0,0.0,0.0,0.0,0.0,0.0,0.0,0.0,0.0,0.0,0.0,0.0,0.0,0.0,0.0,0.0,0.0,0.0,0.0,0.0,0.0,0.0,0.0,0.0,0.0,0.0,0.0,0.0,0.0,0.0,0.0,0.0,0.0,0.0,0.0,0.0,0.0,0.0,-4.6133,-4.8355,0.0,0.0,0.0,0.0,0.0,0.0,0.0,0.0,-4.8779,0.0,0.0,0.0,0.0,0.0,0.0,0.0,0.0,0.0,0.0,0.0,0.0,0.0,0.0,0.0,0.0,0.0,0.0,0.0,0.0,0.0,0.0,0.0,0.0,0.0,0.0,0.0,0.0,0.0,0.0,0.0,0.0,0.0,0.0,0.0,0.0,0.0,0.0,0.0,0.0,0.0,0.0,0.0,0.0,0.0,0.0,0.0,0.0,0.0,0.0,0.0,0.0,0.0,0.0,0.0,0.0,-5.8781,-6.1435,-6.4974,-6.959,-7.1475,-7.1975,-7.1091,-6.8513,-6.4782,-5.9896,0.0,0.0,0.0,0.0,0.0,0.0,0.0,0.0,0.0,0.0,0.0,0.0,0.0,0.0,0.0,0.0,0.0,0.0,0.0,0.0,0.0,0.0,0.0,0.0,0.0,0.0,0.0,0.0,0.0,0.0,0.0,0.0,0.0,0.0,0.0,0.0,0.0,0.0,0.0,-5.0971,-5.2164,0.0,0.0,0.0,0.0,0.0,0.0,0.0,0.0,-4.7914,0.0,0.0,0.0,0.0,0.0,0.0,0.0,0.0,0.0,0.0,0.0,0.0,0.0,0.0,0.0,0.0,0.0,0.0,0.0,0.0,0.0,0.0,0.0,0.0,0.0,0.0,0.0,0.0,0.0,0.0,0.0,0.0,0.0,0.0,0.0,0.0,0.0,0.0,0.0,0.0,0.0,0.0,0.0,0.0,0.0,0.0,0.0,0.0,0.0,0.0,0.0,0.0,0.0,0.0,0.0,-5.7511,-6.182,-6.5667,-6.8936,-7.0244,-7.0706,-7.0206,-6.609,-6.2243,0.0,0.0,0.0,0.0,0.0,0.0,0.0,0.0,0.0,0.0,0.0,0.0,0.0,0.0,0.0,0.0,0.0,0.0,0.0,0.0,0.0,0.0,0.0,0.0,0.0,0.0,0.0,0.0,0.0,0.0,0.0,0.0,0.0,0.0,0.0,0.0,0.0,0.0,0.0,0.0,-5.151,-5.2549,-5.2664,0.0,0.0,0.0,0.0,0.0,0.0,-4.9548,-4.8702,0.0,0.0,0.0,0.0,0.0,0.0,0.0,0.0,0.0,0.0,0.0,0.0,0.0,0.0,0.0,0.0,0.0,0.0,0.0,0.0,0.0,0.0,0.0,0.0,0.0,0.0,0.0,0.0,0.0,0.0,0.0,0.0,0.0,0.0,0.0,0.0,0.0,0.0,0.0,0.0,0.0,0.0,0.0,0.0,0.0,0.0,0.0,0.0,0.0,0.0,0.0,0.0,0.0,0.0,0.0,-5.5818,-6.1743,-6.5936,-6.8052,-6.8975,-6.9283,-6.8859,-6.4128,-6.0396,0.0,0.0,0.0,0.0,0.0,0.0,0.0,0.0,0.0,0.0,0.0,0.0,0.0,0.0,0.0,0.0,0.0,0.0,0.0,0.0,0.0,0.0,0.0,0.0,0.0,0.0,0.0,0.0,0.0,0.0,0.0,0.0,0.0,0.0,0.0,0.0,0.0,0.0,0.0,0.0,0.0,-5.3241,-5.4087,-5.3933,0.0,0.0,0.0,0.0,-5.2318,-5.1318,0.0,0.0,0.0,0.0,0.0,0.0,0.0,0.0,0.0,0.0,0.0,0.0,0.0,0.0,0.0,0.0,0.0,0.0,0.0,0.0,0.0,0.0,0.0,0.0,0.0,0.0,0.0,0.0,0.0,0.0,0.0,0.0,0.0,0.0,0.0,0.0,0.0,0.0,0.0,0.0,0.0,0.0,0.0,0.0,0.0,0.0,0.0,0.0,0.0,0.0,0.0,0.0,0.0,0.0,0.0,0.0,-5.5665,-5.9435,-6.3332,-6.7051,-6.809,-6.7859,-6.6397,-6.4936,-6.1589,0.0,0.0,0.0,0.0,0.0,0.0,0.0,0.0,0.0,0.0,0.0,0.0,0.0,0.0,0.0,0.0,0.0,0.0,0.0,0.0,0.0,0.0,0.0,0.0,0.0,0.0,0.0,0.0,0.0,0.0,0.0,0.0,0.0,0.0,0.0,0.0,0.0,0.0,0.0,0.0,0.0,-5.5665,-5.3626,-5.4511,-5.4818,0.0,0.0,-5.3241,-5.4049,-5.401,0.0,0.0,0.0,0.0,0.0,0.0,0.0,0.0,0.0,0.0,0.0,0.0,0.0,0.0,0.0,0.0,0.0,0.0,0.0,0.0,0.0,0.0,0.0,0.0,0.0,0.0,0.0,0.0,0.0,0.0,0.0,0.0,0.0,0.0,0.0,0.0,0.0,0.0,0.0,0.0,0.0,0.0,0.0,0.0,0.0,0.0,0.0,0.0,0.0,0.0,0.0,0.0,0.0,0.0,0.0,-5.2433,-5.5742,-6.0473,-6.432,-6.6974,-6.7475,-6.709,-6.5897,-6.2743,-5.9127,0.0,0.0,0.0,0.0,0.0,0.0,0.0,0.0,0.0,0.0,0.0,0.0,0.0,0.0,0.0,0.0,0.0,0.0,0.0,0.0,0.0,0.0,0.0,0.0,0.0,0.0,0.0,0.0,0.0,0.0,0.0,0.0,0.0,0.0,0.0,0.0,0.0,0.0,0.0,0.0,0.0,0.0,-5.528,-5.5972,0.0,0.0,0.0,-5.4934,-5.578,0.0,0.0,0.0,0.0,0.0,0.0,0.0,0.0,0.0,0.0,0.0,0.0,0.0,0.0,0.0,0.0,0.0,0.0,0.0,0.0,0.0,0.0,0.0,0.0,0.0,0.0,0.0,0.0,0.0,0.0,0.0,0.0,0.0,0.0,0.0,0.0,0.0,0.0,0.0,0.0,0.0,0.0,0.0,0.0,0.0,0.0,0.0,0.0,0.0,0.0,0.0,0.0,0.0,0.0,0.0,0.0,0.0,-5.5434,-6.1243,-6.4974,-6.6397,-6.6474,-6.609,-6.5205,-6.1127,0.0,0.0,0.0,0.0,0.0,0.0,0.0,0.0,0.0,0.0,0.0,0.0,0.0,0.0,0.0,0.0,0.0,0.0,0.0,0.0,0.0,0.0,0.0,0.0,0.0,0.0,0.0,-3.486,0.0,0.0,0.0,0.0,0.0,0.0,0.0,0.0,0.0,0.0,0.0,0.0,0.0,0.0,-5.428,-5.6406,-5.7203,-5.7627,0.0,0.0,-5.6896,-5.7538,-5.678,-5.5203,0.0,0.0,0.0,0.0,0.0,0.0,0.0,0.0,0.0,0.0,0.0,0.0,0.0,0.0,0.0,0.0,0.0,0.0,0.0,0.0,0.0,0.0,0.0,0.0,0.0,0.0,0.0,0.0,0.0,0.0,0.0,0.0,0.0,0.0,0.0,0.0,0.0,0.0,0.0,0.0,0.0,0.0,0.0,0.0,0.0,0.0,0.0,0.0,0.0,0.0,0.0,0.0,0.0,0.0,-5.2779,-5.4703,-6.0396,-6.3858,-6.4743,-6.4782,-6.4359,-6.3474,-6.1627,-5.8319,0.0,0.0,0.0,0.0,0.0,0.0,0.0,0.0,0.0,0.0,0.0,0.0,0.0,0.0,0.0,0.0,0.0,0.0,0.0,0.0,0.0,0.0,0.0,0.0,0.0,0.0,0.0,0.0,0.0,0.0,0.0,0.0,0.0,0.0,0.0,0.0,0.0,0.0,0.0,0.0,0.0,-5.4741,-5.5675,-5.7819,-5.9319,0.0,0.0,-5.9281,-5.9319,-5.9896,-5.8742,-5.3895,0.0,0.0,0.0,0.0,0.0,0.0,0.0,0.0,0.0,0.0,0.0,0.0,0.0,0.0,0.0,0.0,0.0,0.0,0.0,0.0,0.0,0.0,0.0,0.0,0.0,0.0,0.0,0.0,0.0,0.0,0.0,0.0,0.0,0.0,0.0,0.0,0.0,0.0,0.0,0.0,0.0,0.0,0.0,0.0,0.0,0.0,0.0,0.0,0.0,0.0,0.0,0.0,0.0,-5.2279,-5.4511,-5.9819,-6.2974,-6.3782,-6.3782,-6.3397,-6.2589,-6.0896,-5.7857,0.0,0.0,0.0,0.0,0.0,0.0,0.0,0.0,0.0,0.0,0.0,0.0,0.0,0.0,0.0,0.0,0.0,0.0,0.0,0.0,0.0,0.0,0.0,0.0,0.0,0.0,0.0,0.0,-3.8007,-3.82,-3.9207,0.0,0.0,0.0,0.0,0.0,0.0,0.0,0.0,0.0,0.0,-5.5357,-5.7703,-5.8896,0.0,0.0,-5.9858,-5.9665,-6.0204,-5.9254,-5.7291,-5.378,-5.1895,0.0,0.0,0.0,0.0,0.0,0.0,0.0,0.0,0.0,0.0,0.0,0.0,0.0,0.0,0.0,0.0,0.0,0.0,0.0,0.0,0.0,0.0,0.0,0.0,0.0,0.0,0.0,0.0,0.0,0.0,0.0,0.0,0.0,0.0,0.0,0.0,0.0,0.0,0.0,0.0,0.0,0.0,0.0,0.0,0.0,0.0,0.0,0.0,0.0,0.0,0.0,0.0,-5.1828,-5.4126,-5.9369,-6.237,-6.2935,-6.2935,-6.2666,-6.2101,-6.0435,-5.7627,0.0,0.0,0.0,0.0,0.0,0.0,0.0,0.0,0.0,0.0,0.0,0.0,0.0,0.0,0.0,0.0,0.0,0.0,0.0,0.0,0.0,0.0,0.0,0.0,0.0,0.0,0.0,0.0,-3.9323,-3.9207,-3.8931,0.0,0.0,0.0,0.0,0.0,0.0,0.0,0.0,0.0,0.0,-5.5972,-5.905,-5.9704,-6.0127,-6.0704,-6.005,-5.9704,-6.0319,-5.8896,-5.678,-5.4049,0.0,0.0,0.0,0.0,0.0,0.0,0.0,0.0,0.0,0.0,0.0,0.0,0.0,0.0,0.0,0.0,0.0,0.0,0.0,0.0,0.0,0.0,0.0,0.0,0.0,0.0,0.0,0.0,0.0,0.0,-4.5594,0.0,0.0,0.0,0.0,0.0,0.0,0.0,0.0,0.0,0.0,0.0,0.0,0.0,0.0,0.0,0.0,0.0,0.0,0.0,0.0,0.0,0.0,-5.1548,-5.328,-5.905,-6.2101,-6.2101,-6.2139,-6.2101,-6.2024,-6.0396,-5.7896,-5.4511,0.0,0.0,0.0,0.0,0.0,0.0,0.0,0.0,0.0,0.0,0.0,0.0,0.0,0.0,0.0,0.0,0.0,0.0,0.0,0.0,0.0,0.0,0.0,0.0,0.0,0.0,-3.9092,-3.9284,-3.8938,0.0,0.0,0.0,0.0,0.0,0.0,0.0,0.0,0.0,0.0,-5.4087,-5.6626,-5.9127,-6.0204,-6.0742,-6.0781,-6.0089,-5.9511,-5.9588,-5.9435,-5.8319,0.0,0.0,0.0,0.0,0.0,0.0,0.0,0.0,0.0,0.0,0.0,0.0,0.0,0.0,0.0,0.0,0.0,0.0,0.0,0.0,0.0,0.0,0.0,0.0,0.0,0.0,0.0,-5.1779,-5.0231,0.0,0.0,0.0,0.0,0.0,0.0,0.0,0.0,0.0,0.0,0.0,-5.578,-5.6857,0.0,0.0,0.0,0.0,0.0,0.0,0.0,0.0,0.0,0.0,0.0,0.0,-5.2049,-5.3395,-5.8511,-6.1243,-6.1243,-6.1204,-6.1254,-6.1243,-6.0127,-5.7357,-5.2895,0.0,0.0,0.0,0.0,0.0,0.0,0.0,0.0,0.0,0.0,0.0,0.0,0.0,0.0,0.0,0.0,0.0,0.0,0.0,0.0,0.0,0.0,0.0,0.0,0.0,-3.7161,0.0,0.0,0.0,0.0,0.0,0.0,0.0,0.0,0.0,0.0,0.0,-5.0471,-5.328,-5.5818,-5.7934,-5.9319,-6.0242,-6.0781,0.0,0.0,0.0,0.0,0.0,0.0,0.0,0.0,0.0,0.0,0.0,0.0,0.0,0.0,-5.4126,-4.9048,-4.724,-4.6547,-4.6778,0.0,0.0,0.0,0.0,0.0,0.0,0.0,0.0,0.0,0.0,0.0,0.0,0.0,0.0,-5.5703,0.0,-5.3741,0.0,0.0,0.0,0.0,0.0,0.0,0.0,0.0,-5.8473,-5.9742,-5.9242,-6.0319,-5.9819,0.0,-5.7396,-5.4818,0.0,0.0,0.0,0.0,0.0,0.0,0.0,0.0,-5.2626,-5.4164,-5.8511,-6.0781,-6.0781,-6.0781,-6.0781,-6.0781,-5.9396,-5.6934,-5.3318,-4.9433,-4.6326,0.0,0.0,0.0,0.0,0.0,0.0,0.0,0.0,0.0,0.0,0.0,0.0,0.0,0.0,0.0,0.0,0.0,0.0,0.0,0.0,0.0,0.0,0.0,-3.7738,0.0,0.0,0.0,0.0,0.0,0.0,0.0,0.0,0.0,-4.7817,-5.024,-5.2972,-5.5472,-5.7511,-5.9011,-5.9819,0.0,0.0,0.0,0.0,0.0,0.0,0.0,-5.778,-5.7511,-5.6319,-5.5088,-5.4203,-5.5934,-5.7088,-5.5895,0.0,0.0,-5.2049,-5.0048,-4.924,-4.9779,-4.9625,-4.9577,-5.0164,-5.051,-5.0741,0.0,0.0,0.0,0.0,0.0,0.0,0.0,0.0,-5.8242,-5.883,0.0,-5.7434,0.0,0.0,0.0,0.0,0.0,-5.6434,0.0,0.0,-6.1769,-6.3358,-6.3281,-6.3308,-6.2935,-6.2216,-6.2062,-6.0292,-5.6907,-5.2125,0.0,0.0,0.0,0.0,0.0,0.0,-5.3231,-5.5742,-5.9061,-6.0781,-6.0781,-6.0781,-6.0781,-6.0666,-5.8369,-5.6637,-5.5626,-5.2433,-4.9173,-4.5864,-4.3239,0.0,0.0,0.0,0.0,0.0,0.0,0.0,0.0,0.0,0.0,0.0,0.0,0.0,0.0,0.0,0.0,0.0,0.0,0.0,0.0,-3.8277,0.0,0.0,0.0,0.0,0.0,0.0,0.0,0.0,0.0,0.0,-4.9971,-5.2587,-5.5511,-5.7934,0.0,0.0,0.0,0.0,-6.0781,-6.0781,-6.0089,-5.9588,-5.955,-5.9511,-5.9242,-5.8511,0.0,0.0,-5.628,-5.7242,-5.7896,-5.6203,-5.7319,-5.805,-5.7099,-5.4741,-5.3203,-5.3164,-5.25,-5.2038,-5.2077,-5.2702,-5.3203,-7.1129,0.0,0.0,0.0,0.0,-6.5359,-6.632,-6.7552,-6.6513,-6.5089,-6.3397,-6.182,0.0,0.0,0.0,0.0,0.0,0.0,-6.0435,-6.1089,-6.3243,-6.4205,-6.4282,-6.4859,-6.4705,-6.3858,-6.3243,-6.182,-5.9665,-5.7049,-5.2933,-4.7509,0.0,0.0,0.0,0.0,-5.528,-5.6714,-5.9396,-6.0781,-6.0781,-6.0781,-6.0512,-5.9858,-5.8588,-5.7242,-5.5742,-5.3049,-5.0548,-4.8355,-4.5278,0.0,0.0,0.0,0.0,0.0,0.0,0.0,0.0,0.0,0.0,0.0,0.0,0.0,0.0,0.0,0.0,0.0,0.0,0.0,-3.7469,-3.8084,-3.9008,0.0,0.0,0.0,0.0,0.0,0.0,0.0,0.0,0.0,-5.4752,-5.6203,-5.7473,0.0,0.0,-6.0281,-5.9935,-6.0396,-6.0781,-6.0781,0.0,0.0,0.0,-5.9896,-5.9627,-6.0012,-6.0281,-6.0165,-5.9435,-5.9742,-5.9935,-5.9396,-5.9242,-5.8896,-5.8011,-5.6357,-5.5049,-5.4934,-5.4318,-5.3972,-5.4511,-5.4818,-5.4972,-7.6169,-7.2745,-7.0398,-6.9283,-6.9129,-6.9321,-7.0167,-7.136,-7.0514,-6.9552,-6.8475,-6.6667,-6.3935,-6.0627,-5.8973,0.0,0.0,0.0,-6.2781,-6.3666,-6.4628,-6.5128,-6.5166,-6.5667,-6.5628,-6.5089,-6.3897,-6.2781,-6.1743,-6.0127,-5.6703,-5.1818,0.0,0.0,-5.1241,-5.4511,-5.6791,-5.8011,-5.9858,-6.0781,-6.0781,-6.0473,-6.005,-5.9511,-5.8396,-5.7126,-5.5742,-5.3587,-5.1625,-4.9971,-4.6971,-4.3816,0.0,0.0,0.0,0.0,0.0,0.0,0.0,0.0,0.0,0.0,0.0,-3.4237,-3.2122,0.0,0.0,0.0,-3.6007,-3.8161,-3.9854,-4.0623,0.0,0.0,0.0,0.0,0.0,0.0,0.0,-5.2366,-5.4934,-5.6857,-5.7857,-5.8742,-5.9281,-5.9281,-6.0165,-6.0589,-6.0089,0.0,-6.0781,-6.0781,-6.0781,-6.0781,-6.0781,-6.0358,-6.0204,-6.0704,-6.0781,-6.0781,-6.0781,-6.0781,-6.0781,-6.0742,-6.0358,-5.9665,-5.8511,-5.7434,-5.6472,-5.5818,-5.5318,-5.5164,-5.5626,-5.5703,-5.5703,-7.99,-7.9438,-7.3937,-7.2014,-7.2514,-7.1745,-7.1822,-7.2399,-7.1591,-7.2476,-7.4322,-7.1206,-6.9283,-6.8167,-6.4282,0.0,-6.4782,-6.4782,-6.5166,-6.5897,-6.5936,-6.5974,-6.5897,-6.5897,-6.5897,-6.5859,-6.4128,-6.3308,-6.3205,-6.1589,-5.9588,-5.733,-5.578,-5.528,-5.5818,-5.6703,-5.7973,-5.9588,-6.0396,-6.0742,-6.0666,-5.9896,-5.9396,-5.9165,-5.7715,-5.6406,-5.5395,-5.3857,-5.2241,-5.0635,-4.824,-4.5385,-4.2162,0.0,0.0,0.0,0.0,0.0,0.0,0.0,0.0,0.0,0.0,0.0,0.0,0.0,0.0,0.0,-3.9238,0.0,-4.3124,-4.4701,0.0,0.0,0.0,-4.7625,-4.8586,-5.1471,-5.4049,-5.5703,0.0,0.0,-5.9588,0.0,-6.0781,-6.0781,-6.0781,-6.0781,-6.0781,-6.0781,-6.0781,-6.0781,-6.0781,-6.0781,-6.0781,-6.0742,-6.0742,-6.0781,-6.0781,-6.0781,-6.0781,-6.0781,-6.0781,-6.0781,-6.0742,-6.0204,-5.8588,-5.8165,-5.7665,-5.6011,-5.5665,-5.5665,-5.5703,-5.5703,-5.5703,-8.0823,-8.0631,-7.8554,-7.7053,-7.6053,-7.5861,-7.5515,-7.5014,-7.4168,-7.3783,-7.3654,-7.1552,-6.9821,-6.8321,-6.6667,-6.6141,-6.6513,-6.6513,-6.6282,-6.5936,-6.6513,-6.6474,-6.5897,-6.5897,-6.5897,-6.5782,-6.4128,-6.3308,-6.3231,-6.1627,-6.0473,-5.9896,-5.9511,-5.8434,-5.6808,-5.8165,-5.9435,-6.0473,-6.0704,-6.0473,-5.9819,-5.9627,-5.855,-5.6665,-5.6214,-5.5011,-5.2895,-5.1856,-5.0818,-4.974,-4.7932,-4.5923,-4.3778,-4.0508,0.0,0.0,0.0,0.0,0.0,0.0,0.0,0.0,0.0,-3.8777,-3.4552,0.0,-4.0546,0.0,-4.1354,-4.3162,-4.4855,-4.5364,0.0,0.0,-4.9933,-5.0894,-5.3587,-5.4626,-5.578,-5.7473,-5.8742,-5.9742,-6.0396,-6.0666,-6.0781,-6.0781,-6.0781,-6.0781,-6.0781,-6.0781,-6.0781,-6.0781,-6.0781,-6.0781,-6.0781,-6.0781,-6.0781,-6.0781,-6.0781,-6.0781,-6.0781,-6.0781,-6.0781,-6.0742,-6.0242,-5.9473,-5.8473,-5.778,-5.6973,-5.5972,-5.5703,-5.5703,-5.5703,-5.5703,-5.5703,-8.1093,-8.1054,-8.0592,-7.94,-7.7784,-7.7438,-7.6784,-7.5976,-7.5476,-7.5014,-7.4514,-7.2822,-7.1129,-6.9513,-6.8629,-6.8244,-6.8244,-6.7859,-6.7244,-6.6474,-6.6859,-6.6667,-6.5897,-6.5897,-6.5897,-6.582,-6.4128,-6.3308,-6.3205,-6.1627,-6.0781,-6.0781,-6.0781,-6.0089,-5.8781,-5.9627,-6.0319,-6.0781,-6.0781,-6.0396,-5.9511,-5.9165,-5.7742,-5.528,-5.5164,-5.378,-5.0894,-5.0702,-5.0125,-4.8894,-4.7586,-4.6278,-4.4893,-4.2047,-3.9662,0.0,0.0,0.0,0.0,0.0,0.0,0.0,0.0,0.0,0.0,0.0,-4.3047,-4.3316,-4.4893,-4.6586,-4.824,-4.9086,-5.051,-5.2818,-5.3318,-5.4406,-5.6626,-5.7165,-5.7896,-5.9242,-5.9819,-6.0242,-6.0742,-6.0781,-6.0781,-6.0781,-6.0781,-6.0781,-6.0781,-6.0781,-6.0781,-6.0781,-6.0781,-6.0781,-6.0781,-6.0781,-6.0781,-6.0781,-6.0781,-6.0781,-6.0781,-6.0781,-6.0666,-6.0281,-5.9819,-5.9088,-5.7973,-5.7368,-5.6714,-5.5972,-5.5703,-5.5703,-5.5703,-5.5703,-5.5703,-8.1093,-8.1093,-8.1093,-8.0092,-7.8438,-7.7746,-7.6899,-7.5976,-7.5976,-7.5861,-7.5592,-7.413,-7.2552,-7.086,-7.0052,-6.9706,-6.9629,-6.8808,-6.7936,-6.7128,-6.709,-6.6667,-6.5897,-6.5897,-6.5897,-6.582,-6.4128,-6.3308,-6.3231,-6.1627,-6.0781,-6.0781,-6.0781,-6.0781,-6.0781,-6.0781,-6.0781,-6.0781,-6.0781,-6.0319,-5.9358,-5.8665,-5.7049,-5.4511,-5.4241,-5.2626,-4.9433,-4.9971,-4.9625,-4.8048,-4.7385,-4.6663,-4.5787,-4.3431,-4.1354,0.0,-3.8007,0.0,0.0,0.0,0.0,0.0,0.0,0.0,0.0,-4.3893,-4.574,-4.7278,-4.8933,-5.051,-5.1923,-5.3626,-5.4703,-5.4857,-5.6329,-5.7627,-5.8396,-5.9165,-5.9935,-6.0704,-6.0781,-6.0781,-6.0781,-6.0781,-6.0781,-6.0781,-6.0781,-6.0781,-6.0781,-6.0781,-6.0781,-6.0781,-6.0781,-6.0781,-6.0781,-6.0781,-6.0781,-6.0781,-6.0781,-6.0742,-6.0589,-6.0589,-6.0358,-5.955,-5.9204,-5.8627,-5.7253,-5.6907,-5.656,-5.5818,-5.5703,-5.5703,-5.5703,-5.5703,-5.5703,-8.1093,-8.1093,-8.1093,-8.0092,-7.8477,-7.8323,-7.74,-7.5976,-7.5976,-7.5245,-7.3976,-7.3654,-7.2552,-7.086,-7.0052,-6.9706,-6.9667,-6.8783,-6.7936,-6.709,-6.709,-6.6667,-6.5897,-6.5897,-6.5897,-6.5782,-6.4128,-6.3308,-6.3269,-6.1589,-6.0781,-6.0781,-6.0781,-6.0781,-6.0781,0.0,0.0,0.0,-6.0781,-6.005,-5.8588,-5.8396,-5.6742,-5.3587,-5.2769,0.0,-4.8548,-4.8509,-4.8125,-4.7201,-4.7615,0.0,0.0,0.0,0.0,0.0,0.0,0.0,0.0,0.0,0.0,0.0,-4.5393,-4.4893,-4.3162,-4.6894,-4.9625,-4.9971,-5.151,-5.2587,-5.2933,-5.4472,-5.5742,-5.6483,-5.8011,-5.9088,-5.9281,-6.005,-6.0627,-6.0742,-6.0781,-6.0781,-6.0781,-6.0781,-6.0781,-6.0781,-6.0781,-6.0781,-6.0781,-6.0781,-6.0781,-6.0781,-6.0781,-6.0781,-6.0781,-6.0781,-6.0781,-6.0781,-6.0781,-6.0512,-5.9935,-5.9742,-5.9473,-5.8665,-5.7973,-5.7434,-5.7022,-5.6445,-5.5934,-5.5703,-5.5703,-5.5703,-5.5703,-5.5703,-5.5703,-8.1093,0.0,-8.1093,-8.0092,0.0,-7.8492,-7.7553,-7.5976,-7.5976,-7.5053,-7.3462,-7.3053,-7.2129,-7.086,-7.0475,-6.9821,-6.9052,-6.8577,-6.7705,-6.6513,-6.6513,-6.6282,-6.5897,-6.5897,-6.5667,-6.5205,-6.3935,-6.3089,-6.2666,-6.1396,-6.0781,-6.0781,-6.0781,-6.0781,-6.0781,-6.0781,-6.0781,-6.0781,-6.0781,-5.9973,-5.8396,-5.8269,-5.6665,-5.3356,0.0,0.0,0.0,0.0,0.0,0.0,0.0,0.0,0.0,0.0,0.0,-4.4932,-4.4124,-4.3816,-4.4239,-4.4662,-4.5462,-4.674,-4.8009,-4.824,-4.6932,-4.9586,-5.1664,-5.251,-5.3356,-5.401,-5.4434,-5.5588,-5.6676,-5.7588,-5.8742,-5.9627,-6.0089,-6.0512,-6.0781,-6.0781,-6.0781,-6.0781,-6.0781,-6.0781,-6.0781,-6.0781,-6.0781,-6.0781,-6.0781,-6.0781,-6.0781,-6.0781,-6.0781,-6.0781,-6.0781,-6.0781,-6.0781,-6.0742,-6.0435,-6.0012,-5.9588,-5.9165,-5.8627,-5.7819,-5.728,-5.6907,-5.6406,-5.5972,-5.5703,-5.5703,-5.5703,-5.5703,-5.5703,-5.5703,-5.5549,-8.1093,-8.1093,-8.1093,-8.0092,-7.8492,-7.8492,-7.7515,-7.5976,0.0,0.0,0.0,-7.2591,-7.1706,-7.0898,-7.0744,-6.9937,-6.8629,-6.8321,-6.7436,-6.6128,-6.5974,-6.5897,-6.5897,-6.5897,-6.5436,-6.4589,-6.3743,-6.2858,-6.2101,-6.1216,-6.0781,-6.0781,-6.0781,-6.0781,-6.0781,-6.0781,-6.0781,-6.0781,-6.0781,-6.0012,-5.8357,-5.8269,-5.6742,-5.351,-5.328,-5.2087,-4.974,-4.9625,-4.924,-4.8394,-4.7846,-4.7817,-4.8279,-4.7702,-4.7586,-4.8048,-4.8077,-4.8163,-4.8317,-4.8355,-4.8471,-4.874,-5.0356,-5.1289,-5.1164,-5.1895,-5.301,-5.4587,-5.4703,-5.4972,-5.5626,-5.6626,-5.7511,-5.8242,-5.9165,-6.0012,-6.0666,-6.0781,-6.0781,-6.0781,-6.0781,-6.0781,-6.0781,-6.0781,-6.0781,-6.0781,-6.0781,-6.0781,-6.0781,-6.0781,-6.0781,-6.0781,-6.0781,-6.0781,-6.0781,-6.0589,-6.0589,-6.0473,-5.9819,-5.9242,-5.9011,-5.8511,-5.778,-5.6896,-5.6791,-5.6483,-5.5857,-5.5703,-5.5703,-5.5703,-5.5588,-5.5472,-5.5472,-5.5357,-5.5049,-8.1093,-8.1093,-8.1093,-8.0092,-7.8492,-7.8492,-7.7553,-7.5976,-7.5207,-7.4361,-7.3476,-7.2591,-7.1706,-7.086,-7.0206,-6.9744,-6.9436,-6.7975,-6.7128,0.0,-6.6205,-6.5897,-6.5897,-6.5897,-6.5436,-6.4589,-6.3705,-6.2897,-6.2101,-6.1204,-6.0781,-6.0781,-6.0781,-6.0781,-6.0781,-6.0781,-6.0781,-6.0781,-6.0781,-5.9973,-5.8357,-5.8269,-5.7049,-5.4472,-5.3587,-5.2356,-5.0587,-5.0519,-5.0125,-4.9279,-4.9817,-4.9894,-4.924,-4.9086,-4.8779,-4.8163,-4.8115,-4.8432,-4.9163,-4.9202,-4.9856,-5.1308,-5.2972,-5.3664,-5.2972,-5.3664,-5.4511,-5.5434,-5.5511,-5.5549,-5.578,-5.7126,-5.805,-5.8357,-5.9665,-6.0666,-6.0742,-6.0704,-6.0666,-6.0666,-6.0781,-6.0742,-6.0627,-6.0704,-6.0704,-6.0742,-6.0512,-6.0704,-6.0627,-6.0781,-6.0781,-6.0781,-6.0781,-6.0781,-6.055,-6.0127,-5.9742,-5.9704,-5.9011,-5.8242,-5.7665,-5.7357,-5.6907,-5.606,-5.5994,-5.5889,-5.5724,-5.5703,-5.563,-5.5602,-5.5168,-5.4685,-5.4636,-5.4164,-5.3818,-8.1093,-8.1093,-8.1093,-8.0092,-7.8438,-7.7553,-7.6707,-7.5899,-7.463,-7.386,-7.3399,-7.2091,-7.1014,-7.0244,-6.986,-6.9167,-6.8244,-6.7475,-6.6859,-6.6436,-6.6051,-6.5897,-6.5897,-6.5897,-6.5205,-6.3935,-6.3512,-6.2666,-6.1447,-6.0973,-6.0781,-6.0781,-6.0781,-6.0781,-6.0781,-6.0781,-6.0781,-6.0781,-6.0781,-5.9973,-5.8346,-5.8269,-5.7319,-5.5203,-5.4318,-5.3549,-5.2779,-5.1856,-5.1164,-5.0779,-5.0279,-5.0019,-5.0096,-4.9663,-4.9433,-4.951,-4.951,-4.9673,-5.0087,-5.051,-5.1279,-5.251,-5.378,-5.4357,-5.3933,-5.4664,-5.528,-5.5665,-5.5703,-5.5703,-5.5703,-5.6819,-5.778,-5.828,-5.9011,-5.9627,-5.9973,-5.9665,-5.9435,-5.9473,-5.9819,-5.9935,-5.9511,-5.9819,-5.9896,-5.9588,-5.9435,-5.9473,-5.9473,-5.9473,-5.9627,-5.9973,-6.0089,-5.9858,-5.955,-5.9165,-5.8858,-5.8858,-5.8165,-5.7511,-5.6983,-5.6714,-5.6175,-5.584,-5.574,-5.5798,-5.5807,-5.5487,-5.5302,-5.5091,-5.4494,-5.3946,-5.3715,-5.3126,-5.2692,-8.1093,-8.1093,-8.09,-7.9823,-7.813,-7.663,-7.5899,-7.5553,-7.413,-7.3399,-7.3014,-7.1552,-7.0437,-6.9706,-6.9513,-6.8552,-6.7205,-6.6898,-6.6474,-6.5936,-6.5897,-6.5897,-6.5897,-6.5897,-6.4974,-6.3474,-6.3308,-6.2435,-6.0973,-6.0781,-6.0781,-6.0781,-6.0781,-6.0781,-6.0781,-6.0781,-6.0781,-6.0781,-6.0781,-5.9973,-5.8385,-5.8269,-5.7473,-5.5818,-5.5088,-5.4664,-5.4434,-5.3203,-5.2385,-5.2115,-5.0779,-5.0279,-5.0904,-5.0164,-5.001,-5.0635,-5.0856,-5.1087,-5.1318,-5.2049,-5.2779,-5.3433,-5.428,-5.478,-5.4818,-5.5318,-5.5703,-5.5703,-5.5703,-5.5703,-5.5818,-5.6522,-5.7291,-5.7934,-5.8204,-5.8588,-5.905,-5.8665,-5.8269,-5.8357,-5.8858,-5.8973,-5.8588,-5.8819,-5.9011,-5.8511,-5.8269,-5.8269,-5.8269,-5.8269,-5.855,-5.8781,-5.9088,-5.905,-5.8396,-5.8127,-5.8011,-5.7973,-5.728,-5.678,-5.656,-5.6088,-5.5794,-5.5768,-5.5834,-5.5915,-5.5908,-5.5385,-5.4983,-5.4781,-5.3931,-5.305,-5.2664,-5.2127,-5.1664,-8.1093,-8.0977,-8.0246,-7.8938,-7.7361,-7.6399,-7.5553,-7.4784,-7.386,-7.3053,-7.2283,-7.1321,-7.0437,-6.9667,-6.8898,-6.8013,-6.7051,-6.632,-6.5974,-6.5897,-6.5897,-6.5897,-6.5897,-6.5897,-6.4974,-6.3474,-6.3269,-6.2397,-6.0858,-6.0781,-6.0781,-6.0781,-6.0781,-6.0781,-6.0781,-6.0781,-6.0781,-6.0781,-6.0781,-5.9973,-5.8434,-5.8269,-5.7473,-5.5742,-5.5626,-5.5241,-5.4587,-5.4357,-5.3895,-5.3126,-5.2154,-5.1692,-5.1692,-5.101,-5.0635,-5.0741,-5.1395,-5.2125,-5.2933,-5.378,-5.4241,-5.4434,-5.5088,-5.5549,-5.5549,-5.5626,-5.5703,-5.5703,-5.5703,-5.5703,-5.5742,-5.6483,-5.6983,-5.7214,-5.778,-5.8308,-5.8357,-5.8357,-5.8269,-5.8269,-5.828,-5.8357,-5.8165,-5.8204,-5.828,-5.805,-5.7973,-5.7973,-5.8011,-5.8011,-5.7819,-5.755,-5.7857,-5.828,-5.8088,-5.7588,-5.7203,-5.706,-5.6445,-5.6011,-5.5895,-5.5889,-5.5738,-5.5843,-5.5893,-5.5991,-5.5856,-5.5525,-5.4868,-5.4352,-5.3386,-5.2141,-5.14,-5.1048,-5.0942,-8.0785,-8.0323,-7.9939,-7.8823,-7.7284,-7.6361,-7.5515,-7.4668,-7.386,-7.3014,-7.2129,-7.1283,-7.0167,-6.8936,-6.8552,-6.7667,-6.6397,-6.6051,-6.5897,-6.5897,-6.5897,-6.5897,-6.5859,-6.532,-6.4474,-6.332,-6.282,-6.1973,-6.0973,-6.0781,-6.0781,-6.0781,-6.0781,-6.0781,-6.0781,-6.0781,-6.0781,-6.0781,-6.0781,-6.0012,-5.8511,-5.8269,-5.7473,-5.5895,-5.5703,-5.556,-5.5203,-5.478,-5.4318,-5.3933,-5.3126,-5.2664,-5.2654,-5.2356,-5.2164,-5.2202,-5.2472,-5.3049,-5.3933,-5.4318,-5.4703,-5.5164,-5.5511,-5.5703,-5.5703,-5.5703,-5.5703,-5.5703,-5.5703,-5.5703,-5.5752,-5.6011,-5.6445,-5.6868,-5.6896,-5.6973,-5.7473,-5.7088,-5.678,-5.678,-5.7242,-5.7319,-5.6896,-5.6742,-5.6742,-5.6742,-5.678,-5.6857,-5.6819,-5.678,-5.6626,-5.6357,-5.6549,-5.6703,-5.678,-5.6511,-5.6291,-5.6214,-5.5983,-5.5703,-5.5707,-5.5789,-5.5861,-5.5877,-5.5981,-5.5901,-5.5545,-5.4898,-5.4253,-5.3634,-5.2679,-5.1458,-5.1092,-5.0992,-5.0911,-8.0592,-7.9785,-7.9323,-7.8284,-7.6899,-7.6284,-7.5361,-7.4361,-7.3745,-7.2899,-7.1822,-7.1168,-6.9975,-6.8552,-6.8398,-6.7513,-6.6013,-6.5897,-6.5897,-6.5897,-6.5897,-6.5897,-6.5782,-6.5013,-6.4128,-6.3281,-6.2512,-6.1678,-6.0896,-6.0781,-6.0781,-6.0781,-6.0781,-6.0781,-6.0781,-6.0781,-6.0781,-6.0781,-6.0781,-5.9973,-5.855,-5.8269,-5.7473,-5.5895,-5.5703,-5.5703,-5.5703,-5.5164,-5.4818,-5.4818,-5.401,-5.3549,-5.3549,-5.3356,-5.3318,-5.3549,-5.3549,-5.3933,-5.4741,-5.4818,-5.5088,-5.5588,-5.5703,-5.5703,-5.5703,-5.5703,-5.5703,-5.5703,-5.5703,-5.5703,-5.5703,-5.5703,-5.6011,-5.6522,-5.6011,-5.5983,-5.6522,-5.6049,-5.5742,-5.5742,-5.6319,-5.6445,-5.5857,-5.578,-5.5818,-5.5818,-5.578,-5.5703,-5.5703,-5.578,-5.5742,-5.5703,-5.5703,-5.5742,-5.5703,-5.578,-5.5686,-5.574,-5.576,-5.5798,-5.5817,-5.5932,-5.6019,-5.6086,-5.6141,-5.5848,-5.5318,-5.4564,-5.3398,-5.2461,-5.1684,-5.1191,-5.1144,-5.1103,-5.0996,-8.0592,-7.9631,-7.8092,-7.6938,-7.6053,-7.6015,-7.5053,-7.363,-7.3514,-7.2552,-7.1129,-7.0937,-6.9975,-6.8423,-6.8398,-6.7475,-6.6051,-6.5897,-6.5897,-6.5897,-6.5897,-6.5897,-6.582,-6.5013,-6.4128,-6.3281,-6.2358,-6.1589,-6.0819,-6.0781,-6.0781,-6.0781,-6.0781,-6.0781,-6.0781,-6.0781,-6.0781,-6.0781,-6.0781,-5.9973,-5.855,-5.8269,-5.7473,-5.5895,-5.5703,-5.5703,-5.5703,-5.5665,-5.5626,-5.5626,-5.4857,-5.4434,-5.4357,-5.3703,-5.3664,-5.4318,-5.4434,-5.478,-5.5472,-5.5588,-5.5626,-5.5703,-5.5703,-5.5703,-5.5703,-5.5703,-5.5703,-5.5703,-5.5703,-5.5703,-5.5703,-5.5703,-5.5703,-5.5818,-5.578,-5.5752,-5.578,-5.5818,-5.5703,-5.5703,-5.578,-5.5868,-5.5703,-5.5703,-5.5703,-5.5703,-5.5703,-5.5703,-5.5703,-5.5703,-5.5703,-5.5703,-5.5703,-5.5703,-5.5703,-5.5728,-5.5789,-5.5834,-5.5874,-5.5916,-5.6058,-5.6197,-5.6256,-5.6106,-5.572,-5.5326,-5.4997,-5.4101,-5.2734,-5.1875,-5.1562,-5.1243,-5.1174,-5.1053,-5.0959,-8.0246,-7.8823,-7.7169,-7.6284,-7.6015,-7.5976,-7.5053,-7.3538,-7.35,-7.2514,-7.1091,-7.0898,-6.9975,-6.8398,-6.8398,-6.7475,-6.5974,-6.5897,-6.5897,-6.5897,-6.5897,-6.5897,-6.5743,-6.4474,-6.3628,-6.3166,-6.1935,-6.1089,-6.0858,-6.0781,-6.0781,-6.0781,-6.0781,-6.0781,-6.0781,-6.0781,-6.0781,-6.0781,-6.0781,-5.9973,-5.8473,-5.8269,-5.7473,-5.5818,-5.5703,-5.5703,-5.5703,-5.5703,-5.5703,-5.5703,-5.5395,-5.528,-5.5241,-5.4972,-5.4934,-5.5203,-5.5241,-5.5395,-5.5665,-5.5703,-5.5703,-5.5703,-5.5703,-5.5703,-5.5703,-5.5703,-5.5703,-5.5703,-5.5703,-5.5703,-5.5703,-5.5703,-5.5703,-5.5703,-5.5703,-5.5703,-5.5703,-5.5703,-5.5703,-5.5703,-5.5703,-5.5703,-5.5703,-5.5703,-5.5703,-5.5703,-5.5703,-5.5703,-5.5703,-5.5703,-5.5703,-5.5703,-5.5703,-5.5703,-5.5703,-5.5798,-5.5849,-5.5924,-5.5962,-5.6058,-5.6158,-5.6207,-5.6254,-5.5527,-5.5086,-5.4492,-5.4023,-5.3047,-5.1797,-5.1641,-5.1328,-5.127,-5.121,-5.114,-5.1083,-7.9554,-7.8323,-7.6707,-7.5976,-7.5976,-7.5668,-7.4784,-7.3514,-7.3206,-7.2245,-7.1052,-7.0898,-6.9975,-6.859,-6.8398,-6.7513,-6.6013,-6.5897,-6.5897,-6.5897,-6.5897,-6.5743,-6.5282,-6.3974,-6.3166,-6.2743,-6.1512,-6.0781,-6.0781,-6.0781,-6.0781,-6.0781,-6.0781,-6.0781,-6.0781,-6.0781,-6.0781,-6.0781,-6.0781,-5.9973,-5.8511,-5.8269,-5.7473,-5.5972,-5.5703,-5.5703,-5.5703,-5.5703,-5.5703,-5.5703,-5.5703,-5.5703,-5.5703,-5.5703,-5.5703,-5.5703,-5.5703,-5.5703,-5.5703,-5.5703,-5.5703,-5.5703,-5.5703,-5.5703,-5.5703,-5.5703,-5.5703,-5.5703,-5.5703,-5.5703,-5.5703,-5.5703,-5.5703,-5.5703,-5.5703,-5.5703,-5.5703,-5.5703,-5.5703,-5.5703,-5.5703,-5.5703,-5.5703,-5.5703,-5.5703,-5.5703,-5.5703,-5.5703,-5.5703,-5.5703,-5.5703,-5.5703,-5.5703,-5.5703,-5.5591,-5.5518,-5.5754,-5.5843,-5.5892,-5.6033,-5.5937,-5.6015,-5.5742,-5.5,-5.4297,-5.3633,-5.2812,-5.1875,-5.1523,-5.1406,-5.1367,-5.1324,-5.1318,-5.1274,-5.1146,-7.8515,-7.8207,-7.6669,-7.5938,-7.5784,-7.513,-7.4284,-7.336,-7.2591,-7.1783,-7.0937,-7.0898,-6.9975,-6.8629,-6.8398,-6.7475,-6.6128,-6.5897,-6.5897,-6.5897,-6.5897,-6.5436,-6.4666,-6.3743,-6.282,-6.2089,-6.1204,-6.0819,-6.0781,-6.0781,-6.0781,-6.0781,-6.0781,-6.0781,-6.0781,-6.0781,-6.0781,-6.0781,-6.0781,-6.0012,-5.855,-5.8319,-5.7511,-5.6011,-5.5742,-5.5703,-5.5703,-5.5703,-5.5703,-5.5703,-5.5703,-5.5703,-5.5703,-5.5703,-5.5703,-5.5703,-5.5703,-5.5703,-5.5703,-5.5703,-5.5703,-5.5703,-5.5703,-5.5703,-5.5703,-5.5703,-5.5703,-5.5703,-5.5703,-5.5703,-5.5703,-5.5703,-5.5703,-5.5703,-5.5703,-5.5703,-5.5703,-5.5703,-5.5703,-5.5703,-5.5703,-5.5703,-5.5703,-5.5703,-5.5703,-5.5703,-5.5703,-5.5696,-5.5728,-5.5738,-5.5696,-5.5696,-5.5728,-5.572,-5.5461,-5.5237,-5.5528,-5.5725,-5.5766,-5.5781,-5.5312,-5.5195,-5.4805,-5.4141,-5.3242,-5.2578,-5.2226,-5.1445,-5.1445,-5.1367,-5.1367,-5.1367,-5.131,-5.121,-5.1082,-7.8169,-7.7553,-7.6476,-7.563,-7.513,-7.4822,-7.3937,-7.2668,-7.2283,-7.1706,-7.1014,-7.0898,-6.9975,-6.8706,-6.8398,-6.7475,-6.5974,-6.5897,-6.5897,-6.5897,-6.5897,-6.5436,-6.4551,-6.3705,-6.2551,-6.1358,-6.0935,-6.0781,-6.0781,-6.0781,-6.0781,-6.0781,-6.0781,-6.0781,-6.0781,-6.0781,-6.0781,-6.0781,-6.0781,-6.0242,-5.9165,-5.8588,-5.7742,-5.6676,-5.6011,-5.5703,-5.5703,-5.5703,-5.5703,-5.5703,-5.5703,-5.5703,-5.5703,-5.5703,-5.5703,-5.5703,-5.5703,-5.5703,-5.5703,-5.5703,-5.5703,-5.5703,-5.5703,-5.5703,-5.5703,-5.5703,-5.5703,-5.5703,-5.5703,-5.5703,-5.5703,-5.5703,-5.5703,-5.5703,-5.5703,-5.5703,-5.5703,-5.5703,-5.5703,-5.5703,-5.5703,-5.5703,-5.5703,-5.5703,-5.5714,-5.5686,-5.5686,-5.5728,-5.5816,-5.5852,-5.5852,-5.5852,-5.5805,-5.5557,-5.5104,-5.4679,-5.463,-5.4756,-5.4831,-5.4955,-5.457,-5.4336,-5.3906,-5.3281,-5.2344,-5.1782,-5.1428,-5.1274,-5.132,-5.1367,-5.1406,-5.1328,-5.1211,-5.1135,-5.1035,-7.8015,-7.7169,-7.6015,-7.5207,-7.463,-7.4091,-7.3168,-7.2206,-7.186,-7.1398,-7.0975,-7.0898,-6.9975,-6.8667,-6.8398,-6.7475,-6.6013,-6.5897,-6.5897,-6.5897,-6.5897,-6.5282,-6.4089,-6.2897,-6.1897,-6.1012,-6.0781,-6.0781,-6.0781,-6.0781,-6.0781,-6.0781,-6.0781,-6.0781,-6.0781,-6.0781,-6.0781,-6.0781,-6.0781,-6.0396,-5.9588,-5.9011,-5.8204,-5.7099,-5.6483,-5.6011,-5.5742,-5.5703,-5.5703,-5.5703,-5.5703,-5.5703,-5.5703,-5.5703,-5.5703,-5.5703,-5.5703,-5.5703,-5.5703,-5.5703,-5.5703,-5.5703,-5.5703,-5.5703,-5.5703,-5.5703,-5.5703,-5.5703,-5.5703,-5.5703,-5.5703,-5.5703,-5.5703,-5.5703,-5.5703,-5.5703,-5.5703,-5.5703,-5.5703,-5.5703,-5.5703,-5.5703,-5.5703,-5.5703,-5.5717,-5.574,-5.5779,-5.5834,-5.5971,-5.6029,-5.6008,-5.5963,-5.5891,-5.543,-5.4688,-5.4179,-5.3765,-5.3683,-5.3628,-5.3682,-5.3555,-5.3516,-5.3242,-5.2461,-5.1601,-5.1533,-5.1217,-5.1215,-5.125,-5.1328,-5.1406,-5.1367,-5.1307,-5.1268,-5.1154,-7.7977,-7.7053,-7.5476,-7.4745,-7.4399,-7.3091,-7.236,-7.1937,-7.1321,-7.0975,-7.0898,-7.0898,-6.9975,-6.8667,-6.8398,-6.7475,-6.6128,-6.5897,-6.5897,-6.5897,-6.5782,-6.5051,-6.3435,-6.1858,-6.1012,-6.0819,-6.0781,-6.0781,-6.0781,-6.0781,-6.0781,-6.0781,-6.0781,-6.0781,-6.0781,-6.0781,-6.0781,-6.0781,-6.0781,-6.0396,-5.9704,-5.9473,-5.8742,-5.7253,-5.6983,-5.6522,-5.5829,-5.5703,-5.5703,-5.5703,-5.5703,-5.5703,-5.5703,-5.5703,-5.5703,-5.5703,-5.5703,-5.5703,-5.5703,-5.5703,-5.5696,-5.5728,-5.5738,-5.5707,-5.5778,-5.5778,-5.5748,-5.5738,-5.5735,-5.5686,-5.5707,-5.5728,-5.5728,-5.5735,-5.5735,-5.5714,-5.5703,-5.5703,-5.5703,-5.5703,-5.5703,-5.5703,-5.5703,-5.5703,-5.575,-5.5831,-5.5891,-5.5986,-5.6113,-5.6186,-5.6122,-5.5986,-5.5892,-5.5058,-5.4246,-5.3387,-5.2943,-5.2461,-5.2469,-5.2575,-5.2618,-5.2607,-5.2529,-5.1763,-5.1321,-5.1238,-5.1196,-5.1191,-5.126,-5.1367,-5.1406,-5.1406,-5.1366,-5.132,-5.1023,-7.763,-7.6322,-7.5861,-7.4938,-7.386,-7.3322,-7.236,-7.1283,-7.1014,-7.0898,-7.0898,-7.0898,-6.9975,-6.8513,-6.8398,-6.7513,-6.6205,-6.5897,-6.5897,-6.5897,-6.5897,-6.4936,-6.3243,-6.1589,-6.0781,-6.0781,-6.0781,-6.0781,-6.0781,-6.0781,-6.0781,-6.0781,-6.0781,-6.0781,-6.0781,-6.0781,-6.0781,-6.0781,-6.0781,-6.0704,-6.0396,-5.9819,-5.9011,-5.805,-5.7368,-5.6588,-5.5818,-5.5703,-5.5703,-5.5703,-5.5703,-5.5703,-5.5703,-5.5703,-5.5703,-5.5703,-5.5703,-5.5703,-5.5703,-5.5703,-5.5758,-5.5852,-5.5814,-5.5907,-5.605,-5.5924,-5.5849,-5.5843,-5.5769,-5.573,-5.5825,-5.5831,-5.5831,-5.5852,-5.5789,-5.5707,-5.5714,-5.5703,-5.5703,-5.5703,-5.5703,-5.5703,-5.5703,-5.5707,-5.576,-5.5874,-5.5939,-5.6032,-5.6264,-5.6354,-5.6285,-5.5924,-5.5572,-5.4653,-5.3733,-5.2801,-5.205,-5.1384,-5.1315,-5.1546,-5.1626,-5.1691,-5.1545,-5.1172,-5.1239,-5.1203,-5.1161,-5.1154,-5.126,-5.1366,-5.1406,-5.1367,-5.1289,-5.1213,-5.0761,-7.7515,-7.5976,-7.5592,-7.4707,-7.3514,-7.3129,-7.2168,-7.1091,-7.0898,-7.0898,-7.0898,-7.0898,-6.9975,-6.8513,-6.8398,-6.7475,-6.6051,-6.5897,-6.5897,-6.5743,-6.5089,-6.4205,-6.3051,-6.1589,-6.0781,-6.0781,-6.0781,-6.0781,-6.0781,-6.0781,-6.0781,-6.0781,-6.0781,-6.0781,-6.0781,-6.0781,-6.0781,-6.0781,-6.0781,-6.0781,-6.0742,-6.0319,-5.9627,-5.8819,-5.7973,-5.7011,-5.5934,-5.5703,-5.5703,-5.5703,-5.5703,-5.5703,-5.5703,-5.5703,-5.5703,-5.5703,-5.5703,-5.5703,-5.5703,-5.5714,-5.576,-5.5866,-5.5924,-5.6029,-5.6135,-5.6104,-5.6012,-5.6029,-5.5932,-5.5947,-5.5976,-5.6012,-5.6005,-5.6037,-5.5947,-5.5864,-5.5707,-5.5703,-5.5703,-5.5703,-5.5703,-5.5714,-5.5714,-5.5768,-5.587,-5.6008,-5.6108,-5.6234,-5.6409,-5.6445,-5.6367,-5.5989,-5.5351,-5.4466,-5.352,-5.2568,-5.1751,-5.1028,-5.0956,-5.1035,-5.1133,-5.121,-5.1199,-5.12,-5.1183,-5.1172,-5.1147,-5.1174,-5.126,-5.1328,-5.1367,-5.1367,-5.125,-5.1185,-5.0715,-7.7515,-7.5938,-7.5168,-7.4322,-7.3476,-7.2668,-7.1898,-7.1014,-7.0898,-7.0898,-7.0898,-7.0898,-6.9937,-6.8398,-6.8359,-6.7475,-6.5897,-6.5897,-6.5897,-6.5436,-6.4551,-6.3551,-6.3166,-6.1589,-6.0858,-6.0781,-6.0781,-6.0781,-6.0781,-6.0781,-6.0781,-6.0781,-6.0781,-6.0781,-6.0781,-6.0781,-6.0781,-6.0781,-6.0781,-6.0781,-6.0781,-6.0666,-6.0204,-5.9358,-5.8319,-5.7165,-5.6088,-5.5703,-5.5703,-5.5703,-5.5703,-5.5703,-5.5703,-5.5703,-5.5703,-5.5703,-5.5703,-5.5703,-5.5724,-5.5717,-5.5769,-5.5932,-5.5962,-5.6032,-5.6222,-5.6242,-5.6212,-5.6212,-5.6202,-5.6175,-5.6212,-5.6222,-5.6232,-5.6222,-5.6202,-5.6064,-5.5855,-5.5758,-5.5758,-5.5748,-5.5768,-5.5758,-5.5769,-5.587,-5.5991,-5.6186,-5.6269,-5.6377,-5.6484,-5.6523,-5.6328,-5.5954,-5.5217,-5.4336,-5.3349,-5.2361,-5.1613,-5.0928,-5.1029,-5.1117,-5.1167,-5.1215,-5.1263,-5.1254,-5.1183,-5.1174,-5.1188,-5.1252,-5.1273,-5.1289,-5.1328,-5.1289,-5.1245,-5.1171,-5.0906,-7.7515,-7.5976,-7.5822,-7.4861,-7.3591,-7.3283,-7.2322,-7.0898,-7.0898,-7.0898,-7.0898,-7.0898,-6.9937,-6.8398,-6.8321,-6.7475,-6.6013,-6.5897,-6.5897,-6.5743,-6.4859,-6.3935,-6.3128,-6.1666,-6.0858,-6.0781,-6.0781,-6.0781,-6.0781,-6.0781,-6.0781,-6.0781,-6.0781,-6.0781,-6.0781,-6.0781,-6.0781,-6.0781,-6.0781,-6.0781,-6.0781,-6.0781,-6.0358,-5.9435,-5.8127,-5.6857,-5.5972,-5.5703,-5.5703,-5.5703,-5.5703,-5.5703,-5.5703,-5.5703,-5.5703,-5.5703,-5.5703,-5.5703,-5.5707,-5.5779,-5.5939,-5.611,-5.6222,-5.6335,-5.6466,-5.6433,-5.6371,-5.6351,-5.626,-5.6264,-5.6358,-5.6456,-5.645,-5.638,-5.6361,-5.6281,-5.6141,-5.6084,-5.6057,-5.6064,-5.6064,-5.6084,-5.6078,-5.6091,-5.6212,-5.6347,-5.6406,-5.6484,-5.6523,-5.6562,-5.6172,-5.571,-5.4616,-5.3684,-5.2986,-5.2102,-5.1477,-5.1012,-5.1089,-5.1216,-5.1213,-5.1224,-5.1271,-5.1263,-5.1204,-5.1204,-5.121,-5.1267,-5.132,-5.1315,-5.1256,-5.1222,-5.1179,-5.1156,-5.106,-7.7169,-7.6015,-7.5976,-7.5053,-7.363,-7.3462,-7.2514,-7.1129,-7.0898,-7.0898,-7.0898,-7.0898,-6.9937,-6.8423,-6.8321,-6.7475,-6.6205,-6.5897,-6.5897,-6.5705,-6.5013,-6.4359,-6.3705,-6.2281,-6.1243,-6.0896,-6.0781,-6.0781,-6.0781,-6.0781,-6.0781,-6.0781,-6.0781,-6.0781,-6.0781,-6.0781,-6.0781,-6.0781,-6.0781,-6.0781,-6.0781,-6.0781,-6.0127,-5.9127,-5.8011,-5.7049,-5.5857,-5.5703,-5.5703,-5.5703,-5.5703,-5.5703,-5.5703,-5.5703,-5.5703,-5.5703,-5.5703,-5.5703,-5.5728,-5.5834,-5.6008,-5.6186,-5.6344,-5.6456,-5.656,-5.6516,-5.651,-5.6465,-5.6452,-5.6443,-5.6466,-5.6518,-5.6523,-5.6515,-5.6484,-5.6445,-5.6367,-5.6273,-5.623,-5.623,-5.6175,-5.6175,-5.6197,-5.6251,-5.6289,-5.6383,-5.6484,-5.6523,-5.6328,-5.6289,-5.582,-5.5147,-5.3953,-5.301,-5.2464,-5.1852,-5.132,-5.1084,-5.114,-5.1252,-5.1317,-5.1318,-5.1279,-5.1273,-5.1267,-5.1219,-5.1224,-5.1278,-5.1268,-5.1222,-5.1168,-5.1117,-5.1025,-5.0975,-5.0913,-7.6784,-7.5976,-7.5976,-7.5053,-7.363,-7.3462,-7.2514,-7.1052,-7.0898,-7.0898,-7.0898,-7.0898,-7.0052,-6.8859,-6.8423,-6.7436,-6.6282,-6.5897,-6.5897,-6.5782,-6.5282,-6.4782,-6.4166,-6.3012,-6.1858,-6.105,-6.0858,-6.0819,-6.0781,-6.0781,-6.0781,-6.0781,-6.0781,-6.0781,-6.0781,-6.0781,-6.0781,-6.0781,-6.0781,-6.0781,-6.0781,-6.0781,-6.005,-5.8973,-5.8319,-5.7473,-5.628,-5.5868,-5.5703,-5.5703,-5.5703,-5.5703,-5.5703,-5.5703,-5.5703,-5.5703,-5.5703,-5.5707,-5.5779,-5.5913,-5.6071,-5.6212,-5.6365,-5.6463,-5.6561,-5.6601,-5.6601,-5.6601,-5.6562,-5.6562,-5.6601,-5.6601,-5.6601,-5.6601,-5.6601,-5.6601,-5.6562,-5.6386,-5.6336,-5.6316,-5.6347,-5.6358,-5.6361,-5.6383,-5.6397,-5.6445,-5.6562,-5.6562,-5.6367,-5.5898,-5.543,-5.4765,-5.3623,-5.2583,-5.1941,-5.1717,-5.1199,-5.1151,-5.1211,-5.1289,-5.1367,-5.1367,-5.1328,-5.1367,-5.1363,-5.1273,-5.1208,-5.1196,-5.1158,-5.1108,-5.1036,-5.099,-5.0913,-5.0782,-5.0709,-7.6784,-7.5976,-7.5976,-7.5014,-7.363,-7.35,-7.2514,-7.1091,-7.0898,-7.0898,-7.0898,-7.086,-7.036,-6.9475,-6.8667,-6.7475,-6.6205,-6.5897,-6.5897,-6.5897,-6.559,-6.532,-6.4589,-6.3551,-6.2589,-6.187,-6.1204,-6.0781,-6.0781,-6.0781,-6.0781,-6.0781,-6.0781,-6.0781,-6.0781,-6.0781,-6.0781,-6.0781,-6.0781,-6.0781,-6.0781,-6.0742,-6.0319,-5.9242,-5.8704,-5.7857,-5.6934,-5.6126,-5.5703,-5.5703,-5.5703,-5.5703,-5.5703,-5.5703,-5.5703,-5.5703,-5.5703,-5.5738,-5.5825,-5.6037,-5.6212,-5.6365,-5.6463,-5.6562,-5.6601,-5.6601,-5.6601,-5.6601,-5.6601,-5.6601,-5.6601,-5.6601,-5.6601,-5.6601,-5.6601,-5.6601,-5.6601,-5.6562,-5.6484,-5.6484,-5.6484,-5.6484,-5.6484,-5.6484,-5.6523,-5.6523,-5.6562,-5.6601,-5.6523,-5.582,-5.5,-5.4258,-5.3359,-5.237,-5.1516,-5.1394,-5.1194,-5.1245,-5.1289,-5.1328,-5.1367,-5.1406,-5.1406,-5.1367,-5.1316,-5.121,-5.118,-5.1133,-5.104,-5.0946,-5.0925,-5.0913,-5.0758,-5.0636,-5.0486,-7.6361,-7.6015,-7.5976,-7.5053,-7.3668,-7.3462,-7.2514,-7.1052,-7.0898,-7.0898,-7.0898,-7.086,-7.0437,-6.9629,-6.8783,-6.7475,-6.6244,-6.5897,-6.5897,-6.5897,-6.5859,-6.5705,-6.5051,-6.3974,-6.3205,-6.2435,-6.1512,-6.0819,-6.0781,-6.0781,-6.0781,-6.0781,-6.0781,-6.0781,-6.0781,-6.0781,-6.0781,-6.0781,-6.0781,-6.0781,-6.0781,-6.0781,-6.0319,-5.9627,-5.9127,-5.8511,-5.778,-5.7357,-5.6819,-5.6483,-5.6395,-5.6126,-5.5857,-5.5742,-5.5703,-5.5742,-5.5714,-5.5717,-5.5834,-5.6029,-5.6217,-5.6285,-5.6465,-5.6601,-5.6601,-5.6601,-5.6601,-5.6601,-5.6601,-5.6601,-5.6601,-5.6601,-5.6601,-5.6601,-5.6601,-5.6601,-5.6601,-5.6601,-5.6601,-5.6601,-5.6601,-5.6562,-5.6601,-5.6601,-5.6601,-5.6601,-5.6601,-5.6601,-5.6601,-5.5586,-5.4531,-5.3711,-5.2891,-5.2148,-5.1406,-5.1328,-5.125,-5.1289,-5.1328,-5.1367,-5.1367,-5.1367,-5.1328,-5.1289,-5.121,-5.1161,-5.1069,-5.0996,-5.0911,-5.0835,-5.0795,-5.0782,-5.0663,-5.0519,-5.0356,-7.5976,-7.5976,-7.5822,-7.4861,-7.363,-7.3283,-7.236,-7.1091,-7.0898,-7.0898,-7.0898,-7.086,-7.0552,-6.9821,-6.8783,-6.7513,-6.5974,-6.5897,-6.5897,-6.5897,-6.5897,-6.5859,-6.5436,-6.4512,-6.3474,-6.2974,-6.1897,-6.0973,-6.0819,-6.0781,-6.0781,-6.0781,-6.0781,-6.0781,-6.0781,-6.0781,-6.0781,-6.0781,-6.0781,-6.0781,-6.0781,-6.0742,-6.0512,-5.9781,-5.9588,-5.9127,-5.8588,-5.8204,-5.7819,-5.7434,-5.7203,-5.6973,-5.6395,-5.6203,-5.6126,-5.5972,-5.5829,-5.5724,-5.5836,-5.6008,-5.6212,-5.6277,-5.6463,-5.6562,-5.6601,-5.6601,-5.6601,-5.6601,-5.6601,-5.6601,-5.6601,-5.6601,-5.6601,-5.6601,-5.6601,-5.6601,-5.6601,-5.6601,-5.6601,-5.6601,-5.6601,-5.6601,-5.6601,-5.6601,-5.6601,-5.6601,-5.6601,-5.6601,-5.6406,-5.5039,-5.3984,-5.3164,-5.2422,-5.1797,-5.1406,-5.1406,-5.1328,-5.1367,-5.1367,-5.1367,-5.1367,-5.1367,-5.1315,-5.1204,-5.1094,-5.105,-5.094,-5.0883,-5.0833,-5.0747,-5.0702,-5.0664,-5.0635,-5.0442,-5.0212,-7.5976,-7.5938,-7.5168,-7.4322,-7.3462,-7.2745,-7.1822,-7.0975,-7.0898,-7.0898,-7.0898,-7.0898,-7.0821,-7.0206,-6.9013,-6.7475,-6.632,-6.5897,-6.5897,-6.5897,-6.5897,-6.5897,-6.5743,-6.4936,-6.3897,-6.3281,-6.232,-6.155,-6.0973,-6.0781,-6.0781,-6.0781,-6.0781,-6.0781,-6.0781,-6.0781,-6.0781,-6.0781,-6.0781,-6.0781,-6.0781,-6.0781,-6.0704,-6.0435,-5.9973,-5.955,-5.9319,-5.8934,-5.8396,-5.8242,-5.8165,-5.8088,-5.8011,-5.8011,-5.7511,-5.6896,-5.6235,-5.5768,-5.5879,-5.6078,-5.6227,-5.6305,-5.6511,-5.6601,-5.6601,-5.6601,-5.6601,-5.6601,-5.6601,-5.6601,-5.6601,-5.6601,-5.6601,-5.6601,-5.6601,-5.6601,-5.6601,-5.6601,-5.6601,-5.6601,-5.6601,-5.6601,-5.6601,-5.6601,-5.6601,-5.6601,-5.6601,-5.6601,-5.6172,-5.4883,-5.3359,-5.25,-5.2148,-5.1562,-5.1406,-5.1406,-5.1406,-5.1406,-5.1406,-5.1406,-5.1367,-5.1363,-5.1245,-5.1151,-5.106,-5.0963,-5.0932,-5.0844,-5.0767,-5.0693,-5.0712,-5.0702,-5.0664,-5.0404,-5.0135,-7.5976,-7.5938,-7.5053,-7.4231,-7.3437,-7.2591,-7.1706,-7.1014,-7.0898,-7.0898,-7.0898,-7.0898,-7.0437,-6.9513,-6.8629,-6.7475,-6.6167,-6.5897,-6.5897,-6.5897,-6.5897,-6.5897,-6.5705,-6.5013,-6.4166,-6.332,-6.2474,-6.1601,-6.105,-6.0781,-6.0781,-6.0781,-6.0781,-6.0781,-6.0781,-6.0781,-6.0781,-6.0781,-6.0781,-6.0781,-6.0781,-6.0781,-6.0781,-6.0781,-6.0396,-6.0242,-6.0089,-5.9973,-5.9435,-5.9165,-5.8973,-5.8742,-5.8434,-5.828,-5.805,-5.7819,-5.7434,-5.6757,-5.601,-5.6089,-5.6202,-5.6301,-5.6445,-5.6601,-5.6601,-5.6601,-5.6601,-5.6601,-5.6601,-5.6601,-5.6601,-5.6601,-5.6601,-5.6601,-5.6601,-5.6601,-5.6601,-5.6601,-5.6601,-5.6601,-5.6601,-5.6601,-5.6601,-5.6601,-5.6601,-5.6601,-5.6562,-5.6484,-5.5976,-5.4961,-5.3359,-5.1758,-5.1601,-5.1445,-5.1406,-5.1406,-5.1406,-5.1406,-5.1406,-5.1406,-5.1406,-5.1361,-5.124,-5.1186,-5.1092,-5.0992,-5.0918,-5.0795,-5.0712,-5.0712,-5.0712,-5.0702,-5.0712,-5.0693,-5.0527,-7.5861,-7.5592,-7.4784,-7.3937,-7.3091,-7.2245,-7.1514,-7.0937,-7.0898,-7.0898,-7.0898,-7.0821,-6.9975,-6.8692,-6.8321,-6.7513,-6.5936,-6.5897,-6.5897,-6.5897,-6.5897,-6.5897,-6.5628,-6.5013,-6.4128,-6.3269,-6.2474,-6.1678,-6.105,-6.0781,-6.0781,-6.0781,-6.0781,-6.0781,-6.0781,-6.0781,-6.0781,-6.0781,-6.0781,-6.0781,-6.0781,-6.0781,-6.0781,-6.0781,-6.0781,-6.0781,-6.0781,-6.0742,-6.0319,-6.0012,-5.9819,-5.9588,-5.9204,-5.9165,-5.8934,-5.8704,-5.8473,-5.7896,-5.7004,-5.6582,-5.6394,-5.6338,-5.6445,-5.6601,-5.6601,-5.6601,-5.6601,-5.6601,-5.6601,-5.6601,-5.6601,-5.6601,-5.6601,-5.6601,-5.6601,-5.6601,-5.6601,-5.6601,-5.6601,-5.6601,-5.6601,-5.6601,-5.6601,-5.6601,-5.6601,-5.6601,-5.6523,-5.6406,-5.5625,-5.4726,-5.3398,-5.1719,-5.1406,-5.1406,-5.1406,-5.1406,-5.1406,-5.1406,-5.1406,-5.1406,-5.1406,-5.1328,-5.1252,-5.1171,-5.1113,-5.0978,-5.0819,-5.0738,-5.0702,-5.0702,-5.0702,-5.0702,-5.0712,-5.0712,-5.0827,-7.5515,-7.4745,-7.3885,-7.3091,-7.2245,-7.136,-7.0975,-7.0898,-7.0898,-7.0898,-7.0898,-7.0783,-6.986,-6.8706,-6.8167,-6.7398,-6.5897,-6.5897,-6.5897,-6.5897,-6.5897,-6.5897,-6.559,-6.5013,-6.4166,-6.3281,-6.2474,-6.1678,-6.1012,-6.0781,-6.0781,-6.0781,-6.0781,-6.0781,-6.0781,-6.0781,-6.0781,-6.0781,-6.0781,-6.0781,-6.0781,-6.0781,-6.0781,-6.0781,-6.0781,-6.0781,-6.0781,-6.0781,-6.0742,-6.055,-6.0512,-6.0512,-6.0204,-6.0204,-5.9935,-5.955,-5.9435,-5.8896,-5.8109,-5.7369,-5.6844,-5.6539,-5.6406,-5.6601,-5.6601,-5.6601,-5.6601,-5.6601,-5.6601,-5.6601,-5.6601,-5.6601,-5.6601,-5.6601,-5.6601,-5.6601,-5.6601,-5.6601,-5.6601,-5.6601,-5.6601,-5.6601,-5.6601,-5.6601,-5.6601,-5.6601,-5.6484,-5.6367,-5.5117,-5.4101,-5.3125,-5.1992,-5.1523,-5.1406,-5.1406,-5.1406,-5.1406,-5.1406,-5.1406,-5.1406,-5.1406,-5.1328,-5.1289,-5.1206,-5.1135,-5.0945,-5.0764,-5.0749,-5.0702,-5.0712,-5.0712,-5.0693,-5.0799,-5.0836,-5.0951,-7.4399,-7.3129,-7.2822,-7.2476,-7.2129,-7.1283,-7.0898,-7.0898,-7.0898,-7.0898,-7.086,-7.036,-6.9513,-6.8552,-6.7744,-6.7013,-6.5974,-6.5897,-6.5897,-6.5897,-6.5897,-6.5897,-6.559,-6.4974,-6.4166,-6.3281,-6.2474,-6.1678,-6.0896,-6.0819,-6.0781,-6.0781,-6.0781,-6.0781,-6.0781,-6.0781,-6.0781,-6.0781,-6.0781,-6.0781,-6.0781,-6.0781,-6.0781,-6.0781,-6.0781,-6.0781,-6.0781,-6.0781,-6.0781,-6.0781,-6.0781,-6.0781,-6.0781,-6.0781,-6.0589,-6.0281,-6.0204,-5.9781,-5.9056,-5.8384,-5.772,-5.7126,-5.6753,-5.6512,-5.6601,-5.6601,-5.6601,-5.6601,-5.6601,-5.6601,-5.6601,-5.6601,-5.6601,-5.6601,-5.6601,-5.6601,-5.6601,-5.6601,-5.6601,-5.6601,-5.6601,-5.6601,-5.6601,-5.6601,-5.6601,-5.6601,-5.6445,-5.6055,-5.4805,-5.3789,-5.293,-5.207,-5.1562,-5.1406,-5.1406,-5.1406,-5.1406,-5.1406,-5.1406,-5.1406,-5.1406,-5.1406,-5.1328,-5.125,-5.1156,-5.1031,-5.0911,-5.0791,-5.073,-5.0731,-5.0712,-5.074,-5.0844,-5.0978,-5.1096,-7.3707,-7.2245,-7.2206,-7.2052,-7.1745,-7.1129,-7.0898,-7.0898,-7.0898,-7.0898,-7.086,-7.0052,-6.9206,-6.8359,-6.7513,-6.6705,-6.609,-6.5897,-6.5897,-6.5897,-6.5897,-6.5897,-6.5513,-6.4782,-6.382,-6.3166,-6.2204,-6.1281,-6.0819,-6.0781,-6.0781,-6.0781,-6.0781,-6.0781,-6.0781,-6.0781,-6.0781,-6.0781,-6.0781,-6.0781,-6.0781,-6.0781,-6.0781,-6.0781,-6.0781,-6.0781,-6.0781,-6.0781,-6.0781,-6.0781,-6.0781,-6.0781,-6.0781,-6.0781,-6.0781,-6.0781,-6.0704,-6.0435,-5.9848,-5.8703,-5.7998,-5.7385,-5.6764,-5.6579,-5.6562,-5.6601,-5.6601,-5.6601,-5.6601,-5.6601,-5.6601,-5.6601,-5.6601,-5.6601,-5.6601,-5.6601,-5.6601,-5.6601,-5.6601,-5.6601,-5.6601,-5.6601,-5.6601,-5.6601,-5.6601,-5.6601,-5.6523,-5.5898,-5.457,-5.3711,-5.3125,-5.2226,-5.1445,-5.1406,-5.1406,-5.1406,-5.1406,-5.1406,-5.1406,-5.1406,-5.1406,-5.1406,-5.1367,-5.125,-5.1158,-5.1144,-5.1047,-5.0945,-5.0803,-5.0731,-5.0785,-5.0827,-5.0957,-5.1109,-5.1174,-7.3668,-7.2283,-7.2168,-7.1668,-7.1052,-7.0937,-7.0898,-7.0898,-7.0898,-7.086,-7.0667,-6.9937,-6.909,-6.8244,-6.7282,-6.6513,-6.6013,-6.5897,-6.5897,-6.5897,-6.5897,-6.5897,-6.5282,-6.4474,-6.35,-6.2962,-6.1897,-6.0973,-6.0781,-6.0781,-6.0781,-6.0781,-6.0781,-6.0781,-6.0781,-6.0781,-6.0781,-6.0781,-6.0781,-6.0781,-6.0781,-6.0781,-6.0781,-6.0781,-6.0781,-6.0781,-6.0781,-6.0781,-6.0804,-6.0834,-6.0804,-6.0816,-6.0823,-6.0804,-6.0781,-6.0781,-6.0781,-6.0754,-6.0546,-5.851,-5.7652,-5.7375,-5.6776,-5.6497,-5.6562,-5.6601,-5.6601,-5.6601,-5.6601,-5.6601,-5.6601,-5.6601,-5.6601,-5.6601,-5.6601,-5.6601,-5.6601,-5.6601,-5.6601,-5.6601,-5.6601,-5.6601,-5.6601,-5.6601,-5.6601,-5.6601,-5.6601,-5.5742,-5.4375,-5.3516,-5.293,-5.2226,-5.1406,-5.1406,-5.1406,-5.1406,-5.1406,-5.1406,-5.1406,-5.1406,-5.1406,-5.1406,-5.1328,-5.125,-5.1194,-5.1154,-5.1144,-5.1079,-5.0966,-5.0889,-5.0896,-5.0972,-5.1117,-5.1211,-5.1289,-7.236,-7.136,-7.1321,-7.1168,-7.0898,-7.0898,-7.0898,-7.0898,-7.086,-7.0591,-6.9975,-6.9206,-6.8359,-6.7513,-6.6782,-6.6167,-6.5974,-6.5897,-6.5897,-6.5897,-6.5897,-6.5897,-6.5359,-6.432,-6.3308,-6.2846,-6.1743,-6.0781,-6.0781,-6.0781,-6.0781,-6.0781,-6.0781,-6.0781,-6.0781,-6.0781,-6.0781,-6.0781,-6.0781,-6.0781,-6.0781,-6.0781,-6.0781,-6.0781,-6.0781,-6.0793,-6.0816,-6.0827,-6.0867,-6.0895,-6.0892,-6.0888,-6.0913,-6.0892,-6.0827,-6.0816,-6.0804,-6.0536,-6.0025,-5.8734,-5.7901,-5.7381,-5.6808,-5.6495,-5.6601,-5.6601,-5.6601,-5.6601,-5.6601,-5.6601,-5.6601,-5.6601,-5.6601,-5.6601,-5.6601,-5.6601,-5.6601,-5.6601,-5.6601,-5.6601,-5.6601,-5.6601,-5.6601,-5.6601,-5.6601,-5.625,-5.6133,-5.543,-5.418,-5.3281,-5.2617,-5.1992,-5.1406,-5.1406,-5.1406,-5.1406,-5.1406,-5.1406,-5.1406,-5.1406,-5.1406,-5.1406,-5.1367,-5.1328,-5.125,-5.1194,-5.1171,-5.1144,-5.1109,-5.1064,-5.1074,-5.1087,-5.1177,-5.1289,-5.1328,-7.1668,-7.0937,-7.0898,-7.0898,-7.0898,-7.0898,-7.0898,-7.0898,-7.086,-7.0437,-6.9667,-6.8783,-6.7936,-6.709,-6.632,-6.5897,-6.5897,-6.5897,-6.5897,-6.5897,-6.5897,-6.5897,-6.5359,-6.4243,-6.3435,-6.282,-6.1781,-6.0781,-6.0781,-6.0781,-6.0781,-6.0781,-6.0781,-6.0781,-6.0781,-6.0781,-6.0781,-6.0781,-6.0781,-6.0781,-6.0781,-6.0781,-6.0781,-6.0781,-6.0793,-6.0827,-6.0877,-6.0902,-6.0945,-6.1036,-6.1053,-6.103,-6.1053,-6.1036,-6.0993,-6.0964,-6.0944,-6.0437,-5.9483,-5.9024,-5.8065,-5.7039,-5.6599,-5.6495,-5.6562,-5.6601,-5.6601,-5.6601,-5.6601,-5.6601,-5.6601,-5.6601,-5.6601,-5.6601,-5.6601,-5.6601,-5.6601,-5.6601,-5.6601,-5.6601,-5.6601,-5.6601,-5.6601,-5.6601,-5.6601,-5.6094,-5.5625,-5.4844,-5.4062,-5.3164,-5.2383,-5.1758,-5.1406,-5.1406,-5.1406,-5.1406,-5.1406,-5.1406,-5.1406,-5.1406,-5.1406,-5.1406,-5.1406,-5.1406,-5.1328,-5.1289,-5.125,-5.125,-5.1211,-5.1211,-5.1256,-5.1261,-5.1268,-5.1328,-5.1406,-7.1668,-7.0937,-7.0898,-7.086,-7.0821,-7.0667,-7.0706,-7.0821,-7.0821,-7.0321,-6.9475,-6.8552,-6.7705,-6.6974,-6.6205,-6.5897,-6.5897,-6.5897,-6.5897,-6.5897,-6.5897,-6.5859,-6.5243,-6.4128,-6.3358,-6.2666,-6.1743,-6.0781,-6.0781,-6.0781,-6.0781,-6.0781,-6.0781,-6.0781,-6.0781,-6.0781,-6.0781,-6.0781,-6.0781,-6.0781,-6.0781,-6.0781,-6.0827,-6.0811,-6.0856,-6.0905,-6.0963,-6.1023,-6.1135,-6.122,-6.1265,-6.1271,-6.1283,-6.1322,-6.1283,-6.1271,-6.1253,-6.0164,-5.916,-5.8815,-5.7964,-5.6854,-5.6514,-5.6468,-5.6562,-5.6601,-5.6601,-5.6601,-5.6601,-5.6601,-5.6601,-5.6601,-5.6601,-5.6601,-5.6601,-5.6601,-5.6601,-5.6601,-5.6601,-5.6601,-5.6601,-5.6601,-5.6601,-5.6601,-5.6562,-5.6211,-5.5703,-5.5,-5.4141,-5.293,-5.2187,-5.168,-5.1406,-5.1406,-5.1406,-5.1406,-5.1406,-5.1406,-5.1406,-5.1406,-5.1406,-5.1406,-5.1406,-5.1406,-5.1406,-5.1367,-5.1328,-5.1328,-5.1367,-5.1367,-5.1367,-5.1367,-5.1328,-5.1328,-5.1406,-7.1129,-7.0898,-7.0898,-7.0552,-7.0014,-6.9398,-6.9475,-6.9975,-7.0014,-6.9283,-6.7821,-6.759,-6.709,-6.6244,-6.6013,-6.5897,-6.5897,-6.5897,-6.5897,-6.5859,-6.5782,-6.5436,-6.4743,-6.382,-6.3089,-6.2281,-6.1473,-6.0781,-6.0781,-6.0781,-6.0781,-6.0781,-6.0781,-6.0781,-6.0781,-6.0781,-6.0781,-6.0781,-6.0781,-6.0804,-6.0816,-6.0827,-6.0839,-6.0925,-6.0935,-6.1031,-6.1165,-6.1214,-6.1306,-6.14,-6.1339,-6.1323,-6.1424,-6.1349,-6.1283,-6.1205,-6.0744,-5.9877,-5.8948,-5.8286,-5.7575,-5.6797,-5.6562,-5.6523,-5.6601,-5.6601,-5.6601,-5.6601,-5.6601,-5.6601,-5.6601,-5.6601,-5.6601,-5.6601,-5.6601,-5.6601,-5.6601,-5.6601,-5.6601,-5.6601,-5.6601,-5.6601,-5.6601,-5.6601,-5.6523,-5.6289,-5.582,-5.5156,-5.4258,-5.3086,-5.2305,-5.1758,-5.1406,-5.1406,-5.1406,-5.1406,-5.1406,-5.1406,-5.1406,-5.1406,-5.1406,-5.1406,-5.1406,-5.1406,-5.1406,-5.1406,-5.1367,-5.1406,-5.1406,-5.1406,-5.1367,-5.1406,-5.1406,-5.1406,-5.1406,-7.0706,-7.0437,-7.0437,-6.9975,-6.9167,-6.8629,-6.859,-6.8744,-6.9013,-6.8359,-6.7205,-6.7128,-6.6667,-6.6013,-6.5897,-6.5897,-6.5897,-6.5897,-6.5897,-6.582,-6.5513,-6.5089,-6.4397,-6.3435,-6.2627,-6.1908,-6.1331,-6.0781,-6.0781,-6.0781,-6.0781,-6.0781,-6.0781,-6.0781,-6.0781,-6.0781,-6.0781,-6.0781,-6.0804,-6.0861,-6.0877,-6.0882,-6.0973,-6.1081,-6.112,-6.1234,-6.1349,-6.1369,-6.1432,-6.1571,-6.1488,-6.1498,-6.1579,-6.1504,-6.113,-6.102,-6.0555,-5.9597,-5.8646,-5.8064,-5.7375,-5.6836,-5.6601,-5.6601,-5.6601,-5.6601,-5.6601,-5.6601,-5.6601,-5.6601,-5.6601,-5.6601,-5.6601,-5.6601,-5.6601,-5.6601,-5.6601,-5.6601,-5.6601,-5.6601,-5.6601,-5.6601,-5.6601,-5.6601,-5.6562,-5.6328,-5.5976,-5.539,-5.4453,-5.3359,-5.2695,-5.2187,-5.1719,-5.1406,-5.1406,-5.1406,-5.1406,-5.1406,-5.1406,-5.1406,-5.1406,-5.1406,-5.1406,-5.1406,-5.1406,-5.1406,-5.1406,-5.1406,-5.1406,-5.1406,-5.1406,-5.1406,-5.1406,-5.1406,-5.1406,-7.0398,-6.9706,-6.9552,-6.9013,-6.8359,-6.8167,-6.7705,-6.7128,-6.7821,-6.7744,-6.7051,-6.6974,-6.6551,-6.5974,-6.5897,-6.5897,-6.5782,-6.5705,-6.5551,-6.5705,-6.482,-6.432,-6.3705,-6.2897,-6.2178,-6.1755,-6.1331,-6.0781,-6.0781,-6.0781,-6.0781,-6.0781,-6.0781,-6.0816,-6.0856,-6.0804,-6.0827,-6.0828,-6.085,-6.0892,-6.0973,-6.1023,-6.112,-6.1271,-6.1323,-6.1369,-6.1488,-6.1522,-6.1577,-6.1677,-6.1719,-6.168,-6.168,-6.1445,-6.1015,-6.0469,-6.0078,-5.9219,-5.832,-5.7734,-5.7305,-5.6836,-5.6601,-5.6601,-5.6601,-5.6601,-5.6601,-5.6601,-5.6601,-5.6601,-5.6601,-5.6601,-5.6601,-5.6601,-5.6601,-5.6601,-5.6601,-5.6601,-5.6601,-5.6601,-5.6601,-5.6601,-5.6601,-5.6601,-5.6601,-5.6406,-5.6172,-5.5664,-5.5,-5.3945,-5.3164,-5.2695,-5.1914,-5.1445,-5.1406,-5.1406,-5.1406,-5.1406,-5.1406,-5.1406,-5.1406,-5.1406,-5.1406,-5.1406,-5.1406,-5.1406,-5.1406,-5.1406,-5.1406,-5.1406,-5.1406,-5.1406,-5.1406,-5.1406,-5.1406,-6.9898,-6.9552,-6.8282,-6.759,-6.7359,-6.6744,-6.6436,-6.6205,-6.6397,-6.6436,-6.6205,-6.6205,-6.6128,-6.5936,-6.5897,-6.5859,-6.5705,-6.5282,-6.4974,-6.4628,-6.4012,-6.3397,-6.2858,-6.2293,-6.1716,-6.1243,-6.0896,-6.0781,-6.0781,-6.0781,-6.0793,-6.0793,-6.0816,-6.0867,-6.0974,-6.0902,-6.0871,-6.0935,-6.1,-6.0979,-6.1056,-6.12,-6.1301,-6.1435,-6.1481,-6.1512,-6.1601,-6.164,-6.168,-6.1719,-6.1719,-6.1719,-6.1719,-6.1094,-6.0664,-6.0234,-5.9258,-5.8476,-5.789,-5.7344,-5.6914,-5.6797,-5.6601,-5.6601,-5.6601,-5.6601,-5.6601,-5.6601,-5.6601,-5.6601,-5.6601,-5.6601,-5.6601,-5.6601,-5.6601,-5.6601,-5.6601,-5.6601,-5.6601,-5.6601,-5.6601,-5.6601,-5.6601,-5.6601,-5.6601,-5.6562,-5.6523,-5.625,-5.5937,-5.5117,-5.3945,-5.3242,-5.1992,-5.1523,-5.1445,-5.1406,-5.1406,-5.1406,-5.1406,-5.1406,-5.1406,-5.1406,-5.1406,-5.1406,-5.1406,-5.1406,-5.1406,-5.1406,-5.1406,-5.1406,-5.1406,-5.1406,-5.1406,-5.1406,-5.1406,-6.8898,-6.8398,-6.7128,-6.6551,-6.6474,-6.609,-6.5897,-6.5897,-6.5897,-6.5897,-6.5897,-6.5897,-6.5897,-6.5897,-6.5897,-6.5551,-6.5359,-6.4859,-6.4397,-6.3897,-6.3205,-6.2666,-6.2139,-6.1716,-6.1331,-6.0858,-6.0819,-6.0781,-6.0781,-6.0804,-6.0816,-6.0899,-6.0874,-6.0935,-6.1089,-6.1062,-6.1036,-6.1135,-6.1168,-6.1201,-6.1208,-6.1349,-6.1474,-6.1566,-6.1601,-6.164,-6.168,-6.1719,-6.1719,-6.1719,-6.1719,-6.1328,-6.1133,-6.0703,-6.0039,-5.9297,-5.8437,-5.7734,-5.7344,-5.6953,-5.6601,-5.6601,-5.6601,-5.6601,-5.6601,-5.6601,-5.6601,-5.6601,-5.6601,-5.6601,-5.6601,-5.6601,-5.6601,-5.6601,-5.6601,-5.6601,-5.6601,-5.6601,-5.6601,-5.6601,-5.6601,-5.6601,-5.6601,-5.6601,-5.6601,-5.6601,-5.6562,-5.6562,-5.6328,-5.6055,-5.4922,-5.3867,-5.2695,-5.1719,-5.1406,-5.1406,-5.1406,-5.1406,-5.1406,-5.1406,-5.1406,-5.1406,-5.1406,-5.1406,-5.1406,-5.1406,-5.1406,-5.1406,-5.1406,-5.1406,-5.1406,-5.1406,-5.1406,-5.1406,-5.1406,-6.7744,-6.6859,-6.6205,-6.5897,-6.5897,-6.5897,-6.5897,-6.5897,-6.5897,-6.5897,-6.5897,-6.5897,-6.5897,-6.5897,-6.5705,-6.5166,-6.4628,-6.4051,-6.3628,-6.3089,-6.2281,-6.1897,-6.1589,-6.1204,-6.0935,-6.0819,-6.0781,-6.0781,-6.0781,-6.0804,-6.0877,-6.0991,-6.1056,-6.1081,-6.1259,-6.1289,-6.1271,-6.1328,-6.1383,-6.1442,-6.1501,-6.1515,-6.1584,-6.164,-6.1719,-6.1719,-6.1719,-6.1719,-6.1719,-6.1719,-6.168,-6.1211,-6.0664,-6.0234,-5.9297,-5.8515,-5.7851,-5.7265,-5.6875,-5.6719,-5.6601,-5.6601,-5.6601,-5.6601,-5.6601,-5.6601,-5.6601,-5.6601,-5.6601,-5.6601,-5.6601,-5.6601,-5.6601,-5.6601,-5.6601,-5.6601,-5.6601,-5.6601,-5.6601,-5.6601,-5.6601,-5.6601,-5.6601,-5.6601,-5.6601,-5.6601,-5.6601,-5.6601,-5.6523,-5.6211,-5.5508,-5.4609,-5.3633,-5.2695,-5.1836,-5.1406,-5.1406,-5.1406,-5.1406,-5.1406,-5.1406,-5.1406,-5.1406,-5.1406,-5.1406,-5.1406,-5.1406,-5.1406,-5.1406,-5.1406,-5.1406,-5.1406,-5.1406,-5.1406,-5.1406,-6.6898,-6.609,-6.5936,-6.5897,-6.5897,-6.5897,-6.5897,-6.5897,-6.5897,-6.5897,-6.5897,-6.5897,-6.5897,-6.582,-6.5089,-6.4628,-6.432,-6.3435,-6.2716,-6.2216,-6.155,-6.1204,-6.105,-6.0973,-6.0819,-6.0781,-6.0781,-6.0793,-6.0834,-6.085,-6.0882,-6.1031,-6.1031,-6.1154,-6.1404,-6.1404,-6.1373,-6.1428,-6.1452,-6.1517,-6.1568,-6.1582,-6.1638,-6.168,-6.1719,-6.1719,-6.1719,-6.1719,-6.1719,-6.1719,-6.164,-6.1172,-6.0469,-5.9765,-5.8906,-5.7969,-5.7305,-5.6992,-5.664,-5.6601,-5.6601,-5.6601,-5.6601,-5.6601,-5.6601,-5.6601,-5.6601,-5.6601,-5.6601,-5.6601,-5.6601,-5.6601,-5.6601,-5.6601,-5.6601,-5.6601,-5.6601,-5.6601,-5.6601,-5.6601,-5.6601,-5.6601,-5.6601,-5.6601,-5.6601,-5.6601,-5.6601,-5.6601,-5.6601,-5.6328,-5.6055,-5.5273,-5.4414,-5.3555,-5.2617,-5.1601,-5.1406,-5.1406,-5.1406,-5.1406,-5.1406,-5.1406,-5.1406,-5.1406,-5.1406,-5.1406,-5.1406,-5.1406,-5.1406,-5.1406,-5.1406,-5.1406,-5.1406,-5.1406,-5.1367]},{"header":{"parameterUnit":"m.s-1","parameterCategory":1,"la1":31.0,"la2":29.5877,"lo1":-88.7671,"lo2":-86.6584,"dy":0.0162,"dx":0.0185,"nx":115,"ny":88,"refTime":"2024-05-26T00:00:00:Z","depth":0,"parameterNumber":3,"parameterNumberName":"V-component_of_WINDS"},"data":[0.0,0.0,0.0,0.0,0.0,0.0,0.0,0.0,0.0,0.0,0.0,0.0,0.0,0.0,0.0,0.0,0.0,0.0,0.0,0.0,0.0,0.0,0.0,0.0,0.0,0.0,0.0,0.0,0.0,0.0,0.0,0.0,0.0,0.0,0.0,0.0,0.0,0.0,0.0,0.0,0.0,0.0,0.0,0.0,0.0,0.0,0.0,0.0,0.0,0.0,0.0,0.0,0.0,0.0,0.0,0.0,0.0,0.0,0.0,0.0,0.0,0.0,0.0,0.0,0.0,0.0,0.0,0.0,0.0,0.0,0.0,0.0,0.0,0.0,0.0,0.0,0.0,0.0,0.0,0.0,0.0,0.0,0.0,0.0,0.0,0.0,0.0,0.0,0.0,0.0,0.0,0.0,0.0,0.0,0.0,0.0,0.0,0.0,0.0,0.0,0.0,0.0,0.0,0.0,0.0,0.0,0.0,0.0,0.0,0.0,0.0,0.0,0.0,0.0,0.0,0.0,0.0,0.0,0.0,0.0,0.0,0.0,0.0,0.0,0.0,0.0,0.0,0.0,0.0,0.0,0.0,0.0,0.0,0.0,0.0,0.0,0.0,0.0,0.0,0.0,0.0,0.0,0.0,0.0,0.0,0.0,0.0,0.0,0.0,0.0,0.0,0.0,0.0,0.0,0.0,0.0,0.0,0.0,0.0,0.0,0.0,0.0,0.0,0.0,0.0,0.0,0.0,0.0,0.0,0.0,0.0,0.0,0.0,0.0,0.0,0.0,0.0,0.0,0.0,0.0,0.0,0.0,0.0,0.0,0.0,0.0,0.0,0.0,0.0,0.0,0.0,0.0,0.0,0.0,0.0,0.0,0.0,0.0,0.0,0.0,0.0,0.0,0.0,0.0,0.0,0.0,0.0,0.0,0.0,0.0,0.0,0.0,0.0,0.0,0.0,0.0,0.0,0.0,0.0,0.0,0.0,0.0,0.0,0.0,0.0,0.0,0.0,0.0,0.0,0.0,0.0,0.0,0.0,0.0,0.0,0.0,0.0,0.0,0.0,0.0,0.0,0.0,0.0,0.0,0.0,0.0,0.0,0.0,0.0,0.0,0.0,0.0,0.0,0.0,0.0,0.0,0.0,0.0,0.0,0.0,0.0,0.0,0.0,0.0,0.0,0.0,0.0,0.0,0.0,0.0,0.0,0.0,0.0,0.0,0.0,0.0,0.0,0.0,0.0,0.0,0.0,0.0,0.0,0.0,0.0,0.0,0.0,0.0,0.0,0.0,0.0,0.0,0.0,0.0,0.0,0.0,0.0,0.0,0.0,0.0,0.0,0.0,0.0,0.0,0.0,0.0,0.0,0.0,0.0,0.0,0.0,0.0,0.0,0.0,0.0,0.0,0.0,0.0,0.0,0.0,0.0,0.0,0.0,0.0,0.0,0.0,0.0,0.0,0.0,0.0,0.0,0.0,0.0,0.0,0.0,0.0,0.0,0.0,0.0,0.0,0.0,0.0,0.0,0.0,0.0,0.0,0.0,0.0,0.0,0.0,0.0,0.0,0.0,0.0,0.0,0.0,0.0,0.0,0.0,0.0,0.0,0.0,0.0,0.0,0.0,0.0,0.0,0.0,0.0,0.0,0.0,0.0,0.0,0.0,0.0,0.0,0.0,0.0,0.0,0.0,0.0,0.0,0.0,0.0,0.0,0.0,0.0,0.0,0.0,0.0,0.0,0.0,0.0,0.0,0.0,0.0,0.0,0.0,0.0,0.0,0.0,0.0,0.0,0.0,0.0,0.0,0.0,0.0,0.0,0.0,0.0,0.0,0.0,0.0,0.0,0.0,0.0,0.0,0.0,0.0,0.0,0.0,0.0,0.0,0.0,0.0,0.0,0.0,0.0,0.0,0.0,0.0,0.0,0.0,0.0,0.0,0.0,0.0,0.0,0.0,0.0,0.0,0.0,0.0,0.0,0.0,0.0,0.0,0.0,0.0,0.0,0.0,0.0,0.0,0.0,0.0,0.0,0.0,0.0,0.0,0.0,0.0,0.0,0.0,0.0,0.0,0.0,0.0,0.0,0.0,0.0,0.0,0.0,0.0,0.0,0.0,0.0,0.0,0.0,0.0,0.0,0.0,0.0,0.0,0.0,0.0,0.0,0.0,0.0,0.0,0.0,0.0,0.0,0.0,0.0,0.0,0.0,0.0,0.0,0.0,0.0,0.0,0.0,0.0,0.0,0.0,0.0,0.0,0.0,0.0,0.0,0.0,0.0,0.0,0.0,0.0,0.0,0.0,0.0,0.0,0.0,0.0,0.0,0.0,0.0,0.0,0.0,0.0,0.0,0.0,0.0,0.0,0.0,0.0,0.0,0.0,0.0,0.0,0.0,0.0,0.0,0.0,0.0,0.0,0.0,0.0,0.0,0.0,0.0,0.0,0.0,0.0,0.0,0.0,0.0,0.0,0.0,0.0,0.0,0.0,0.0,0.0,0.0,0.0,0.0,0.0,0.0,0.0,0.0,0.0,0.0,0.0,0.0,0.0,0.0,0.0,0.0,0.0,0.0,0.0,0.0,0.0,0.0,0.0,0.0,0.0,0.0,0.0,0.0,0.0,0.0,0.0,0.0,0.0,0.0,0.0,0.0,0.0,0.0,0.0,0.0,0.0,0.0,0.0,0.0,0.0,0.0,0.0,0.0,0.0,0.0,0.0,0.0,0.0,0.0,0.0,0.0,0.0,0.0,0.0,0.0,0.0,0.0,0.0,0.0,0.0,0.0,0.0,0.0,0.0,0.0,0.0,0.0,0.0,0.0,0.0,0.0,0.0,0.0,0.0,0.0,0.0,0.0,0.0,0.0,0.0,0.0,0.0,0.0,0.0,0.0,0.0,0.0,0.0,0.0,0.0,0.0,0.0,0.0,0.0,0.0,0.0,0.0,0.0,0.0,0.0,0.0,0.0,0.0,0.0,0.0,0.0,0.0,0.0,0.0,0.0,0.0,0.0,0.0,0.0,0.0,0.0,0.0,0.0,0.0,0.0,0.0,0.0,0.0,0.0,0.0,0.0,0.0,0.0,0.0,0.0,0.0,0.0,0.0,0.0,0.0,0.0,0.0,0.0,0.0,0.0,0.0,0.0,0.0,0.0,0.0,0.0,0.0,0.0,0.0,0.0,0.0,0.0,0.0,0.0,0.0,0.0,0.0,0.0,0.0,0.0,0.0,0.0,0.0,0.0,0.0,0.0,0.0,0.0,0.0,0.0,0.0,0.0,0.0,0.0,0.0,0.0,0.0,0.0,0.0,0.0,0.0,0.0,0.0,0.0,0.0,0.0,0.0,0.0,0.0,0.0,0.0,0.0,0.0,0.0,0.0,0.0,0.0,0.0,0.0,0.0,0.0,0.0,0.0,0.0,0.0,0.0,0.0,0.0,0.0,0.0,0.0,0.0,0.0,0.0,0.0,0.0,0.0,0.0,0.0,0.0,0.0,0.0,0.0,0.0,0.0,0.0,0.0,0.0,0.0,0.0,0.0,0.0,0.0,0.0,0.0,0.0,0.0,0.0,0.0,0.0,0.0,0.0,0.0,0.0,0.0,0.0,0.0,0.0,0.0,0.0,0.0,0.0,0.0,0.0,0.0,0.0,0.0,0.0,0.0,0.0,0.0,0.0,0.0,0.0,0.0,0.0,0.0,0.0,0.0,0.0,0.0,0.0,0.0,0.0,0.0,0.0,0.0,0.0,0.0,0.0,0.0,0.0,0.0,0.0,0.0,0.0,0.0,0.0,0.0,0.0,0.0,0.0,0.0,0.0,0.0,0.0,0.0,0.0,0.0,0.0,0.0,0.0,0.0,0.0,0.0,0.0,0.0,0.0,0.0,0.0,0.0,0.0,0.0,0.0,0.0,0.0,0.0,0.0,0.0,0.0,0.0,0.0,0.0,0.0,0.0,0.0,0.0,0.0,0.0,0.0,0.0,0.0,0.0,0.0,0.0,0.0,0.0,0.0,0.0,0.0,0.0,0.0,0.0,0.0,0.0,0.0,0.0,0.0,0.0,0.0,0.0,0.0,0.0,0.0,0.0,0.0,0.0,0.0,0.0,0.0,0.0,0.0,0.0,0.0,0.0,0.0,0.0,0.0,0.0,0.0,0.0,0.0,0.0,0.0,0.0,0.0,0.0,0.0,0.0,0.0,0.0,0.0,0.0,0.0,0.0,0.0,0.0,0.0,0.0,0.0,0.0,0.0,0.0,0.0,0.0,0.0,0.0,0.0,0.0,0.0,-0.9388,0.0,0.0,0.0,0.0,0.0,0.0,0.0,0.0,0.0,0.0,0.0,0.0,0.0,0.0,0.0,0.0,0.0,0.0,0.0,0.0,0.0,0.0,0.0,0.0,0.0,0.0,0.0,0.0,0.0,0.0,0.0,0.0,0.0,0.0,0.0,0.0,0.0,0.0,0.0,0.0,0.0,0.0,0.0,0.0,0.0,0.0,0.0,0.0,0.0,0.0,0.0,0.0,0.0,0.0,0.0,0.0,0.0,0.0,0.0,0.0,0.0,0.0,0.0,0.0,0.0,0.0,0.0,0.0,0.0,0.0,0.0,0.0,0.0,0.0,0.0,0.0,0.0,0.0,0.0,0.0,0.0,0.0,0.0,0.0,0.0,0.0,0.0,0.0,0.0,0.0,0.0,0.0,0.0,0.0,0.0,0.0,0.0,0.0,0.0,0.0,0.0,0.0,0.0,0.0,0.0,0.0,0.0,0.0,0.0,0.0,-0.9835,-0.9822,-0.9822,-0.968,-0.9388,0.0,0.0,0.0,0.0,0.0,0.0,0.0,0.0,0.0,0.0,0.0,0.0,0.0,0.0,0.0,0.0,0.0,0.0,0.0,0.0,0.0,0.0,0.0,0.0,0.0,0.0,0.0,0.0,0.0,0.0,0.0,0.0,0.0,0.0,0.0,0.0,0.0,0.0,0.0,0.0,0.0,0.0,0.0,0.0,0.0,0.0,0.0,0.0,0.0,0.0,0.0,0.0,0.0,0.0,0.0,0.0,0.0,0.0,0.0,0.0,0.0,0.0,0.0,0.0,0.0,0.0,0.0,0.0,0.0,0.0,0.0,0.0,0.0,0.0,0.0,0.0,0.0,0.0,0.0,0.0,0.0,0.0,0.0,0.0,0.0,0.0,0.0,0.0,0.0,0.0,0.0,0.0,0.0,0.0,0.0,0.0,0.0,0.0,0.0,0.0,0.0,0.0,0.0,0.0,0.0,0.0,0.0,0.0,0.0,0.0,0.0,0.0,-1.0005,-0.9849,-0.949,0.0,0.0,0.0,0.0,0.0,0.0,0.0,0.0,0.0,0.0,0.0,0.0,0.0,0.0,0.0,0.0,0.0,0.0,0.0,0.0,0.0,0.0,0.0,0.0,0.0,0.0,0.0,0.0,0.0,0.0,0.0,0.0,0.0,0.0,0.0,0.0,0.0,0.0,0.0,0.0,0.0,0.0,0.0,0.0,0.0,0.0,0.0,0.0,0.0,0.0,0.0,0.0,0.0,0.0,0.0,0.0,0.0,0.0,0.0,0.0,0.0,0.0,0.0,0.0,0.0,0.0,0.0,0.0,0.0,0.0,0.0,0.0,0.0,0.0,0.0,0.0,0.0,0.0,0.0,0.0,0.0,0.0,0.0,0.0,0.0,0.0,0.0,0.0,0.0,0.0,0.0,0.0,0.0,0.0,0.0,0.0,0.0,0.0,0.0,0.0,0.0,0.0,0.0,0.0,0.0,0.0,0.0,0.0,0.0,0.0,-1.0154,-1.0426,-1.0555,0.0,-0.9822,0.0,0.0,0.0,0.0,0.0,0.0,0.0,0.0,0.0,0.0,0.0,0.0,0.0,0.0,0.0,0.0,0.0,0.0,0.0,0.0,0.0,0.0,0.0,0.0,0.0,0.0,0.0,0.0,0.0,0.0,0.0,0.0,0.0,0.0,0.0,0.0,0.0,0.0,0.0,0.0,0.0,0.0,0.0,0.0,0.0,0.0,0.0,0.0,0.0,0.0,0.0,0.0,0.0,0.0,0.0,0.0,0.0,0.0,0.0,0.0,0.0,0.0,0.0,0.0,0.0,0.0,0.0,0.0,0.0,0.0,0.0,0.0,0.0,0.0,0.0,0.0,0.0,0.0,0.0,0.0,0.0,0.0,0.0,0.0,0.0,0.0,0.0,0.0,0.0,0.0,0.0,0.0,0.0,0.0,0.0,0.0,0.0,0.0,0.0,0.0,0.0,0.0,0.0,0.0,0.0,0.0,0.0,0.0,0.0,0.0,-1.0365,-1.0487,-1.0297,-1.0032,0.0,0.0,0.0,0.0,0.0,0.0,0.0,0.0,0.0,0.0,0.0,0.0,0.0,0.0,0.0,0.0,0.0,0.0,0.0,0.0,0.0,0.0,0.0,0.0,0.0,0.0,0.0,0.0,0.0,0.0,0.0,0.0,0.0,0.0,0.0,0.0,0.0,0.0,0.0,0.0,0.0,0.0,0.0,0.0,0.0,0.0,0.0,0.0,0.0,0.0,0.0,0.0,0.0,0.0,0.0,0.0,0.0,0.0,0.0,0.0,0.0,0.0,0.0,0.0,0.0,0.0,0.0,0.0,0.0,0.0,0.0,0.0,0.0,0.0,0.0,0.0,0.0,0.0,0.0,0.0,0.0,0.0,0.0,0.0,0.0,0.0,0.0,0.0,0.0,0.0,0.0,0.0,0.0,0.0,0.0,0.0,0.0,0.0,0.0,0.0,0.0,0.0,0.0,0.0,0.0,0.0,0.0,0.0,0.0,0.0,-1.0371,-1.0527,-1.0595,-1.0304,-0.9951,-0.9557,0.0,0.0,0.0,0.0,0.0,0.0,0.0,0.0,0.0,0.0,0.0,0.0,0.0,0.0,0.0,0.0,0.0,0.0,0.0,0.0,0.0,0.0,0.0,0.0,0.0,0.0,0.0,0.0,0.0,0.0,0.0,0.0,0.0,0.0,0.0,0.0,0.0,0.0,0.0,0.0,0.0,0.0,0.0,0.0,0.0,0.0,0.0,0.0,0.0,0.0,0.0,0.0,0.0,0.0,0.0,0.0,0.0,0.0,0.0,0.0,0.0,0.0,0.0,0.0,0.0,0.0,0.0,0.0,0.0,0.0,0.0,0.0,0.0,0.0,0.0,0.0,0.0,0.0,0.0,0.0,0.0,0.0,0.0,0.0,0.0,0.0,0.0,0.0,0.0,0.0,0.0,0.0,0.0,0.0,0.0,0.0,0.0,0.0,0.0,0.0,0.0,0.0,0.0,0.0,0.0,0.0,0.0,0.0,-1.0759,-1.0622,-1.0629,-1.0853,-1.0833,-1.0426,0.0,0.0,0.0,0.0,0.0,0.0,0.0,0.0,0.0,0.0,0.0,0.0,0.0,0.0,0.0,0.0,0.0,0.0,0.0,0.0,0.0,0.0,0.0,0.0,0.0,0.0,0.0,0.0,0.0,0.0,0.0,0.0,0.0,0.0,0.0,0.0,0.0,0.0,0.0,0.0,0.0,0.0,0.0,0.0,0.0,0.0,0.0,0.0,0.0,0.0,0.0,0.0,0.0,0.0,0.0,0.0,0.0,0.0,0.0,0.0,0.0,0.0,0.0,0.0,0.0,0.0,0.0,0.0,0.0,0.0,0.0,0.0,0.0,0.0,0.0,0.0,0.0,0.0,0.0,0.0,0.0,0.0,0.0,0.0,0.0,0.0,0.0,0.0,0.0,0.0,0.0,0.0,0.0,0.0,0.0,0.0,0.0,0.0,0.0,0.0,0.0,0.0,0.0,0.0,0.0,0.0,0.0,0.0,0.0,-1.008,-1.0351,-1.0778,-1.1321,-1.0548,-0.9998,0.0,0.0,0.0,0.0,0.0,0.0,0.0,0.0,0.0,0.0,0.0,0.0,0.0,0.0,0.0,0.0,0.0,0.0,0.0,0.0,0.0,0.0,0.0,0.0,0.0,0.0,0.0,0.0,0.0,0.0,0.0,0.0,0.0,0.0,0.0,0.0,0.0,0.0,0.0,0.0,0.0,0.0,0.0,0.0,0.0,0.0,0.0,0.0,0.0,0.0,0.0,0.0,0.0,0.0,0.0,0.0,0.0,0.0,0.0,0.0,0.0,0.0,0.0,0.0,0.0,0.0,0.0,0.0,0.0,0.0,0.0,0.0,0.0,0.0,0.0,0.0,0.0,0.0,0.0,0.0,0.0,0.0,0.0,0.0,0.0,0.0,0.0,0.0,0.0,0.0,0.0,0.0,0.0,0.0,0.0,0.0,0.0,0.0,0.0,0.0,0.0,0.0,0.0,0.0,0.0,0.0,0.0,0.0,0.0,-0.9964,0.0,-1.0941,-1.1199,-1.0331,-0.9741,0.0,0.0,0.0,0.0,0.0,0.0,0.0,0.0,0.0,0.0,0.0,0.0,0.0,0.0,0.0,0.0,0.0,0.0,0.0,0.0,0.0,0.0,0.0,0.0,0.0,0.0,0.0,0.0,0.0,0.0,0.0,0.0,0.0,0.0,0.0,0.0,0.0,0.0,0.0,0.0,0.0,0.0,0.0,0.0,0.0,0.0,0.0,0.0,0.0,0.0,0.0,0.0,0.0,0.0,0.0,0.0,0.0,0.0,0.0,0.0,0.0,0.0,0.0,0.0,0.0,0.0,0.0,0.0,0.0,0.0,0.0,0.0,0.0,0.0,0.0,0.0,0.0,0.0,0.0,0.0,0.0,0.0,0.0,0.0,0.0,0.0,0.0,0.0,0.0,0.0,0.0,0.0,0.0,0.0,0.0,0.0,0.0,0.0,0.0,0.0,0.0,0.0,0.0,0.0,0.0,0.0,0.0,0.0,-0.9726,-1.0656,-1.1118,-1.109,-1.0534,-1.0351,-0.9713,0.0,0.0,0.0,0.0,0.0,0.0,0.0,0.0,0.0,0.0,0.0,0.0,0.0,0.0,0.0,0.0,0.0,0.0,0.0,0.0,0.0,0.0,0.0,0.0,0.0,0.0,0.0,0.0,0.0,0.0,0.0,0.0,0.0,0.0,0.0,0.0,0.0,0.0,0.0,0.0,0.0,0.0,0.0,0.0,0.0,0.0,0.0,0.0,0.0,0.0,0.0,0.0,0.0,0.0,0.0,0.0,0.0,0.0,0.0,0.0,0.0,0.0,0.0,0.0,0.0,0.0,0.0,0.0,0.0,0.0,0.0,0.0,0.0,0.0,0.0,0.0,0.0,0.0,0.0,0.0,0.0,0.0,0.0,0.0,0.0,0.0,0.0,0.0,0.0,0.0,0.0,0.0,0.0,0.0,0.0,0.0,0.0,0.0,0.0,0.0,0.0,0.0,0.0,0.0,0.0,0.0,0.0,0.0,0.0,-1.01,-1.0643,-1.1036,-1.1226,-1.0324,-0.9788,0.0,0.0,0.0,0.0,0.0,0.0,0.0,0.0,0.0,0.0,0.0,0.0,0.0,0.0,0.0,0.0,0.0,0.0,0.0,0.0,0.0,0.0,0.0,0.0,0.0,0.0,0.0,0.0,0.0,0.0,0.0,0.0,0.0,0.0,0.0,0.0,0.0,0.0,0.0,0.0,0.0,0.0,0.0,0.0,0.0,0.0,0.0,0.0,0.0,0.0,0.0,0.0,0.0,0.0,0.0,0.0,0.0,0.0,0.0,0.0,0.0,0.0,0.0,0.0,0.0,0.0,0.0,0.0,0.0,0.0,0.0,0.0,0.0,0.0,0.0,0.0,0.0,0.0,0.0,0.0,0.0,0.0,0.0,0.0,0.0,0.0,0.0,0.0,0.0,0.0,0.0,0.0,0.0,0.0,0.0,0.0,0.0,0.0,0.0,0.0,0.0,0.0,0.0,0.0,0.0,0.0,0.0,0.0,0.0,-1.0344,-1.0853,-1.1206,-1.1291,-1.0385,-0.9829,-0.9761,0.0,0.0,0.0,0.0,0.0,0.0,0.0,0.0,0.0,0.0,0.0,0.0,0.0,0.0,0.0,0.0,0.0,0.0,0.0,0.0,0.0,0.0,0.0,0.0,0.0,0.0,0.0,0.0,0.0,0.0,0.0,0.0,0.0,0.0,0.0,0.0,0.0,0.0,0.0,0.0,0.0,0.0,0.0,0.0,0.0,0.0,0.0,0.0,0.0,0.0,0.0,0.0,0.0,0.0,0.0,0.0,0.0,0.0,0.0,0.0,0.0,0.0,0.0,0.0,0.0,0.0,0.0,0.0,0.0,0.0,0.0,0.0,0.0,0.0,0.0,0.0,0.0,0.0,0.0,0.0,0.0,0.0,0.0,0.0,0.0,0.0,0.0,0.0,0.0,0.0,0.0,0.0,0.0,0.0,0.0,0.0,0.0,0.0,0.0,0.0,0.0,0.0,0.0,0.0,0.0,0.0,0.0,0.0,-1.1179,-1.164,-1.1619,-1.1008,-1.0582,-0.991,0.0,0.0,0.0,0.0,0.0,0.0,0.0,0.0,0.0,0.0,0.0,0.0,0.0,0.0,0.0,0.0,0.0,0.0,0.0,0.0,0.0,0.0,0.0,0.0,0.0,0.0,0.0,0.0,0.0,0.0,0.0,0.0,0.0,0.0,0.0,0.0,0.0,0.0,0.0,0.0,0.0,0.0,0.0,0.0,0.0,0.0,0.0,0.0,0.0,0.0,0.0,0.0,0.0,0.0,0.0,0.0,0.0,0.0,0.0,0.0,0.0,0.0,0.0,0.0,0.0,0.0,0.0,0.0,0.0,0.0,0.0,0.0,0.0,0.0,0.0,0.0,0.0,0.0,0.0,0.0,0.0,0.0,0.0,0.0,0.0,0.0,0.0,0.0,0.0,0.0,0.0,0.0,0.0,0.0,0.0,0.0,0.0,0.0,0.0,0.0,0.0,0.0,0.0,0.0,0.0,0.0,0.0,0.0,0.0,-1.1504,-1.2149,-1.2366,-1.2088,-1.124,-1.0507,0.0,0.0,0.0,0.0,0.0,0.0,0.0,0.0,0.0,0.0,0.0,0.0,0.0,0.0,0.0,0.0,0.0,0.0,0.0,0.0,0.0,0.0,0.0,0.0,0.0,0.0,0.0,0.0,0.0,0.0,0.0,0.0,0.0,0.0,0.0,0.0,0.0,0.0,0.0,0.0,0.0,0.0,0.0,0.0,0.0,0.0,0.0,0.0,0.0,0.0,0.0,0.0,0.0,0.0,0.0,0.0,0.0,0.0,0.0,0.0,0.0,0.0,0.0,0.0,0.0,0.0,0.0,0.0,0.0,0.0,0.0,0.0,0.0,0.0,0.0,0.0,0.0,0.0,0.0,0.0,0.0,0.0,0.0,0.0,0.0,0.0,0.0,0.0,0.0,0.0,0.0,0.0,0.0,0.0,0.0,0.0,0.0,0.0,0.0,0.0,0.0,0.0,0.0,0.0,0.0,0.0,0.0,0.0,-1.1321,-1.1891,-1.2569,-1.2813,-1.2603,-1.1769,-1.0962,0.0,0.0,0.0,0.0,0.0,0.0,0.0,0.0,0.0,0.0,0.0,0.0,0.0,0.0,0.0,0.0,0.0,0.0,0.0,0.0,0.0,0.0,0.0,0.0,0.0,0.0,0.0,0.0,0.0,0.0,0.0,0.0,0.0,0.0,0.0,0.0,0.0,0.0,0.0,0.0,0.0,0.0,0.0,0.0,0.0,0.0,0.0,0.0,0.0,0.0,0.0,0.0,0.0,0.0,0.0,0.0,0.0,0.0,0.0,0.0,0.0,0.0,0.0,0.0,0.0,0.0,0.0,0.0,0.0,0.0,0.0,0.0,0.0,0.0,0.0,0.0,0.0,0.0,0.0,0.0,0.0,0.0,0.0,0.0,0.0,0.0,0.0,0.0,0.0,0.0,0.0,0.0,0.0,0.0,0.0,0.0,0.0,0.0,0.0,0.0,0.0,0.0,0.0,0.0,0.0,0.0,0.0,0.0,-1.1552,-1.2257,-1.2861,-1.3037,-1.2752,-1.2155,-1.128,0.0,0.0,0.0,0.0,0.0,0.0,0.0,0.0,0.0,0.0,0.0,0.0,0.0,0.0,0.0,0.0,0.0,0.0,0.0,0.0,0.0,0.0,0.0,0.0,0.0,0.0,0.0,0.0,0.0,0.0,0.0,0.0,0.0,0.0,0.0,0.0,0.0,0.0,0.0,0.0,0.0,0.0,0.0,0.0,0.0,0.0,0.0,0.0,0.0,0.0,0.0,0.0,0.0,0.0,0.0,0.0,0.0,0.0,0.0,0.0,0.0,0.0,0.0,0.0,0.0,0.0,0.0,0.0,0.0,0.0,0.0,0.0,0.0,0.0,0.0,0.0,0.0,0.0,0.0,0.0,0.0,0.0,0.0,0.0,0.0,0.0,0.0,0.0,0.0,0.0,0.0,0.0,0.0,0.0,0.0,0.0,0.0,0.0,0.0,0.0,0.0,0.0,0.0,0.0,0.0,0.0,0.0,0.0,-1.1714,-1.2108,-1.2807,-1.3091,-1.2915,-1.221,-1.1328,0.0,0.0,0.0,0.0,0.0,0.0,0.0,0.0,0.0,0.0,0.0,0.0,0.0,0.0,0.0,0.0,0.0,0.0,0.0,0.0,0.0,0.0,0.0,0.0,0.0,0.0,0.0,0.0,0.0,0.0,0.0,0.0,0.0,0.0,0.0,0.0,0.0,0.0,0.0,0.0,0.0,0.0,0.0,0.0,0.0,0.0,0.0,0.0,-0.852,0.0,0.0,0.0,0.0,0.0,0.0,0.0,0.0,0.0,0.0,0.0,0.0,0.0,0.0,0.0,0.0,0.0,0.0,0.0,0.0,0.0,0.0,0.0,0.0,0.0,0.0,0.0,0.0,0.0,0.0,0.0,0.0,0.0,0.0,0.0,0.0,0.0,0.0,0.0,0.0,0.0,0.0,0.0,0.0,0.0,0.0,0.0,0.0,0.0,0.0,0.0,0.0,0.0,0.0,0.0,0.0,0.0,0.0,0.0,-1.1796,-1.2169,-1.2759,-1.3003,-1.2834,-1.2189,-1.1409,0.0,0.0,0.0,0.0,0.0,0.0,0.0,0.0,0.0,0.0,0.0,0.0,0.0,0.0,0.0,0.0,0.0,0.0,0.0,0.0,0.0,0.0,0.0,0.0,0.0,0.0,0.0,0.0,0.0,0.0,0.0,0.0,0.0,0.0,0.0,0.0,0.0,0.0,0.0,0.0,0.0,0.0,0.0,0.0,0.0,0.0,0.0,0.0,0.0,0.0,0.0,0.0,0.0,0.0,0.0,0.0,0.0,0.0,0.0,0.0,0.0,0.0,0.0,0.0,0.0,0.0,0.0,0.0,0.0,0.0,0.0,0.0,0.0,0.0,0.0,0.0,0.0,0.0,0.0,0.0,0.0,0.0,0.0,0.0,0.0,0.0,0.0,0.0,0.0,0.0,0.0,0.0,0.0,0.0,0.0,0.0,0.0,0.0,0.0,0.0,0.0,0.0,0.0,0.0,0.0,0.0,0.0,-1.0975,-1.1769,-1.2284,-1.2705,-1.2847,-1.2691,-1.2135,-1.1399,-1.0711,0.0,0.0,0.0,0.0,0.0,0.0,0.0,0.0,0.0,0.0,0.0,0.0,0.0,0.0,0.0,0.0,0.0,0.0,0.0,0.0,0.0,0.0,0.0,0.0,0.0,0.0,0.0,0.0,0.0,0.0,0.0,0.0,0.0,0.0,0.0,0.0,0.0,0.0,-0.8083,-0.8526,0.0,0.0,0.0,0.0,0.0,0.0,0.0,0.0,-0.8601,0.0,0.0,0.0,0.0,0.0,0.0,0.0,0.0,0.0,0.0,0.0,0.0,0.0,0.0,0.0,0.0,0.0,0.0,0.0,0.0,0.0,0.0,0.0,0.0,0.0,0.0,0.0,0.0,0.0,0.0,0.0,0.0,0.0,0.0,0.0,0.0,0.0,0.0,0.0,0.0,0.0,0.0,0.0,0.0,0.0,0.0,0.0,0.0,0.0,0.0,0.0,0.0,0.0,0.0,0.0,0.0,-1.0365,-1.0833,-1.1457,-1.2271,-1.2603,-1.2691,-1.2535,-1.2081,-1.1423,-1.0561,0.0,0.0,0.0,0.0,0.0,0.0,0.0,0.0,0.0,0.0,0.0,0.0,0.0,0.0,0.0,0.0,0.0,0.0,0.0,0.0,0.0,0.0,0.0,0.0,0.0,0.0,0.0,0.0,0.0,0.0,0.0,0.0,0.0,0.0,0.0,0.0,0.0,0.0,0.0,-0.8988,-0.9198,0.0,0.0,0.0,0.0,0.0,0.0,0.0,0.0,-0.8989,0.0,0.0,0.0,0.0,0.0,0.0,0.0,0.0,0.0,0.0,0.0,0.0,0.0,0.0,0.0,0.0,0.0,0.0,0.0,0.0,0.0,0.0,0.0,0.0,0.0,0.0,0.0,0.0,0.0,0.0,0.0,0.0,0.0,0.0,0.0,0.0,0.0,0.0,0.0,0.0,0.0,0.0,0.0,0.0,0.0,0.0,0.0,0.0,0.0,0.0,0.0,0.0,0.0,0.0,0.0,-1.0141,-1.09,-1.1579,-1.2155,-1.2386,-1.2467,-1.2379,-1.1653,-1.0975,0.0,0.0,0.0,0.0,0.0,0.0,0.0,0.0,0.0,0.0,0.0,0.0,0.0,0.0,0.0,0.0,0.0,0.0,0.0,0.0,0.0,0.0,0.0,0.0,0.0,0.0,0.0,0.0,0.0,0.0,0.0,0.0,0.0,0.0,0.0,0.0,0.0,0.0,0.0,0.0,-0.9083,-0.9266,-0.9286,0.0,0.0,0.0,0.0,0.0,0.0,-0.8737,-0.8807,0.0,0.0,0.0,0.0,0.0,0.0,0.0,0.0,0.0,0.0,0.0,0.0,0.0,0.0,0.0,0.0,0.0,0.0,0.0,0.0,0.0,0.0,0.0,0.0,0.0,0.0,0.0,0.0,0.0,0.0,0.0,0.0,0.0,0.0,0.0,0.0,0.0,0.0,0.0,0.0,0.0,0.0,0.0,0.0,0.0,0.0,0.0,0.0,0.0,0.0,0.0,0.0,0.0,0.0,0.0,-0.9842,-1.0887,-1.1626,-1.1999,-1.2162,-1.2216,-1.2142,-1.1307,-1.0649,0.0,0.0,0.0,0.0,0.0,0.0,0.0,0.0,0.0,0.0,0.0,0.0,0.0,0.0,0.0,0.0,0.0,0.0,0.0,0.0,0.0,0.0,0.0,0.0,0.0,0.0,0.0,0.0,0.0,0.0,0.0,0.0,0.0,0.0,0.0,0.0,0.0,0.0,0.0,0.0,0.0,-0.9388,-0.9537,-0.951,0.0,0.0,0.0,0.0,-0.9225,-0.9049,0.0,0.0,0.0,0.0,0.0,0.0,0.0,0.0,0.0,0.0,0.0,0.0,0.0,0.0,0.0,0.0,0.0,0.0,0.0,0.0,0.0,0.0,0.0,0.0,0.0,0.0,0.0,0.0,0.0,0.0,0.0,0.0,0.0,0.0,0.0,0.0,0.0,0.0,0.0,0.0,0.0,0.0,0.0,0.0,0.0,0.0,0.0,0.0,0.0,0.0,0.0,0.0,0.0,0.0,0.0,0.0,-0.9815,-1.048,-1.1096,-1.1823,-1.2006,-1.1965,-1.1708,-1.145,-1.086,0.0,0.0,0.0,0.0,0.0,0.0,0.0,0.0,0.0,0.0,0.0,0.0,0.0,0.0,0.0,0.0,0.0,0.0,0.0,0.0,0.0,0.0,0.0,0.0,0.0,0.0,0.0,0.0,0.0,0.0,0.0,0.0,0.0,0.0,0.0,0.0,0.0,0.0,0.0,0.0,0.0,-0.9815,-0.9456,-0.9612,-0.9666,0.0,0.0,-0.9388,-0.953,-0.9523,0.0,0.0,0.0,0.0,0.0,0.0,0.0,0.0,0.0,0.0,0.0,0.0,0.0,0.0,0.0,0.0,0.0,0.0,0.0,0.0,0.0,0.0,0.0,0.0,0.0,0.0,0.0,0.0,0.0,0.0,0.0,0.0,0.0,0.0,0.0,0.0,0.0,0.0,0.0,0.0,0.0,0.0,0.0,0.0,0.0,0.0,0.0,0.0,0.0,0.0,0.0,0.0,0.0,0.0,0.0,-0.9245,-0.9829,-1.0663,-1.1341,-1.1809,-1.1898,-1.183,-1.1619,-1.1063,-1.0426,0.0,0.0,0.0,0.0,0.0,0.0,0.0,0.0,0.0,0.0,0.0,0.0,0.0,0.0,0.0,0.0,0.0,0.0,0.0,0.0,0.0,0.0,0.0,0.0,0.0,0.0,0.0,0.0,0.0,0.0,0.0,0.0,0.0,0.0,0.0,0.0,0.0,0.0,0.0,0.0,0.0,0.0,-0.9747,-0.9869,0.0,0.0,0.0,-0.9686,-0.9836,0.0,0.0,0.0,0.0,0.0,0.0,0.0,0.0,0.0,0.0,0.0,0.0,0.0,0.0,0.0,0.0,0.0,0.0,0.0,0.0,0.0,0.0,0.0,0.0,0.0,0.0,0.0,0.0,0.0,0.0,0.0,0.0,0.0,0.0,0.0,0.0,0.0,0.0,0.0,0.0,0.0,0.0,0.0,0.0,0.0,0.0,0.0,0.0,0.0,0.0,0.0,0.0,0.0,0.0,0.0,0.0,0.0,-0.9774,-1.0799,-1.1457,-1.1708,-1.1721,-1.1653,-1.1497,-1.0778,0.0,0.0,0.0,0.0,0.0,0.0,0.0,0.0,0.0,0.0,0.0,0.0,0.0,0.0,0.0,0.0,0.0,0.0,0.0,0.0,0.0,0.0,0.0,0.0,0.0,0.0,0.0,-0.6107,0.0,0.0,0.0,0.0,0.0,0.0,0.0,0.0,0.0,0.0,0.0,0.0,0.0,0.0,-0.9571,-0.9883,-1.0086,-1.0161,0.0,0.0,-1.0032,-1.021,-1.0012,-0.9734,0.0,0.0,0.0,0.0,0.0,0.0,0.0,0.0,0.0,0.0,0.0,0.0,0.0,0.0,0.0,0.0,0.0,0.0,0.0,0.0,0.0,0.0,0.0,0.0,0.0,0.0,0.0,0.0,0.0,0.0,0.0,0.0,0.0,0.0,0.0,0.0,0.0,0.0,0.0,0.0,0.0,0.0,0.0,0.0,0.0,0.0,0.0,0.0,0.0,0.0,0.0,0.0,0.0,0.0,-0.9306,-0.9646,-1.0649,-1.126,-1.1416,-1.1423,-1.1348,-1.1192,-1.0867,-1.0283,0.0,0.0,0.0,0.0,0.0,0.0,0.0,0.0,0.0,0.0,0.0,0.0,0.0,0.0,0.0,0.0,0.0,0.0,0.0,0.0,0.0,0.0,0.0,0.0,0.0,0.0,0.0,0.0,0.0,0.0,0.0,0.0,0.0,0.0,0.0,0.0,0.0,0.0,0.0,0.0,0.0,-0.9652,-0.9754,-1.0195,-1.046,0.0,0.0,-1.0453,-1.046,-1.0561,-1.0358,-0.9503,0.0,0.0,0.0,0.0,0.0,0.0,0.0,0.0,0.0,0.0,0.0,0.0,0.0,0.0,0.0,0.0,0.0,0.0,0.0,0.0,0.0,0.0,0.0,0.0,0.0,0.0,0.0,0.0,0.0,0.0,0.0,0.0,0.0,0.0,0.0,0.0,0.0,0.0,0.0,0.0,0.0,0.0,0.0,0.0,0.0,0.0,0.0,0.0,0.0,0.0,0.0,0.0,0.0,-0.9218,-0.9612,-1.0548,-1.1104,-1.1246,-1.1246,-1.1179,-1.1036,-1.0738,-1.0202,0.0,0.0,0.0,0.0,0.0,0.0,0.0,0.0,0.0,0.0,0.0,0.0,0.0,0.0,0.0,0.0,0.0,0.0,0.0,0.0,0.0,0.0,0.0,0.0,0.0,0.0,0.0,0.0,-0.6702,-0.6736,-0.6869,0.0,0.0,0.0,0.0,0.0,0.0,0.0,0.0,0.0,0.0,-0.9761,-1.0175,-1.0385,0.0,0.0,-1.0555,-1.0521,-1.0616,-1.0381,-1.0038,-0.9483,-0.915,0.0,0.0,0.0,0.0,0.0,0.0,0.0,0.0,0.0,0.0,0.0,0.0,0.0,0.0,0.0,0.0,0.0,0.0,0.0,0.0,0.0,0.0,0.0,0.0,0.0,0.0,0.0,0.0,0.0,0.0,0.0,0.0,0.0,0.0,0.0,0.0,0.0,0.0,0.0,0.0,0.0,0.0,0.0,0.0,0.0,0.0,0.0,0.0,0.0,0.0,0.0,0.0,-0.908,-0.9544,-1.0402,-1.0927,-1.1097,-1.1097,-1.105,-1.088,-1.0656,-1.0161,0.0,0.0,0.0,0.0,0.0,0.0,0.0,0.0,0.0,0.0,0.0,0.0,0.0,0.0,0.0,0.0,0.0,0.0,0.0,0.0,0.0,0.0,0.0,0.0,0.0,0.0,0.0,0.0,-0.6889,-0.6869,-0.6865,0.0,0.0,0.0,0.0,0.0,0.0,0.0,0.0,0.0,0.0,-0.9869,-1.0412,-1.0527,-1.0602,-1.0704,-1.0588,-1.0527,-1.0636,-1.0385,-1.0012,-0.953,0.0,0.0,0.0,0.0,0.0,0.0,0.0,0.0,0.0,0.0,0.0,0.0,0.0,0.0,0.0,0.0,0.0,0.0,0.0,0.0,0.0,0.0,0.0,0.0,0.0,0.0,0.0,0.0,0.0,0.0,-0.7988,0.0,0.0,0.0,0.0,0.0,0.0,0.0,0.0,0.0,0.0,0.0,0.0,0.0,0.0,0.0,0.0,0.0,0.0,0.0,0.0,0.0,0.0,-0.9089,-0.9395,-1.0412,-1.088,-1.088,-1.0887,-1.088,-1.0867,-1.0649,-1.0209,-0.9612,0.0,0.0,0.0,0.0,0.0,0.0,0.0,0.0,0.0,0.0,0.0,0.0,0.0,0.0,0.0,0.0,0.0,0.0,0.0,0.0,0.0,0.0,0.0,0.0,0.0,0.0,-0.6849,-0.6883,-0.6822,0.0,0.0,0.0,0.0,0.0,0.0,0.0,0.0,0.0,0.0,-0.9537,-0.9985,-1.0426,-1.0616,-1.0711,-1.0717,-1.0595,-1.0493,-1.0507,-1.048,-1.0283,0.0,0.0,0.0,0.0,0.0,0.0,0.0,0.0,0.0,0.0,0.0,0.0,0.0,0.0,0.0,0.0,0.0,0.0,0.0,0.0,0.0,0.0,0.0,0.0,0.0,0.0,0.0,-0.913,-0.8914,0.0,0.0,0.0,0.0,0.0,0.0,0.0,0.0,0.0,0.0,0.0,-0.9836,-1.0025,0.0,0.0,0.0,0.0,0.0,0.0,0.0,0.0,0.0,0.0,0.0,0.0,-0.9178,-0.9415,-1.0317,-1.0799,-1.0799,-1.0792,-1.0732,-1.0799,-1.0602,-1.0114,-0.9327,0.0,0.0,0.0,0.0,0.0,0.0,0.0,0.0,0.0,0.0,0.0,0.0,0.0,0.0,0.0,0.0,0.0,0.0,0.0,0.0,0.0,0.0,0.0,0.0,0.0,-0.6552,0.0,0.0,0.0,0.0,0.0,0.0,0.0,0.0,0.0,0.0,0.0,-0.8899,-0.9395,-0.9842,-1.0215,-1.046,-1.0622,-1.0717,0.0,0.0,0.0,0.0,0.0,0.0,0.0,0.0,0.0,0.0,0.0,0.0,0.0,0.0,-0.9544,-0.8648,-0.833,-0.8208,-0.8248,0.0,0.0,0.0,0.0,0.0,0.0,0.0,0.0,0.0,0.0,0.0,0.0,0.0,0.0,-0.9822,0.0,-0.9476,0.0,0.0,0.0,0.0,0.0,0.0,0.0,0.0,-1.031,-1.0534,-1.0446,-1.0636,-1.0548,0.0,-1.012,-0.9666,0.0,0.0,0.0,0.0,0.0,0.0,0.0,0.0,-0.9279,-0.9551,-1.0317,-1.0717,-1.0717,-1.0717,-1.0717,-1.0717,-1.0473,-1.0039,-0.9401,-0.8716,-0.8116,0.0,0.0,0.0,0.0,0.0,0.0,0.0,0.0,0.0,0.0,0.0,0.0,0.0,0.0,0.0,0.0,0.0,0.0,0.0,0.0,0.0,0.0,0.0,-0.6654,0.0,0.0,0.0,0.0,0.0,0.0,0.0,0.0,0.0,-0.8431,-0.8859,-0.934,-0.9781,-1.0141,-1.0405,-1.0548,0.0,0.0,0.0,0.0,0.0,0.0,0.0,-1.0188,-1.0141,-0.993,-0.9713,-0.9557,-0.9863,-1.0066,-0.9856,0.0,0.0,-0.9178,-0.8825,-0.8682,-0.8777,-0.875,-0.8798,-0.8845,-0.8906,-0.8947,0.0,0.0,0.0,0.0,0.0,0.0,0.0,0.0,-1.027,-1.0307,0.0,-1.0127,0.0,0.0,0.0,0.0,0.0,-0.9951,0.0,0.0,-1.0961,-1.1172,-1.1158,-1.1234,-1.1097,-1.09,-1.0873,-1.0563,-0.997,-0.9191,0.0,0.0,0.0,0.0,0.0,0.0,-0.9446,-0.9829,-1.0348,-1.0717,-1.0717,-1.0717,-1.0717,-1.0697,-1.0226,-0.9923,-0.9808,-0.9245,-0.8615,-0.8035,-0.7624,0.0,0.0,0.0,0.0,0.0,0.0,0.0,0.0,0.0,0.0,0.0,0.0,0.0,0.0,0.0,0.0,0.0,0.0,0.0,0.0,-0.6749,0.0,0.0,0.0,0.0,0.0,0.0,0.0,0.0,0.0,0.0,-0.8811,-0.9273,-0.9788,-1.0215,0.0,0.0,0.0,0.0,-1.0717,-1.0717,-1.0595,-1.0507,-1.05,-1.0493,-1.0446,-1.0317,0.0,0.0,-0.9924,-1.0093,-1.0209,-0.991,-1.0107,-1.0236,-1.0004,-0.9652,-0.9381,-0.9374,-0.9316,-0.9234,-0.9241,-0.9293,-0.9381,-1.2542,0.0,0.0,0.0,0.0,-1.1525,-1.1694,-1.1911,-1.1728,-1.1477,-1.1179,-1.09,0.0,0.0,0.0,0.0,0.0,0.0,-1.0656,-1.0772,-1.1151,-1.1321,-1.1335,-1.1436,-1.1409,-1.126,-1.1151,-1.09,-1.0521,-1.0059,-0.9334,-0.8377,0.0,0.0,0.0,0.0,-0.9747,-0.9936,-1.0473,-1.0717,-1.0717,-1.0717,-1.067,-1.0555,-1.0331,-1.0093,-0.9829,-0.9354,-0.8913,-0.8526,-0.7984,0.0,0.0,0.0,0.0,0.0,0.0,0.0,0.0,0.0,0.0,0.0,0.0,0.0,0.0,0.0,0.0,0.0,0.0,0.0,-0.6607,-0.6715,-0.6878,0.0,0.0,0.0,0.0,0.0,0.0,0.0,0.0,0.0,-0.9593,-0.991,-1.0134,0.0,0.0,-1.0629,-1.0568,-1.0649,-1.0717,-1.0717,0.0,0.0,0.0,-1.0561,-1.0514,-1.0582,-1.0629,-1.0609,-1.048,-1.0534,-1.0568,-1.0473,-1.0446,-1.0385,-1.0229,-0.9937,-0.9707,-0.9686,-0.9578,-0.9517,-0.9612,-0.9666,-0.9693,-1.3431,-1.2827,-1.2413,-1.2216,-1.2189,-1.2223,-1.2372,-1.2583,-1.2433,-1.2264,-1.2074,-1.1755,-1.1274,-1.069,-1.0399,0.0,0.0,0.0,-1.107,-1.1226,-1.1396,-1.1484,-1.1491,-1.1579,-1.1572,-1.1477,-1.1267,-1.107,-1.0887,-1.0602,-0.9998,-0.9137,0.0,0.0,-0.9035,-0.9612,-0.995,-1.0229,-1.0555,-1.0717,-1.0717,-1.0663,-1.0588,-1.0493,-1.0297,-1.0073,-0.9829,-0.9449,-0.9103,-0.8811,-0.8282,-0.7726,0.0,0.0,0.0,0.0,0.0,0.0,0.0,0.0,0.0,0.0,0.0,-0.6037,-0.5664,0.0,0.0,0.0,-0.6349,-0.6729,-0.7027,-0.7163,0.0,0.0,0.0,0.0,0.0,0.0,0.0,-0.9175,-0.9686,-1.0025,-1.0202,-1.0358,-1.0453,-1.0453,-1.0609,-1.0683,-1.0595,0.0,-1.0717,-1.0717,-1.0717,-1.0717,-1.0717,-1.0643,-1.0616,-1.0704,-1.0717,-1.0717,-1.0717,-1.0717,-1.0717,-1.0711,-1.0643,-1.0521,-1.0317,-1.0127,-0.9958,-0.9842,-0.9754,-0.9727,-0.9808,-0.9822,-0.9822,-1.4089,-1.4007,-1.3037,-1.2698,-1.2786,-1.2651,-1.2664,-1.2766,-1.2623,-1.2779,-1.3105,-1.2556,-1.2216,-1.202,-1.1335,0.0,-1.1423,-1.1423,-1.1491,-1.1619,-1.1626,-1.1633,-1.1619,-1.1619,-1.1619,-1.1613,-1.1307,-1.1234,-1.1145,-1.086,-1.0507,-1.0044,-0.9836,-0.9747,-0.9842,-0.9998,-1.0222,-1.0507,-1.0649,-1.0711,-1.0697,-1.0561,-1.0473,-1.0432,-1.0112,-0.9883,-0.9768,-0.9496,-0.9211,-0.8871,-0.8506,-0.8054,-0.7434,0.0,0.0,0.0,0.0,0.0,0.0,0.0,0.0,0.0,0.0,0.0,0.0,0.0,0.0,0.0,-0.6919,0.0,-0.7604,-0.7882,0.0,0.0,0.0,-0.8397,-0.8567,-0.9076,-0.953,-0.9822,0.0,0.0,-1.0507,0.0,-1.0717,-1.0717,-1.0717,-1.0717,-1.0717,-1.0717,-1.0717,-1.0717,-1.0717,-1.0717,-1.0717,-1.0711,-1.0711,-1.0717,-1.0717,-1.0717,-1.0717,-1.0717,-1.0717,-1.0717,-1.0711,-1.0616,-1.0331,-1.0256,-1.0168,-0.9876,-0.9815,-0.9815,-0.9822,-0.9822,-0.9822,-1.4251,-1.4217,-1.3851,-1.3587,-1.341,-1.3376,-1.3315,-1.3227,-1.3078,-1.301,-1.307,-1.2617,-1.2311,-1.2047,-1.1755,-1.1588,-1.1728,-1.1728,-1.1687,-1.1626,-1.1728,-1.1721,-1.1619,-1.1619,-1.1619,-1.1599,-1.1307,-1.1234,-1.122,-1.0867,-1.0663,-1.0561,-1.0493,-1.0304,-1.0081,-1.0256,-1.048,-1.0663,-1.0704,-1.0663,-1.0548,-1.0514,-1.0324,-0.9992,-0.9849,-0.97,-0.9327,-0.9144,-0.896,-0.8771,-0.8452,-0.8149,-0.7719,-0.7143,0.0,0.0,0.0,0.0,0.0,0.0,0.0,0.0,0.0,-0.6837,-0.6054,0.0,-0.7149,0.0,-0.7292,-0.7611,-0.7909,-0.7948,0.0,0.0,-0.8804,-0.8974,-0.9449,-0.9632,-0.9836,-1.0134,-1.0358,-1.0534,-1.0649,-1.0697,-1.0717,-1.0717,-1.0717,-1.0717,-1.0717,-1.0717,-1.0717,-1.0717,-1.0717,-1.0717,-1.0717,-1.0717,-1.0717,-1.0717,-1.0717,-1.0717,-1.0717,-1.0717,-1.0717,-1.0711,-1.0622,-1.0487,-1.031,-1.0188,-1.0046,-0.9869,-0.9822,-0.9822,-0.9822,-0.9822,-0.9822,-1.4299,-1.4292,-1.4211,-1.4,-1.3715,-1.3654,-1.3539,-1.3397,-1.3308,-1.3227,-1.3139,-1.284,-1.2542,-1.2257,-1.2101,-1.2033,-1.2033,-1.1965,-1.1857,-1.1721,-1.1789,-1.1755,-1.1619,-1.1619,-1.1619,-1.1606,-1.1307,-1.1234,-1.1145,-1.0867,-1.0717,-1.0717,-1.0717,-1.0595,-1.0365,-1.0514,-1.0636,-1.0717,-1.0717,-1.0649,-1.0493,-1.0432,-1.0181,-0.9747,-0.9727,-0.9483,-0.8974,-0.894,-0.8838,-0.8621,-0.8391,-0.816,-0.7916,-0.7414,-0.6993,0.0,0.0,0.0,0.0,0.0,0.0,0.0,0.0,0.0,0.0,0.0,-0.759,-0.7638,-0.7916,-0.8214,-0.8506,-0.8655,-0.8906,-0.9313,-0.9401,-0.9532,-0.9985,-1.008,-1.0209,-1.0446,-1.0548,-1.0622,-1.0711,-1.0717,-1.0717,-1.0717,-1.0717,-1.0717,-1.0717,-1.0717,-1.0717,-1.0717,-1.0717,-1.0717,-1.0717,-1.0717,-1.0717,-1.0717,-1.0717,-1.0717,-1.0717,-1.0717,-1.0697,-1.0629,-1.0548,-1.0419,-1.0222,-1.0051,-0.9936,-0.9869,-0.9822,-0.9822,-0.9822,-0.9822,-0.9822,-1.4299,-1.4299,-1.4299,-1.4122,-1.3831,-1.3709,-1.3559,-1.3397,-1.3397,-1.3376,-1.3329,-1.3071,-1.2793,-1.2494,-1.2352,-1.2291,-1.2277,-1.221,-1.1979,-1.1837,-1.183,-1.1755,-1.1619,-1.1619,-1.1619,-1.1606,-1.1307,-1.1234,-1.122,-1.0867,-1.0717,-1.0717,-1.0717,-1.0717,-1.0717,-1.0717,-1.0717,-1.0717,-1.0717,-1.0636,-1.0466,-1.0344,-1.0059,-0.9612,-0.9564,-0.9279,-0.8716,-0.8811,-0.875,-0.8472,-0.8408,-0.8228,-0.8022,-0.7658,-0.7292,0.0,-0.6702,0.0,0.0,0.0,0.0,0.0,0.0,0.0,0.0,-0.774,-0.8065,-0.8336,-0.8628,-0.8906,-0.9214,-0.9456,-0.9646,-0.9673,-0.9869,-1.0161,-1.0297,-1.0432,-1.0568,-1.0704,-1.0717,-1.0717,-1.0717,-1.0717,-1.0717,-1.0717,-1.0717,-1.0717,-1.0717,-1.0717,-1.0717,-1.0717,-1.0717,-1.0717,-1.0717,-1.0717,-1.0717,-1.0717,-1.0717,-1.0711,-1.0683,-1.0683,-1.0643,-1.05,-1.0439,-1.0337,-1.0031,-0.997,-0.9909,-0.9842,-0.9822,-0.9822,-0.9822,-0.9822,-0.9822,-1.4299,-1.4299,-1.4299,-1.4122,-1.3838,-1.381,-1.3648,-1.3397,-1.3397,-1.3268,-1.3044,-1.307,-1.2793,-1.2494,-1.2352,-1.2291,-1.2284,-1.2128,-1.1979,-1.183,-1.183,-1.1755,-1.1619,-1.1619,-1.1619,-1.1599,-1.1307,-1.1234,-1.1227,-1.086,-1.0717,-1.0717,-1.0717,-1.0717,-1.0717,0.0,0.0,0.0,-1.0717,-1.0588,-1.0331,-1.0297,-1.0005,-0.9449,-0.9364,0.0,-0.856,-0.8554,-0.8486,-0.8323,-0.8449,0.0,0.0,0.0,0.0,0.0,0.0,0.0,0.0,0.0,0.0,0.0,-0.8004,-0.7916,-0.7611,-0.8269,-0.875,-0.8811,-0.9083,-0.9273,-0.9334,-0.9605,-0.9829,-0.9896,-1.0229,-1.0419,-1.0453,-1.0588,-1.069,-1.0711,-1.0717,-1.0717,-1.0717,-1.0717,-1.0717,-1.0717,-1.0717,-1.0717,-1.0717,-1.0717,-1.0717,-1.0717,-1.0717,-1.0717,-1.0717,-1.0717,-1.0717,-1.0717,-1.0717,-1.067,-1.0568,-1.0534,-1.0487,-1.0344,-1.0222,-1.0127,-0.999,-0.9889,-0.9863,-0.9822,-0.9822,-0.9822,-0.9822,-0.9822,-0.9822,-1.4299,0.0,-1.4299,-1.4122,0.0,-1.3752,-1.3675,-1.3397,-1.3397,-1.3234,-1.3036,-1.2881,-1.2718,-1.2494,-1.2427,-1.2311,-1.2176,-1.2169,-1.1938,-1.1728,-1.1728,-1.1687,-1.1619,-1.1619,-1.1579,-1.1497,-1.1274,-1.1124,-1.105,-1.0826,-1.0717,-1.0717,-1.0717,-1.0717,-1.0717,-1.0717,-1.0717,-1.0717,-1.0717,-1.0575,-1.0297,-1.034,-0.9992,-0.9408,0.0,0.0,0.0,0.0,0.0,0.0,0.0,0.0,0.0,0.0,0.0,-0.7923,-0.778,-0.7726,-0.7801,-0.7875,-0.8067,-0.8241,-0.8465,-0.8506,-0.8275,-0.8743,-0.911,-0.9259,-0.9408,-0.9523,-0.9598,-0.9802,-0.993,-1.0154,-1.0358,-1.0514,-1.0595,-1.067,-1.0717,-1.0717,-1.0717,-1.0717,-1.0717,-1.0717,-1.0717,-1.0717,-1.0717,-1.0717,-1.0717,-1.0717,-1.0717,-1.0717,-1.0717,-1.0717,-1.0717,-1.0717,-1.0717,-1.0711,-1.0656,-1.0582,-1.0507,-1.0432,-1.0337,-1.0195,-1.01,-0.997,-0.9883,-0.9869,-0.9822,-0.9822,-0.9822,-0.9822,-0.9822,-0.9822,-0.9795,-1.4299,-1.4299,-1.4299,-1.4122,-1.3752,-1.3752,-1.3668,-1.3397,0.0,0.0,0.0,-1.28,-1.2644,-1.2501,-1.2474,-1.2332,-1.2101,-1.2047,-1.1891,-1.166,-1.1633,-1.1619,-1.1619,-1.1619,-1.1538,-1.1389,-1.124,-1.1084,-1.088,-1.0725,-1.0717,-1.0717,-1.0717,-1.0717,-1.0717,-1.0717,-1.0717,-1.0717,-1.0717,-1.0582,-1.029,-1.034,-1.0005,-0.9435,-0.9395,-0.9184,-0.8771,-0.875,-0.8682,-0.8533,-0.849,-0.8431,-0.8513,-0.8411,-0.8391,-0.8472,-0.8531,-0.8492,-0.852,-0.8526,-0.8547,-0.8594,-0.8879,-0.8986,-0.9022,-0.915,-0.9347,-0.9625,-0.9646,-0.9693,-0.9808,-0.9985,-1.0141,-1.027,-1.0432,-1.0582,-1.0697,-1.0717,-1.0717,-1.0717,-1.0717,-1.0717,-1.0717,-1.0717,-1.0717,-1.0717,-1.0717,-1.0717,-1.0717,-1.0717,-1.0717,-1.0717,-1.0717,-1.0717,-1.0717,-1.0683,-1.0683,-1.0663,-1.0548,-1.0446,-1.0405,-1.0317,-1.0188,-1.0032,-0.995,-0.9896,-0.9849,-0.9822,-0.9822,-0.9822,-0.9802,-0.9781,-0.9781,-0.9761,-0.9707,-1.4299,-1.4299,-1.4299,-1.4122,-1.3752,-1.3752,-1.3675,-1.3397,-1.3261,-1.3112,-1.2956,-1.28,-1.2644,-1.2494,-1.2379,-1.2298,-1.2244,-1.1986,-1.1837,0.0,-1.1674,-1.1619,-1.1619,-1.1619,-1.1538,-1.1389,-1.1233,-1.109,-1.088,-1.0792,-1.0717,-1.0717,-1.0717,-1.0717,-1.0717,-1.0717,-1.0717,-1.0717,-1.0717,-1.0575,-1.029,-1.034,-1.0059,-0.9605,-0.9449,-0.9232,-0.892,-0.8851,-0.8838,-0.8689,-0.8784,-0.8798,-0.8682,-0.8655,-0.8601,-0.8492,-0.8538,-0.854,-0.8669,-0.8676,-0.8791,-0.9105,-0.934,-0.9462,-0.934,-0.9462,-0.9612,-0.9774,-0.9788,-0.9795,-0.9836,-1.0073,-1.0236,-1.029,-1.0521,-1.0697,-1.0711,-1.0704,-1.0697,-1.0697,-1.0717,-1.0711,-1.069,-1.0704,-1.0704,-1.0711,-1.067,-1.0704,-1.069,-1.0717,-1.0717,-1.0717,-1.0717,-1.0717,-1.0677,-1.0602,-1.0534,-1.0527,-1.0405,-1.027,-1.0168,-1.0114,-0.997,-0.9822,-0.9747,-0.9666,-0.97,-0.9822,-0.9559,-0.9492,-0.948,-0.952,-0.9572,-0.9551,-0.949,-1.4299,-1.4299,-1.4299,-1.4122,-1.3831,-1.3675,-1.3526,-1.3383,-1.3159,-1.3024,-1.2942,-1.2712,-1.2522,-1.2386,-1.2318,-1.2196,-1.2033,-1.1898,-1.1789,-1.1714,-1.1647,-1.1619,-1.1619,-1.1619,-1.1497,-1.1274,-1.1199,-1.105,-1.0766,-1.0751,-1.0717,-1.0717,-1.0717,-1.0717,-1.0717,-1.0717,-1.0717,-1.0717,-1.0717,-1.0575,-1.0354,-1.034,-1.0107,-0.9734,-0.9578,-0.9442,-0.9306,-0.9144,-0.9022,-0.8954,-0.8866,-0.8763,-0.8777,-0.8757,-0.8716,-0.873,-0.873,-0.8703,-0.8832,-0.8906,-0.9042,-0.9259,-0.9483,-0.9585,-0.951,-0.9639,-0.9747,-0.9815,-0.9822,-0.9822,-0.9822,-1.0019,-1.0188,-1.0276,-1.0405,-1.0514,-1.0575,-1.0521,-1.048,-1.0487,-1.0548,-1.0568,-1.0493,-1.0548,-1.0561,-1.0507,-1.048,-1.0487,-1.0487,-1.0487,-1.0514,-1.0575,-1.0595,-1.0555,-1.05,-1.0432,-1.0378,-1.0378,-1.0256,-1.0141,-0.9984,-0.9936,-0.9842,-0.9721,-0.914,-0.8526,-0.8465,-0.7675,-0.7588,-0.8233,-0.8266,-0.8484,-0.917,-0.9367,-0.935,-1.4299,-1.4299,-1.4265,-1.4075,-1.3777,-1.3512,-1.3383,-1.3322,-1.3071,-1.2942,-1.2874,-1.2617,-1.242,-1.2291,-1.2257,-1.2088,-1.185,-1.1796,-1.1721,-1.1626,-1.1619,-1.1619,-1.1619,-1.1619,-1.1457,-1.1192,-1.1234,-1.1009,-1.0751,-1.0717,-1.0717,-1.0717,-1.0717,-1.0717,-1.0717,-1.0717,-1.0717,-1.0717,-1.0717,-1.0575,-1.036,-1.034,-1.0134,-0.9842,-0.9713,-0.9639,-0.9598,-0.9381,-0.9296,-0.9248,-0.8954,-0.8866,-0.8919,-0.8845,-0.8818,-0.8871,-0.8967,-0.9008,-0.9049,-0.9178,-0.9306,-0.9422,-0.9571,-0.9659,-0.9666,-0.9754,-0.9822,-0.9822,-0.9822,-0.9822,-0.9842,-0.9903,-1.0038,-1.0215,-1.0263,-1.0331,-1.0412,-1.0344,-1.034,-1.029,-1.0378,-1.0399,-1.0331,-1.0371,-1.0405,-1.0317,-1.034,-1.034,-1.034,-1.034,-1.0324,-1.0365,-1.0419,-1.0412,-1.0297,-1.0249,-1.0229,-1.0222,-1.01,-1.0012,-0.9909,-0.989,-0.9525,-0.9207,-0.8282,-0.7423,-0.6865,-0.5943,-0.5658,-0.6423,-0.6622,-0.7043,-0.8341,-0.8957,-0.911,-1.4299,-1.4278,-1.415,-1.3919,-1.3641,-1.3471,-1.3322,-1.3186,-1.3024,-1.2881,-1.2745,-1.2576,-1.242,-1.2284,-1.2149,-1.1993,-1.1823,-1.1694,-1.1633,-1.1619,-1.1619,-1.1619,-1.1619,-1.1619,-1.1457,-1.1192,-1.1227,-1.1002,-1.0731,-1.0717,-1.0717,-1.0717,-1.0717,-1.0717,-1.0717,-1.0717,-1.0717,-1.0717,-1.0717,-1.0575,-1.0304,-1.034,-1.0134,-0.9829,-0.9808,-0.9741,-0.9625,-0.9585,-0.9503,-0.9367,-0.9255,-0.9173,-0.9173,-0.8994,-0.8871,-0.8947,-0.9062,-0.9191,-0.9334,-0.9483,-0.9564,-0.9598,-0.9713,-0.9795,-0.9795,-0.9808,-0.9822,-0.9822,-0.9822,-0.9822,-0.9829,-0.9896,-0.9984,-1.0024,-1.0188,-1.0347,-1.029,-1.029,-1.034,-1.034,-1.0276,-1.029,-1.0256,-1.0263,-1.0276,-1.0236,-1.0222,-1.0222,-1.0229,-1.0229,-1.0195,-1.0148,-1.0202,-1.0276,-1.0243,-1.0154,-1.0086,-0.9997,-0.9889,-0.9876,-0.9856,-0.9666,-0.939,-0.8221,-0.7296,-0.6503,-0.5563,-0.4919,-0.48,-0.4875,-0.514,-0.5423,-0.671,-0.78,-0.8468,-1.4245,-1.4163,-1.4095,-1.3899,-1.3627,-1.3464,-1.3315,-1.3166,-1.3024,-1.2874,-1.2718,-1.2569,-1.2372,-1.2155,-1.2088,-1.1932,-1.1708,-1.1647,-1.1619,-1.1619,-1.1619,-1.1619,-1.1613,-1.1518,-1.1369,-1.1165,-1.1077,-1.0928,-1.0751,-1.0717,-1.0717,-1.0717,-1.0717,-1.0717,-1.0717,-1.0717,-1.0717,-1.0717,-1.0717,-1.0582,-1.0317,-1.034,-1.0134,-0.9856,-0.9822,-0.9734,-0.9734,-0.9659,-0.9578,-0.951,-0.9367,-0.9286,-0.9344,-0.9232,-0.9198,-0.9205,-0.9252,-0.9354,-0.951,-0.9578,-0.9646,-0.9727,-0.9788,-0.9822,-0.9822,-0.9822,-0.9822,-0.9822,-0.9822,-0.9822,-0.9768,-0.9876,-0.9889,-0.9963,-1.0032,-1.0046,-1.0134,-1.0066,-1.0012,-1.0012,-1.0093,-1.0107,-1.0032,-1.0005,-1.0005,-1.0005,-1.0012,-1.0025,-1.0019,-1.0012,-0.9985,-0.9937,-0.9971,-0.9998,-1.0012,-0.9964,-0.9862,-0.9849,-0.9808,-0.9822,-0.9572,-0.8836,-0.8099,-0.7418,-0.5884,-0.4645,-0.3641,-0.2637,-0.2191,-0.287,-0.4262,-0.4785,-0.5314,-0.5866,-0.6533,-1.4211,-1.4068,-1.3987,-1.3804,-1.3559,-1.3451,-1.3288,-1.3112,-1.3003,-1.2854,-1.2664,-1.2549,-1.2338,-1.2088,-1.206,-1.1904,-1.164,-1.1619,-1.1619,-1.1619,-1.1619,-1.1619,-1.1599,-1.1463,-1.1307,-1.1158,-1.1023,-1.0806,-1.0738,-1.0717,-1.0717,-1.0717,-1.0717,-1.0717,-1.0717,-1.0717,-1.0717,-1.0717,-1.0717,-1.0575,-1.0324,-1.034,-1.0134,-0.9856,-0.9822,-0.9822,-0.9822,-0.9727,-0.9666,-0.9666,-0.9523,-0.9442,-0.9442,-0.9408,-0.9401,-0.9442,-0.9442,-0.951,-0.9652,-0.9666,-0.9713,-0.9802,-0.9822,-0.9822,-0.9822,-0.9822,-0.9822,-0.9822,-0.9822,-0.9822,-0.9822,-0.9822,-0.9876,-0.9903,-0.9876,-0.9808,-0.9903,-0.9883,-0.9829,-0.9829,-0.993,-0.9889,-0.9849,-0.9836,-0.9842,-0.9842,-0.9836,-0.9822,-0.9822,-0.9836,-0.9829,-0.9822,-0.9822,-0.9829,-0.9822,-0.9836,-0.9694,-0.914,-0.9019,-0.8775,-0.8653,-0.7301,-0.6259,-0.5215,-0.3495,-0.2377,-0.1932,-0.0833,0.0,0.0,-0.2765,-0.3748,-0.3857,-0.4359,-0.5472,-1.4211,-1.4041,-1.377,-1.3566,-1.341,-1.3403,-1.3234,-1.2983,-1.2963,-1.2793,-1.2542,-1.2508,-1.2338,-1.2142,-1.206,-1.1898,-1.1647,-1.1619,-1.1619,-1.1619,-1.1619,-1.1619,-1.1606,-1.1463,-1.1307,-1.1158,-1.0995,-1.086,-1.0724,-1.0717,-1.0717,-1.0717,-1.0717,-1.0717,-1.0717,-1.0717,-1.0717,-1.0717,-1.0717,-1.0575,-1.0324,-1.034,-1.0134,-0.9856,-0.9822,-0.9822,-0.9822,-0.9815,-0.9808,-0.9808,-0.9673,-0.9598,-0.9585,-0.9469,-0.9462,-0.9578,-0.9598,-0.9659,-0.9781,-0.9802,-0.9808,-0.9822,-0.9822,-0.9822,-0.9822,-0.9822,-0.9822,-0.9822,-0.9822,-0.9822,-0.9822,-0.9822,-0.9822,-0.9842,-0.9836,-0.9768,-0.9836,-0.9842,-0.9822,-0.9822,-0.9836,-0.9788,-0.9822,-0.9822,-0.9822,-0.9822,-0.9822,-0.9822,-0.9822,-0.9822,-0.9822,-0.9822,-0.9822,-0.9822,-0.9822,-0.9451,-0.8836,-0.8282,-0.7728,-0.7113,-0.5892,-0.4855,-0.4119,-0.3432,-0.2615,-0.169,-0.054,0.0,0.0,0.0,0.0,-0.2181,-0.2794,-0.4916,-0.5806,-1.415,-1.3899,-1.3607,-1.3451,-1.3403,-1.3397,-1.3234,-1.305,-1.3043,-1.2786,-1.2535,-1.2501,-1.2338,-1.206,-1.206,-1.1898,-1.1633,-1.1619,-1.1619,-1.1619,-1.1619,-1.1619,-1.1592,-1.1369,-1.1219,-1.1138,-1.0921,-1.0772,-1.0731,-1.0717,-1.0717,-1.0717,-1.0717,-1.0717,-1.0717,-1.0717,-1.0717,-1.0717,-1.0717,-1.0575,-1.031,-1.034,-1.0134,-0.9842,-0.9822,-0.9822,-0.9822,-0.9822,-0.9822,-0.9822,-0.9768,-0.9747,-0.9741,-0.9693,-0.9686,-0.9734,-0.9741,-0.9768,-0.9815,-0.9822,-0.9822,-0.9822,-0.9822,-0.9822,-0.9822,-0.9822,-0.9822,-0.9822,-0.9822,-0.9822,-0.9822,-0.9822,-0.9822,-0.9822,-0.9822,-0.9822,-0.9822,-0.9822,-0.9822,-0.9822,-0.9822,-0.9822,-0.9822,-0.9822,-0.9822,-0.9822,-0.9822,-0.9822,-0.9822,-0.9822,-0.9822,-0.9822,-0.9822,-0.9822,-0.9822,-0.8775,-0.7911,-0.7362,-0.6747,-0.5892,-0.4851,-0.3684,-0.2887,-0.2546,-0.1863,0.0,0.0,0.0,0.0,0.0,0.0,-0.1399,-0.2012,-0.3352,-0.4132,-1.4027,-1.381,-1.3526,-1.3397,-1.3397,-1.3342,-1.3186,-1.2963,-1.2908,-1.2739,-1.2528,-1.2501,-1.2338,-1.2094,-1.206,-1.1904,-1.164,-1.1619,-1.1619,-1.1619,-1.1619,-1.1592,-1.1511,-1.128,-1.1138,-1.1063,-1.0846,-1.0717,-1.0717,-1.0717,-1.0717,-1.0717,-1.0717,-1.0717,-1.0717,-1.0717,-1.0717,-1.0717,-1.0717,-1.0575,-1.0317,-1.034,-1.0134,-0.9869,-0.9822,-0.9822,-0.9822,-0.9822,-0.9822,-0.9822,-0.9822,-0.9822,-0.9822,-0.9822,-0.9822,-0.9822,-0.9822,-0.9822,-0.9822,-0.9822,-0.9822,-0.9822,-0.9822,-0.9822,-0.9822,-0.9822,-0.9822,-0.9822,-0.9822,-0.9822,-0.9822,-0.9822,-0.9822,-0.9822,-0.9822,-0.9822,-0.9822,-0.9822,-0.9822,-0.9822,-0.9822,-0.9822,-0.9822,-0.9822,-0.9822,-0.9822,-0.9822,-0.9822,-0.9822,-0.9822,-0.9822,-0.9822,-0.9822,-0.9822,-0.9552,-0.8545,-0.7155,-0.6424,-0.5197,-0.4471,0.0,0.0,0.0,0.0,0.0,0.0,0.0,0.0,0.0,0.0,0.0,-0.0616,-0.1008,-0.1231,-0.2569,-1.3844,-1.379,-1.3519,-1.339,-1.3363,-1.3247,-1.3098,-1.2935,-1.28,-1.2657,-1.2508,-1.2501,-1.2338,-1.2101,-1.206,-1.1898,-1.166,-1.1619,-1.1619,-1.1619,-1.1619,-1.1538,-1.1402,-1.124,-1.1077,-1.0948,-1.0792,-1.0724,-1.0717,-1.0717,-1.0717,-1.0717,-1.0717,-1.0717,-1.0717,-1.0717,-1.0717,-1.0717,-1.0717,-1.0582,-1.0324,-1.0283,-1.0141,-0.9876,-0.9829,-0.9822,-0.9822,-0.9822,-0.9822,-0.9822,-0.9822,-0.9822,-0.9822,-0.9822,-0.9822,-0.9822,-0.9822,-0.9822,-0.9822,-0.9822,-0.9822,-0.9822,-0.9822,-0.9822,-0.9822,-0.9822,-0.9822,-0.9822,-0.9822,-0.9822,-0.9822,-0.9822,-0.9822,-0.9822,-0.9822,-0.9822,-0.9822,-0.9822,-0.9822,-0.9822,-0.9822,-0.9822,-0.9822,-0.9822,-0.9822,-0.9822,-0.9822,-0.9633,-0.9451,-0.939,-0.9633,-0.9633,-0.9451,-0.9262,-0.8908,-0.8317,-0.6756,-0.5304,-0.3838,0.0,0.0,0.0,0.0,0.0,0.0,0.0,0.0,0.0,0.0,0.0,0.0,0.0,-0.1344,-0.2012,-0.2286,-1.3783,-1.3675,-1.3485,-1.3336,-1.3247,-1.3193,-1.3037,-1.2813,-1.2745,-1.2644,-1.2522,-1.2501,-1.2338,-1.2115,-1.206,-1.1898,-1.1633,-1.1619,-1.1619,-1.1619,-1.1619,-1.1538,-1.1382,-1.1233,-1.1029,-1.0819,-1.0744,-1.0717,-1.0717,-1.0717,-1.0717,-1.0717,-1.0717,-1.0717,-1.0717,-1.0717,-1.0717,-1.0717,-1.0717,-1.0622,-1.0432,-1.0331,-1.0181,-0.993,-0.9876,-0.9822,-0.9822,-0.9822,-0.9822,-0.9822,-0.9822,-0.9822,-0.9822,-0.9822,-0.9822,-0.9822,-0.9822,-0.9822,-0.9822,-0.9822,-0.9822,-0.9822,-0.9822,-0.9822,-0.9822,-0.9822,-0.9822,-0.9822,-0.9822,-0.9822,-0.9822,-0.9822,-0.9822,-0.9822,-0.9822,-0.9822,-0.9822,-0.9822,-0.9822,-0.9822,-0.9822,-0.9822,-0.9822,-0.9822,-0.9761,-0.9694,-0.9694,-0.9451,-0.8404,-0.816,-0.816,-0.816,-0.8216,-0.8799,-0.8913,-0.8599,-0.7313,-0.5574,-0.3774,-0.2219,0.0,0.0,0.0,0.0,0.0,-0.1243,-0.1347,-0.1231,-0.0896,0.0,0.0,0.0,0.0,-0.2792,-0.2451,-1.3756,-1.3607,-1.3403,-1.3261,-1.3159,-1.3064,-1.2901,-1.2732,-1.2671,-1.2589,-1.2515,-1.2501,-1.2338,-1.2108,-1.206,-1.1898,-1.164,-1.1619,-1.1619,-1.1619,-1.1619,-1.1511,-1.1301,-1.109,-1.0914,-1.0758,-1.0717,-1.0717,-1.0717,-1.0717,-1.0717,-1.0717,-1.0717,-1.0717,-1.0717,-1.0717,-1.0717,-1.0717,-1.0717,-1.0649,-1.0507,-1.0405,-1.0263,-1.0004,-0.9896,-0.9876,-0.9829,-0.9822,-0.9822,-0.9822,-0.9822,-0.9822,-0.9822,-0.9822,-0.9822,-0.9822,-0.9822,-0.9822,-0.9822,-0.9822,-0.9822,-0.9822,-0.9822,-0.9822,-0.9822,-0.9822,-0.9822,-0.9822,-0.9822,-0.9822,-0.9822,-0.9822,-0.9822,-0.9822,-0.9822,-0.9822,-0.9822,-0.9822,-0.9822,-0.9822,-0.9822,-0.9822,-0.9822,-0.9822,-0.9511,-0.914,-0.8897,-0.8282,-0.6996,-0.6508,-0.6691,-0.7057,-0.7606,-0.8346,-0.9274,-0.8763,-0.7855,-0.6057,-0.4162,-0.2696,0.0,0.0,0.0,0.0,0.0,-0.1743,-0.1844,-0.19,0.0,0.0,0.0,0.0,-0.1456,-0.1454,-0.134,-1.3749,-1.3587,-1.3308,-1.318,-1.3119,-1.2888,-1.2759,-1.2684,-1.2576,-1.2515,-1.2501,-1.2501,-1.2338,-1.2108,-1.206,-1.1898,-1.166,-1.1619,-1.1619,-1.1619,-1.1599,-1.147,-1.1185,-1.0907,-1.0758,-1.0724,-1.0717,-1.0717,-1.0717,-1.0717,-1.0717,-1.0717,-1.0717,-1.0717,-1.0717,-1.0717,-1.0717,-1.0717,-1.0717,-1.0649,-1.0527,-1.0487,-1.0358,-1.0031,-0.9984,-0.9903,-0.9781,-0.9822,-0.9822,-0.9822,-0.9822,-0.9822,-0.9822,-0.9822,-0.9822,-0.9822,-0.9822,-0.9822,-0.9822,-0.9822,-0.9633,-0.9451,-0.939,-0.9572,-0.9147,-0.9147,-0.9329,-0.939,-0.964,-0.9694,-0.9572,-0.9451,-0.9451,-0.964,-0.964,-0.9761,-0.9822,-0.9822,-0.9822,-0.9822,-0.9822,-0.9822,-0.9822,-0.9822,-0.9079,-0.8033,-0.7606,-0.6874,-0.5341,-0.4977,-0.5651,-0.6193,-0.6677,-0.7922,-0.8835,-0.9234,-0.8326,-0.7315,-0.5283,-0.3561,-0.201,-0.1033,-0.1032,-0.1864,-0.2185,-0.2293,-0.2347,-0.2459,-0.1734,0.0,0.0,0.0,-0.0392,-0.0896,-0.1782,-1.3688,-1.3458,-1.3376,-1.3214,-1.3024,-1.2929,-1.2759,-1.2569,-1.2522,-1.2501,-1.2501,-1.2501,-1.2338,-1.2081,-1.206,-1.1904,-1.1674,-1.1619,-1.1619,-1.1619,-1.1619,-1.145,-1.1151,-1.086,-1.0717,-1.0717,-1.0717,-1.0717,-1.0717,-1.0717,-1.0717,-1.0717,-1.0717,-1.0717,-1.0717,-1.0717,-1.0717,-1.0717,-1.0717,-1.0704,-1.0649,-1.0548,-1.0405,-1.0236,-1.0051,-0.9978,-0.9842,-0.9822,-0.9822,-0.9822,-0.9822,-0.9822,-0.9822,-0.9822,-0.9822,-0.9822,-0.9822,-0.9822,-0.9822,-0.9822,-0.9268,-0.816,-0.8155,-0.7484,-0.6324,-0.7362,-0.7911,-0.8221,-0.8958,-0.9201,-0.8343,-0.8033,-0.8033,-0.816,-0.8836,-0.9572,-0.9761,-0.9822,-0.9822,-0.9822,-0.9822,-0.9822,-0.9822,-0.9572,-0.9019,-0.7728,-0.693,-0.6137,-0.3996,-0.32,-0.3689,-0.4831,-0.5657,-0.7135,-0.833,-0.8954,-0.8944,-0.8426,-0.6756,-0.468,-0.3101,-0.1692,-0.242,-0.3466,-0.3022,-0.2964,-0.3017,-0.3129,-0.1734,-0.028,0.0,0.0,0.0,-0.1956,-0.316,-1.3668,-1.3397,-1.3329,-1.3173,-1.2963,-1.2895,-1.2725,-1.2535,-1.2501,-1.2501,-1.2501,-1.2501,-1.2338,-1.2081,-1.206,-1.1898,-1.1647,-1.1619,-1.1619,-1.1592,-1.1477,-1.1321,-1.1118,-1.086,-1.0717,-1.0717,-1.0717,-1.0717,-1.0717,-1.0717,-1.0717,-1.0717,-1.0717,-1.0717,-1.0717,-1.0717,-1.0717,-1.0717,-1.0717,-1.0717,-1.0711,-1.0636,-1.0514,-1.0371,-1.0222,-1.0053,-0.9863,-0.9822,-0.9822,-0.9822,-0.9822,-0.9822,-0.9822,-0.9822,-0.9822,-0.9822,-0.9822,-0.9822,-0.9822,-0.9761,-0.9019,-0.7789,-0.7362,-0.6508,-0.5529,-0.5835,-0.632,-0.6508,-0.7301,-0.7179,-0.6625,-0.632,-0.6381,-0.6446,-0.7179,-0.8349,-0.9572,-0.9822,-0.9822,-0.9822,-0.9822,-0.9761,-0.9761,-0.9207,-0.8039,-0.6691,-0.5403,-0.3871,-0.2031,0.0,-0.2092,-0.3424,-0.466,-0.6085,-0.7641,-0.8444,-0.8834,-0.8425,-0.6482,-0.4689,-0.3463,-0.2012,-0.2291,-0.3019,-0.3299,-0.3466,-0.324,-0.2794,-0.1734,0.0,0.0,0.0,0.0,-0.2571,-0.3824,-1.3668,-1.339,-1.3254,-1.3105,-1.2956,-1.2813,-1.2678,-1.2522,-1.2501,-1.2501,-1.2501,-1.2501,-1.2332,-1.206,-1.2054,-1.1898,-1.1619,-1.1619,-1.1619,-1.1538,-1.1382,-1.1206,-1.1138,-1.086,-1.0731,-1.0717,-1.0717,-1.0717,-1.0717,-1.0717,-1.0717,-1.0717,-1.0717,-1.0717,-1.0717,-1.0717,-1.0717,-1.0717,-1.0717,-1.0717,-1.0717,-1.0697,-1.0616,-1.0466,-1.0283,-1.008,-0.989,-0.9822,-0.9822,-0.9822,-0.9822,-0.9822,-0.9822,-0.9822,-0.9822,-0.9822,-0.9822,-0.9822,-0.97,-0.9511,-0.8708,-0.7301,-0.6747,-0.6137,-0.4548,-0.4303,-0.4671,-0.4671,-0.4794,-0.51,-0.4671,-0.4548,-0.4426,-0.4548,-0.4794,-0.6202,-0.841,-0.9268,-0.9268,-0.9329,-0.9207,-0.9268,-0.8958,-0.8039,-0.6503,-0.4977,-0.3935,-0.277,0.0,0.0,0.0,-0.2626,-0.3861,-0.5053,-0.655,-0.8001,-0.8232,-0.8066,-0.5532,-0.3687,-0.2905,-0.19,-0.1622,-0.1902,-0.2626,-0.2794,-0.2515,-0.1958,-0.1287,0.0,0.0,0.0,-0.2125,-0.285,-0.3895,-1.3668,-1.3397,-1.337,-1.32,-1.2976,-1.2922,-1.2752,-1.2501,-1.2501,-1.2501,-1.2501,-1.2501,-1.2332,-1.206,-1.2047,-1.1898,-1.164,-1.1619,-1.1619,-1.1592,-1.1436,-1.1274,-1.1131,-1.0873,-1.0731,-1.0717,-1.0717,-1.0717,-1.0717,-1.0717,-1.0717,-1.0717,-1.0717,-1.0717,-1.0717,-1.0717,-1.0717,-1.0717,-1.0717,-1.0717,-1.0717,-1.0717,-1.0643,-1.048,-1.0249,-1.0025,-0.9869,-0.9822,-0.9822,-0.9822,-0.9822,-0.9822,-0.9822,-0.9822,-0.9822,-0.9822,-0.9822,-0.9822,-0.9572,-0.8647,-0.724,-0.5774,-0.4548,-0.2829,-0.1417,-0.2402,-0.2893,-0.3262,-0.4057,-0.3996,-0.3139,-0.1787,-0.1971,-0.2708,-0.3077,-0.3751,-0.5468,-0.6018,-0.6263,-0.6202,-0.6202,-0.6018,-0.608,-0.5957,-0.4671,-0.3323,0.0,0.0,0.0,0.0,0.0,-0.1885,-0.2803,-0.3931,-0.5219,-0.6455,-0.672,-0.6659,-0.4526,-0.274,-0.1956,-0.1621,-0.1343,-0.1622,-0.218,-0.218,-0.2012,-0.151,-0.0896,-0.1176,-0.1846,-0.2628,-0.3354,-0.3689,-0.4411,-1.3607,-1.3403,-1.3397,-1.3234,-1.2983,-1.3036,-1.2786,-1.2542,-1.2501,-1.2501,-1.2501,-1.2501,-1.2332,-1.2142,-1.2047,-1.1898,-1.1674,-1.1619,-1.1619,-1.1586,-1.1463,-1.1348,-1.1233,-1.0982,-1.0799,-1.0738,-1.0717,-1.0717,-1.0717,-1.0717,-1.0717,-1.0717,-1.0717,-1.0717,-1.0717,-1.0717,-1.0717,-1.0717,-1.0717,-1.0717,-1.0717,-1.0717,-1.0602,-1.0426,-1.0229,-1.0059,-0.9849,-0.9822,-0.9822,-0.9822,-0.9822,-0.9822,-0.9822,-0.9822,-0.9822,-0.9822,-0.9822,-0.9822,-0.9451,-0.8282,-0.6691,-0.4977,-0.3384,-0.1787,-0.0555,-0.0925,-0.1233,-0.1479,-0.191,-0.2156,-0.1417,-0.074,0.0,-0.0986,0.0,0.0,0.0,-0.3873,-0.492,-0.492,-0.51,-0.51,-0.4855,-0.418,-0.3628,-0.2647,0.0,0.0,0.0,0.0,0.0,-0.1023,-0.1825,-0.2836,-0.4014,-0.4765,-0.4998,-0.4582,-0.3352,-0.1958,-0.1064,-0.1008,-0.1007,-0.1287,-0.151,-0.1789,-0.1621,-0.1063,-0.1454,-0.2628,-0.3522,-0.4191,-0.4801,-0.5301,-0.6195,-1.3539,-1.3397,-1.3397,-1.3234,-1.2983,-1.3036,-1.2786,-1.2528,-1.2501,-1.2501,-1.2501,-1.2501,-1.2352,-1.2142,-1.2142,-1.1891,-1.1687,-1.1619,-1.1619,-1.1599,-1.1511,-1.1423,-1.1314,-1.1111,-1.0907,-1.0765,-1.0731,-1.0724,-1.0717,-1.0717,-1.0717,-1.0717,-1.0717,-1.0717,-1.0717,-1.0717,-1.0717,-1.0717,-1.0717,-1.0717,-1.0717,-1.0717,-1.0588,-1.0399,-1.0283,-1.0134,-0.9924,-0.9788,-0.9822,-0.9822,-0.9822,-0.9822,-0.9822,-0.9822,-0.9822,-0.9822,-0.9822,-0.9572,-0.8897,-0.7734,-0.6141,-0.4671,-0.3016,-0.154,-0.037,0.0,0.0,0.0,0.0,0.0,0.0,0.0,0.0,0.0,0.0,0.0,0.0,-0.2585,-0.3507,-0.3815,-0.3323,-0.3139,-0.3077,-0.2647,-0.2339,0.0,0.0,0.0,0.0,0.0,0.0,0.0,-0.0995,-0.1894,-0.3063,-0.3503,-0.3636,-0.3185,0.0,0.0,0.0,0.0,0.0,0.0,-0.0672,-0.1287,-0.2068,-0.2347,-0.3073,-0.4303,-0.5083,-0.5528,-0.6195,-0.6911,-0.7692,-1.3539,-1.3397,-1.3397,-1.3227,-1.2983,-1.3043,-1.2786,-1.2535,-1.2501,-1.2501,-1.2501,-1.2494,-1.2406,-1.225,-1.2108,-1.1898,-1.1674,-1.1619,-1.1619,-1.1619,-1.1565,-1.1518,-1.1389,-1.1206,-1.1036,-1.084,-1.0792,-1.0717,-1.0717,-1.0717,-1.0717,-1.0717,-1.0717,-1.0717,-1.0717,-1.0717,-1.0717,-1.0717,-1.0717,-1.0717,-1.0717,-1.0711,-1.0636,-1.0446,-1.0351,-1.0202,-1.0039,-0.9897,-0.9822,-0.9822,-0.9822,-0.9822,-0.9822,-0.9822,-0.9822,-0.9822,-0.9822,-0.939,-0.8343,-0.6446,-0.4671,-0.3016,-0.154,0.0,0.0,0.0,0.0,0.0,0.0,0.0,0.0,0.0,0.0,0.0,0.0,0.0,0.0,0.0,0.0,0.0,0.0,0.0,0.0,0.0,0.0,0.0,0.0,0.0,0.0,0.0,0.0,0.0,-0.0175,-0.1143,-0.2193,-0.23,-0.2403,-0.2125,0.0,0.0,0.0,0.0,0.0,0.0,-0.112,-0.2012,-0.2682,-0.3463,-0.4634,-0.5917,-0.6422,-0.6816,-0.736,-0.7907,-0.8109,-1.3464,-1.3403,-1.3397,-1.3234,-1.299,-1.3036,-1.2786,-1.2528,-1.2501,-1.2501,-1.2501,-1.2494,-1.242,-1.2277,-1.2128,-1.1898,-1.1681,-1.1619,-1.1619,-1.1619,-1.1613,-1.1586,-1.147,-1.128,-1.1145,-1.1009,-1.0846,-1.0724,-1.0717,-1.0717,-1.0717,-1.0717,-1.0717,-1.0717,-1.0717,-1.0717,-1.0717,-1.0717,-1.0717,-1.0717,-1.0717,-1.0717,-1.0636,-1.0514,-1.0426,-1.0317,-1.0188,-1.0114,-1.0019,-0.9896,-0.9944,-0.9897,-0.9849,-0.9829,-0.9822,-0.9829,-0.9761,-0.9511,-0.8282,-0.6508,-0.461,-0.3689,-0.1479,0.0,0.0,0.0,0.0,0.0,0.0,0.0,0.0,0.0,0.0,0.0,0.0,0.0,0.0,0.0,0.0,0.0,0.0,0.0,0.0,0.0,0.0,0.0,0.0,0.0,0.0,0.0,0.0,0.0,0.0,0.0,0.0,0.0,0.0,0.0,0.0,0.0,0.0,0.0,0.0,0.0,-0.2012,-0.3017,-0.43,-0.5472,-0.6533,-0.7371,-0.7648,-0.7986,-0.8478,-0.8851,-0.8879,-1.3397,-1.3397,-1.337,-1.32,-1.2983,-1.2922,-1.2759,-1.2535,-1.2501,-1.2501,-1.2501,-1.2494,-1.244,-1.2311,-1.2128,-1.1904,-1.1633,-1.1619,-1.1619,-1.1619,-1.1619,-1.1613,-1.1538,-1.1375,-1.1192,-1.1104,-1.0914,-1.0751,-1.0724,-1.0717,-1.0717,-1.0717,-1.0717,-1.0717,-1.0717,-1.0717,-1.0717,-1.0717,-1.0717,-1.0717,-1.0717,-1.0711,-1.067,-1.0541,-1.0507,-1.0426,-1.0331,-1.0263,-1.0195,-1.0127,-1.0086,-1.0046,-0.9944,-0.991,-0.9897,-0.9869,-0.9781,-0.97,-0.8532,-0.6691,-0.4671,-0.3812,-0.154,0.0,0.0,0.0,0.0,0.0,0.0,0.0,0.0,0.0,0.0,0.0,0.0,0.0,0.0,0.0,0.0,0.0,0.0,0.0,0.0,0.0,0.0,0.0,0.0,0.0,0.0,0.0,0.0,0.0,0.0,0.0,0.0,0.0,0.0,0.0,0.0,0.0,0.0,0.0,-0.1176,-0.218,-0.3461,-0.4522,-0.5973,-0.7038,-0.7654,-0.8208,-0.8712,-0.8933,-0.8871,-0.8838,-0.8797,-1.3397,-1.339,-1.3254,-1.3105,-1.3036,-1.2827,-1.2664,-1.2515,-1.2501,-1.2501,-1.2501,-1.2501,-1.2488,-1.2379,-1.2169,-1.1898,-1.1694,-1.1619,-1.1619,-1.1619,-1.1619,-1.1619,-1.1592,-1.145,-1.1267,-1.1158,-1.0989,-1.0853,-1.0751,-1.0717,-1.0717,-1.0717,-1.0717,-1.0717,-1.0717,-1.0717,-1.0717,-1.0717,-1.0717,-1.0717,-1.0717,-1.0717,-1.0704,-1.0656,-1.0575,-1.05,-1.046,-1.0392,-1.0297,-1.027,-1.0256,-1.0243,-1.0229,-1.0229,-1.0141,-1.0032,-0.9726,-0.9207,-0.7978,-0.608,-0.4487,-0.3382,-0.1171,0.0,0.0,0.0,0.0,0.0,0.0,0.0,0.0,0.0,0.0,0.0,0.0,0.0,0.0,0.0,0.0,0.0,0.0,0.0,0.0,0.0,0.0,0.0,0.0,0.0,0.0,0.0,0.0,0.0,0.0,0.0,0.0,0.0,0.0,0.0,0.0,0.0,0.0,-0.0616,-0.2125,-0.3185,-0.4411,-0.5413,-0.6366,-0.7315,-0.8325,-0.8768,-0.8885,-0.894,-0.8933,-0.8831,-0.8784,-1.3397,-1.339,-1.3234,-1.3172,-1.2949,-1.28,-1.2644,-1.2522,-1.2501,-1.2501,-1.2501,-1.2501,-1.242,-1.2257,-1.2101,-1.1898,-1.1667,-1.1619,-1.1619,-1.1619,-1.1619,-1.1619,-1.1586,-1.1463,-1.1314,-1.1165,-1.1016,-1.0793,-1.0765,-1.0717,-1.0717,-1.0717,-1.0717,-1.0717,-1.0717,-1.0717,-1.0717,-1.0717,-1.0717,-1.0717,-1.0717,-1.0717,-1.0717,-1.0717,-1.0649,-1.0622,-1.0595,-1.0575,-1.048,-1.0432,-1.0399,-1.0358,-1.0304,-1.0276,-1.0236,-1.0195,-1.0127,-0.9689,-0.8683,-0.6329,-0.4794,-0.3444,0.0,0.0,0.0,0.0,0.0,0.0,0.0,0.0,0.0,0.0,0.0,0.0,0.0,0.0,0.0,0.0,0.0,0.0,0.0,0.0,0.0,0.0,0.0,0.0,0.0,0.0,0.0,0.0,0.0,0.0,0.0,0.0,0.0,0.0,0.0,0.0,0.0,0.0,0.0,-0.0784,-0.2237,-0.3243,-0.4021,-0.5135,-0.6478,-0.7648,-0.8657,-0.8885,-0.8885,-0.894,-0.8885,-0.8768,-0.8342,-1.3376,-1.3329,-1.3186,-1.3037,-1.2888,-1.2739,-1.261,-1.2508,-1.2501,-1.2501,-1.2501,-1.2488,-1.2338,-1.219,-1.2047,-1.1904,-1.1626,-1.1619,-1.1619,-1.1619,-1.1619,-1.1619,-1.1572,-1.1463,-1.1307,-1.1227,-1.1016,-1.0806,-1.0765,-1.0717,-1.0717,-1.0717,-1.0717,-1.0717,-1.0717,-1.0717,-1.0717,-1.0717,-1.0717,-1.0717,-1.0717,-1.0717,-1.0717,-1.0717,-1.0717,-1.0717,-1.0717,-1.0711,-1.0636,-1.0582,-1.0548,-1.0507,-1.0439,-1.0432,-1.0392,-1.0351,-1.031,-1.0209,-0.9156,-0.7449,-0.5679,-0.4063,0.0,0.0,0.0,0.0,0.0,0.0,0.0,0.0,0.0,0.0,0.0,0.0,0.0,0.0,0.0,0.0,0.0,0.0,0.0,0.0,0.0,0.0,0.0,0.0,0.0,0.0,0.0,0.0,0.0,0.0,0.0,0.0,0.0,0.0,0.0,0.0,0.0,0.0,0.0,0.0,-0.1958,-0.285,-0.3742,-0.5639,-0.7482,-0.8263,-0.894,-0.894,-0.894,-0.894,-0.8885,-0.8657,-0.7426,-1.3315,-1.318,-1.3111,-1.2888,-1.2739,-1.2583,-1.2515,-1.2501,-1.2501,-1.2501,-1.2501,-1.2481,-1.2318,-1.2115,-1.202,-1.1884,-1.1619,-1.1619,-1.1619,-1.1619,-1.1619,-1.1619,-1.1565,-1.1463,-1.1314,-1.1158,-1.1016,-1.0806,-1.0758,-1.0717,-1.0717,-1.0717,-1.0717,-1.0717,-1.0717,-1.0717,-1.0717,-1.0717,-1.0717,-1.0717,-1.0717,-1.0717,-1.0717,-1.0717,-1.0717,-1.0717,-1.0717,-1.0717,-1.0711,-1.0677,-1.067,-1.067,-1.0616,-1.0616,-1.0568,-1.05,-1.048,-1.0385,-0.9659,-0.8318,-0.6602,-0.4512,0.0,0.0,0.0,0.0,0.0,0.0,0.0,0.0,0.0,0.0,0.0,0.0,0.0,0.0,0.0,0.0,0.0,0.0,0.0,0.0,0.0,0.0,0.0,0.0,0.0,0.0,0.0,0.0,0.0,0.0,0.0,0.0,0.0,0.0,0.0,0.0,0.0,0.0,0.0,0.0,0.0,-0.2908,-0.3968,-0.6255,-0.8097,-0.8436,-0.8712,-0.8885,-0.8885,-0.8768,-0.7875,-0.7088,-0.5524,-1.3119,-1.2895,-1.284,-1.2779,-1.2718,-1.2569,-1.2501,-1.2501,-1.2501,-1.2501,-1.2494,-1.2406,-1.2257,-1.2088,-1.1945,-1.1816,-1.1633,-1.1619,-1.1619,-1.1619,-1.1619,-1.1619,-1.1565,-1.1457,-1.1314,-1.1158,-1.1016,-1.0806,-1.0738,-1.0724,-1.0717,-1.0717,-1.0717,-1.0717,-1.0717,-1.0717,-1.0717,-1.0717,-1.0717,-1.0717,-1.0717,-1.0717,-1.0717,-1.0717,-1.0717,-1.0717,-1.0717,-1.0717,-1.0717,-1.0717,-1.0717,-1.0717,-1.0717,-1.0717,-1.0683,-1.0629,-1.0616,-1.0541,-1.0148,-0.8661,-0.6513,-0.3995,-0.223,-0.111,0.0,0.0,0.0,0.0,0.0,0.0,0.0,0.0,0.0,0.0,0.0,0.0,0.0,0.0,0.0,0.0,0.0,0.0,0.0,0.0,0.0,0.0,0.0,0.0,0.0,0.0,0.0,0.0,0.0,0.0,0.0,0.0,0.0,0.0,0.0,0.0,0.0,0.0,0.0,0.0,-0.3689,-0.5139,-0.6533,-0.7931,-0.8546,-0.8774,-0.8657,-0.8491,-0.7315,-0.5639,-0.3965,-1.2996,-1.2739,-1.2732,-1.2705,-1.2651,-1.2542,-1.2501,-1.2501,-1.2501,-1.2501,-1.2494,-1.2352,-1.2203,-1.2054,-1.1904,-1.1762,-1.1653,-1.1619,-1.1619,-1.1619,-1.1619,-1.1619,-1.1552,-1.1423,-1.1253,-1.1138,-1.0968,-1.0806,-1.0724,-1.0717,-1.0717,-1.0717,-1.0717,-1.0717,-1.0717,-1.0717,-1.0717,-1.0717,-1.0717,-1.0717,-1.0717,-1.0717,-1.0717,-1.0717,-1.0717,-1.0717,-1.0717,-1.0717,-1.0717,-1.0717,-1.0717,-1.0717,-1.0717,-1.0717,-1.0717,-1.0717,-1.0704,-1.0656,-1.0149,-0.8642,-0.648,-0.4202,-0.2851,-0.1605,0.0,0.0,0.0,0.0,0.0,0.0,0.0,0.0,0.0,0.0,0.0,0.0,0.0,0.0,0.0,0.0,0.0,0.0,0.0,0.0,0.0,0.0,0.0,0.0,0.0,0.0,0.0,0.0,0.0,0.0,0.0,0.0,0.0,0.0,0.0,0.0,0.0,0.0,0.0,0.0,-0.3073,-0.3857,-0.4972,-0.6255,-0.7593,-0.8774,-0.8214,-0.7426,-0.5468,-0.3798,-0.2794,-1.299,-1.2745,-1.2725,-1.2637,-1.2528,-1.2508,-1.2501,-1.2501,-1.2501,-1.2494,-1.2461,-1.2332,-1.2182,-1.2033,-1.1864,-1.1728,-1.164,-1.1619,-1.1619,-1.1619,-1.1619,-1.1619,-1.1511,-1.1369,-1.1268,-1.1173,-1.0914,-1.0751,-1.0717,-1.0717,-1.0717,-1.0717,-1.0717,-1.0717,-1.0717,-1.0717,-1.0717,-1.0717,-1.0717,-1.0717,-1.0717,-1.0717,-1.0717,-1.0717,-1.0717,-1.0717,-1.0717,-1.0717,-1.0585,-1.018,-1.0585,-1.0518,-1.0246,-1.0585,-1.0717,-1.0717,-1.0717,-1.0644,-1.0472,-0.8614,-0.676,-0.4831,-0.3348,-0.1726,0.0,0.0,0.0,0.0,0.0,0.0,0.0,0.0,0.0,0.0,0.0,0.0,0.0,0.0,0.0,0.0,0.0,0.0,0.0,0.0,0.0,0.0,0.0,0.0,0.0,0.0,0.0,0.0,0.0,0.0,0.0,0.0,0.0,0.0,0.0,0.0,0.0,0.0,0.0,0.0,-0.2403,-0.3129,-0.3857,-0.4637,-0.575,-0.67,-0.6644,-0.5695,-0.3687,0.0,0.0,-1.2759,-1.2583,-1.2576,-1.2549,-1.2501,-1.2501,-1.2501,-1.2501,-1.2494,-1.2447,-1.2338,-1.2203,-1.2054,-1.1904,-1.1775,-1.1667,-1.1633,-1.1619,-1.1619,-1.1619,-1.1619,-1.1619,-1.1525,-1.1341,-1.1234,-1.1152,-1.0887,-1.0717,-1.0717,-1.0717,-1.0717,-1.0717,-1.0717,-1.0717,-1.0717,-1.0717,-1.0717,-1.0717,-1.0717,-1.0717,-1.0717,-1.0717,-1.0717,-1.0717,-1.0717,-1.0651,-1.0518,-1.0452,-0.9981,-0.9305,-0.9576,-0.9848,-0.9443,-0.9576,-1.0452,-1.0518,-1.0585,-1.0062,-0.9306,-0.7863,-0.6981,-0.5209,-0.3475,-0.1788,0.0,0.0,0.0,0.0,0.0,0.0,0.0,0.0,0.0,0.0,0.0,0.0,0.0,0.0,0.0,0.0,0.0,0.0,0.0,0.0,0.0,0.0,0.0,0.0,0.0,0.0,0.0,0.0,0.0,0.0,0.0,0.0,0.0,0.0,0.0,0.0,0.0,0.0,0.0,0.0,0.0,-0.2403,-0.285,-0.3296,-0.3798,-0.4355,-0.4244,-0.4077,-0.2738,0.0,0.0,-1.2637,-1.2508,-1.2501,-1.2501,-1.2501,-1.2501,-1.2501,-1.2501,-1.2494,-1.242,-1.2284,-1.2128,-1.1979,-1.183,-1.1694,-1.1619,-1.1619,-1.1619,-1.1619,-1.1619,-1.1619,-1.1619,-1.1525,-1.1328,-1.1185,-1.1077,-1.0894,-1.0717,-1.0717,-1.0717,-1.0717,-1.0717,-1.0717,-1.0717,-1.0717,-1.0717,-1.0717,-1.0717,-1.0717,-1.0717,-1.0717,-1.0717,-1.0717,-1.0717,-1.0651,-1.0452,-0.9915,-0.951,-0.8972,-0.8035,-0.7902,-0.8374,-0.7902,-0.8035,-0.8911,-0.8839,-0.8701,-0.8091,-0.7238,-0.6074,-0.5016,-0.4114,-0.3028,-0.1788,0.0,0.0,0.0,0.0,0.0,0.0,0.0,0.0,0.0,0.0,0.0,0.0,0.0,0.0,0.0,0.0,0.0,0.0,0.0,0.0,0.0,0.0,0.0,0.0,0.0,0.0,0.0,0.0,0.0,0.0,0.0,0.0,0.0,0.0,0.0,0.0,0.0,0.0,0.0,0.0,0.0,0.0,0.0,0.0,0.0,0.0,-0.1846,-0.1678,-0.1454,0.0,0.0,-1.2637,-1.2508,-1.2501,-1.2494,-1.2488,-1.2461,-1.2467,-1.2488,-1.2488,-1.24,-1.225,-1.2088,-1.1938,-1.1809,-1.1674,-1.1619,-1.1619,-1.1619,-1.1619,-1.1619,-1.1619,-1.1613,-1.1504,-1.1307,-1.1172,-1.105,-1.0887,-1.0717,-1.0717,-1.0717,-1.0717,-1.0717,-1.0717,-1.0717,-1.0717,-1.0717,-1.0717,-1.0717,-1.0717,-1.0717,-1.0717,-1.0717,-1.0452,-1.0313,-1.0047,-0.9238,-0.8568,-0.7831,-0.6898,-0.6097,-0.5629,-0.5563,-0.5429,-0.5432,-0.5429,-0.5563,-0.5763,-0.5661,-0.5046,-0.3919,-0.3101,-0.2607,-0.2344,-0.1355,0.0,0.0,0.0,0.0,0.0,0.0,0.0,0.0,0.0,0.0,0.0,0.0,0.0,0.0,0.0,0.0,0.0,0.0,0.0,0.0,0.0,0.0,0.0,0.0,0.0,0.0,0.0,0.0,0.0,0.0,0.0,0.0,0.0,0.0,0.0,0.0,0.0,0.0,0.0,0.0,0.0,0.0,0.0,0.0,0.0,0.0,0.0,0.0,0.0,0.0,0.0,-1.2542,-1.2501,-1.2501,-1.244,-1.2345,-1.2237,-1.225,-1.2338,-1.2345,-1.2216,-1.1959,-1.1918,-1.183,-1.1681,-1.164,-1.1619,-1.1619,-1.1619,-1.1619,-1.1613,-1.1599,-1.1538,-1.1416,-1.1253,-1.1124,-1.0982,-1.0839,-1.0717,-1.0717,-1.0717,-1.0717,-1.0717,-1.0717,-1.0717,-1.0717,-1.0717,-1.0717,-1.0717,-1.0717,-1.0585,-1.0518,-1.0452,-0.9908,-0.9105,-0.8767,-0.7764,-0.6631,-0.6164,-0.5162,-0.389,-0.476,-0.4961,-0.3488,-0.4626,-0.5429,-0.5422,-0.5314,-0.491,-0.367,-0.2927,-0.2199,0.0,0.0,0.0,0.0,0.0,0.0,0.0,0.0,0.0,0.0,0.0,0.0,0.0,0.0,0.0,0.0,0.0,0.0,0.0,0.0,0.0,0.0,0.0,0.0,0.0,0.0,0.0,0.0,0.0,0.0,0.0,0.0,0.0,0.0,0.0,0.0,0.0,0.0,0.0,0.0,0.0,0.0,0.0,0.0,0.0,0.0,0.0,0.0,0.0,0.0,0.0,0.0,0.0,0.0,-1.2467,-1.242,-1.242,-1.2338,-1.2196,-1.2101,-1.2094,-1.2121,-1.2169,-1.2054,-1.185,-1.1837,-1.1755,-1.164,-1.1619,-1.1619,-1.1619,-1.1619,-1.1619,-1.1606,-1.1552,-1.1477,-1.1355,-1.1185,-1.1043,-1.0847,-1.0745,-1.0717,-1.0717,-1.0717,-1.0717,-1.0717,-1.0717,-1.0717,-1.0717,-1.0717,-1.0717,-1.0717,-1.0585,-1.0253,-0.9915,-0.9643,-0.8501,-0.7365,-0.7031,-0.5964,-0.4626,-0.4359,-0.3354,-0.1948,-0.3021,-0.2819,-0.168,-0.2685,-0.3137,-0.2998,-0.2909,-0.2472,-0.1728,-0.1584,-0.0939,0.0,0.0,0.0,0.0,0.0,0.0,0.0,0.0,0.0,0.0,0.0,0.0,0.0,0.0,0.0,0.0,0.0,0.0,0.0,0.0,0.0,0.0,0.0,0.0,0.0,0.0,0.0,0.0,0.0,0.0,0.0,0.0,0.0,0.0,0.0,0.0,0.0,0.0,0.0,0.0,0.0,0.0,0.0,0.0,0.0,0.0,0.0,0.0,0.0,0.0,0.0,0.0,0.0,0.0,-1.2413,-1.2291,-1.2264,-1.2169,-1.2054,-1.202,-1.1938,-1.1837,-1.1959,-1.1945,-1.1823,-1.1809,-1.1735,-1.1633,-1.1619,-1.1619,-1.1599,-1.1586,-1.1558,-1.1586,-1.143,-1.1341,-1.1233,-1.109,-1.0894,-1.082,-1.0745,-1.0717,-1.0717,-1.0717,-1.0717,-1.0717,-1.0717,-1.0518,-1.0047,-1.0585,-1.0452,-0.9975,-0.9842,-0.9576,-0.8501,-0.7831,-0.7031,-0.5563,-0.4961,-0.4359,-0.3021,-0.2216,-0.1747,-0.0606,0.0,0.0,0.0,0.0,0.0,0.0,0.0,0.0,0.0,0.0,0.0,0.0,0.0,0.0,0.0,0.0,0.0,0.0,0.0,0.0,0.0,0.0,0.0,0.0,0.0,0.0,0.0,0.0,0.0,0.0,0.0,0.0,0.0,0.0,0.0,0.0,0.0,0.0,0.0,0.0,0.0,0.0,0.0,0.0,0.0,0.0,0.0,0.0,0.0,0.0,0.0,0.0,0.0,0.0,0.0,0.0,0.0,0.0,0.0,0.0,0.0,0.0,0.0,0.0,0.0,-1.2325,-1.2264,-1.204,-1.1918,-1.1877,-1.1769,-1.1714,-1.1674,-1.1708,-1.1714,-1.1674,-1.1674,-1.166,-1.1626,-1.1619,-1.1613,-1.1586,-1.1511,-1.1457,-1.1396,-1.1287,-1.1179,-1.1084,-1.0914,-1.0813,-1.0799,-1.0738,-1.0717,-1.0717,-1.0717,-1.0651,-1.0651,-1.0518,-0.9981,-0.8773,-0.951,-0.9709,-0.8767,-0.8302,-0.8163,-0.7564,-0.6297,-0.5228,-0.3959,-0.3155,-0.2484,0.0,0.0,0.0,0.0,0.0,0.0,0.0,0.0,0.0,0.0,0.0,0.0,0.0,0.0,0.0,0.0,0.0,0.0,0.0,0.0,0.0,0.0,0.0,0.0,0.0,0.0,0.0,0.0,0.0,0.0,0.0,0.0,0.0,0.0,0.0,0.0,0.0,0.0,0.0,0.0,0.0,0.0,0.0,0.0,0.0,0.0,0.0,0.0,0.0,0.0,0.0,0.0,0.0,0.0,0.0,0.0,0.0,0.0,0.0,0.0,0.0,0.0,0.0,0.0,0.0,0.0,0.0,0.0,0.0,-1.2149,-1.206,-1.1837,-1.1735,-1.1721,-1.1653,-1.1619,-1.1619,-1.1619,-1.1619,-1.1619,-1.1619,-1.1619,-1.1619,-1.1619,-1.1558,-1.1525,-1.1436,-1.1355,-1.1267,-1.1145,-1.105,-1.0887,-1.0813,-1.0745,-1.0731,-1.0724,-1.0717,-1.0717,-1.0585,-1.0518,-0.9782,-0.9437,-0.8767,-0.7298,-0.7836,-0.8035,-0.6898,-0.6227,-0.5893,-0.5826,-0.4626,-0.3289,-0.2083,0.0,0.0,0.0,0.0,0.0,0.0,0.0,0.0,0.0,0.0,0.0,0.0,0.0,0.0,0.0,0.0,0.0,0.0,0.0,0.0,0.0,0.0,0.0,0.0,0.0,0.0,0.0,0.0,0.0,0.0,0.0,0.0,0.0,0.0,0.0,0.0,0.0,0.0,0.0,0.0,0.0,0.0,0.0,0.0,0.0,0.0,0.0,0.0,0.0,0.0,0.0,0.0,0.0,0.0,0.0,0.0,0.0,0.0,0.0,0.0,0.0,0.0,0.0,0.0,0.0,0.0,0.0,0.0,0.0,0.0,0.0,-1.1945,-1.1789,-1.1674,-1.1619,-1.1619,-1.1619,-1.1619,-1.1619,-1.1619,-1.1619,-1.1619,-1.1619,-1.1619,-1.1619,-1.1586,-1.1491,-1.1396,-1.1294,-1.1219,-1.1124,-1.0982,-1.0914,-1.086,-1.0792,-1.0744,-1.0724,-1.0717,-1.0717,-1.0717,-1.0585,-0.9915,-0.8368,-0.7564,-0.7027,-0.5696,-0.5362,-0.5563,-0.4894,-0.4158,-0.3153,-0.2752,-0.2417,-0.1478,0.0,0.0,0.0,0.0,0.0,0.0,0.0,0.0,0.0,0.0,0.0,0.0,0.0,0.0,0.0,0.0,0.0,0.0,0.0,0.0,0.0,0.0,0.0,0.0,0.0,0.0,0.0,0.0,0.0,0.0,0.0,0.0,0.0,0.0,0.0,0.0,0.0,0.0,0.0,0.0,0.0,0.0,0.0,0.0,0.0,0.0,0.0,0.0,0.0,0.0,0.0,0.0,0.0,0.0,0.0,0.0,0.0,0.0,0.0,0.0,0.0,0.0,0.0,0.0,0.0,0.0,0.0,0.0,0.0,0.0,0.0,0.0,-1.1796,-1.1653,-1.1626,-1.1619,-1.1619,-1.1619,-1.1619,-1.1619,-1.1619,-1.1619,-1.1619,-1.1619,-1.1619,-1.1606,-1.1477,-1.1396,-1.1341,-1.1185,-1.0988,-1.09,-1.0853,-1.0792,-1.0765,-1.0751,-1.0724,-1.0717,-1.0717,-1.0651,-1.018,-1.0319,-0.9643,-0.7764,-0.7764,-0.636,-0.3823,-0.3823,-0.4292,-0.3421,-0.2952,-0.235,-0.2016,-0.1545,-0.0538,0.0,0.0,0.0,0.0,0.0,0.0,0.0,0.0,0.0,0.0,0.0,0.0,0.0,0.0,0.0,0.0,0.0,0.0,0.0,0.0,0.0,0.0,0.0,0.0,0.0,0.0,0.0,0.0,0.0,0.0,0.0,0.0,0.0,0.0,0.0,0.0,0.0,0.0,0.0,0.0,0.0,0.0,0.0,0.0,0.0,0.0,0.0,0.0,0.0,0.0,0.0,0.0,0.0,0.0,0.0,0.0,0.0,0.0,0.0,0.0,0.0,0.0,0.0,0.0,0.0,0.0,0.0,0.0,0.0,0.0,0.0,0.0]}]]